Time,TemperatureF,DewpointF,PressureIn,WindDirection,WindDirectionDegrees,WindSpeedMPH,WindSpeedGustMPH,Humidity,HourlyPrecipIn,Conditions,Clouds,dailyrainin,SoftwareType,DateUTC
2013-02-14 00:00:00,30.4,28.9,28.47,NNW,338,3.6,3.8,94,0.00,,---,0.00,VWS V14.01,2013-02-14 06:00:00,
2013-02-14 00:01:00,30.6,29.3,28.47,North,0,3.4,3.8,95,0.00,,---,0.00,VWS V14.01,2013-02-14 06:01:00,
2013-02-14 00:02:00,30.6,29.3,28.47,NW,315,3.8,3.8,95,0.00,,---,0.00,VWS V14.01,2013-02-14 06:02:00,
2013-02-14 00:03:00,30.4,28.9,28.47,NNW,338,2.9,3.8,94,0.00,,---,0.00,VWS V14.01,2013-02-14 06:03:00,
2013-02-14 00:04:00,30.4,28.9,28.47,NNW,338,4.9,5.6,94,0.00,,---,0.00,VWS V14.01,2013-02-14 06:04:00,
2013-02-14 00:05:00,30.2,28.7,28.47,NNW,338,2.7,4.7,94,0.00,,---,0.00,VWS V14.01,2013-02-14 06:05:00,
2013-02-14 00:06:00,30.2,28.7,28.47,NNW,338,3.1,4.9,94,0.00,,---,0.00,VWS V14.01,2013-02-14 06:06:00,
2013-02-14 00:07:00,30.2,28.7,28.47,NNW,338,3.6,4.7,94,0.00,,---,0.00,VWS V14.01,2013-02-14 06:07:00,
2013-02-14 00:08:00,30.2,28.7,28.47,NNW,338,3.1,3.6,94,0.00,,---,0.00,VWS V14.01,2013-02-14 06:08:00,
2013-02-14 00:09:00,30.2,28.7,28.47,North,0,3.8,3.8,94,0.00,,---,0.00,VWS V14.01,2013-02-14 06:09:00,
2013-02-14 00:10:00,30.0,28.5,28.47,North,0,3.8,3.8,94,0.00,,---,0.00,VWS V14.01,2013-02-14 06:10:00,
2013-02-14 00:11:00,30.2,28.7,28.47,North,0,4.7,5.4,94,0.00,,---,0.00,VWS V14.01,2013-02-14 06:11:00,
2013-02-14 00:12:00,30.0,28.5,28.47,NNW,338,2.7,4.7,94,0.00,,---,0.00,VWS V14.01,2013-02-14 06:12:00,
2013-02-14 00:13:00,30.0,28.5,28.47,NNW,338,4.9,4.9,94,0.00,,---,0.00,VWS V14.01,2013-02-14 06:13:00,
2013-02-14 00:14:00,30.0,28.5,28.47,North,0,4.0,4.9,94,0.00,,---,0.00,VWS V14.01,2013-02-14 06:14:00,
2013-02-14 00:15:00,30.0,28.5,28.50,North,0,3.8,4.7,94,0.00,,---,0.00,VWS V14.01,2013-02-14 06:15:00,
2013-02-14 00:16:00,30.0,28.5,28.47,NNW,338,3.4,4.9,94,0.00,,---,0.00,VWS V14.01,2013-02-14 06:16:00,
2013-02-14 00:17:00,30.0,28.5,28.50,North,0,4.7,4.9,94,0.00,,---,0.00,VWS V14.01,2013-02-14 06:17:00,
2013-02-14 00:18:00,30.0,28.5,28.50,NNE,22,4.3,4.7,94,0.00,,---,0.00,VWS V14.01,2013-02-14 06:18:00,
2013-02-14 00:19:00,29.8,28.3,28.50,NNW,338,3.1,4.3,94,0.00,,---,0.00,VWS V14.01,2013-02-14 06:19:00,
2013-02-14 00:20:00,29.8,28.3,28.50,NNW,338,2.0,3.4,94,0.00,,---,0.00,VWS V14.01,2013-02-14 06:20:00,
2013-02-14 00:21:00,29.8,28.3,28.50,NNW,338,2.9,4.7,94,0.00,,---,0.00,VWS V14.01,2013-02-14 06:21:00,
2013-02-14 00:22:00,29.8,28.3,28.50,NNW,338,3.4,3.8,94,0.00,,---,0.00,VWS V14.01,2013-02-14 06:22:00,
2013-02-14 00:23:00,29.8,28.3,28.50,NNW,338,2.7,3.6,94,0.00,,---,0.00,VWS V14.01,2013-02-14 06:23:00,
2013-02-14 00:24:00,29.8,28.3,28.50,North,0,4.0,4.0,94,0.00,,---,0.00,VWS V14.01,2013-02-14 06:24:00,
2013-02-14 00:25:00,29.7,28.4,28.50,NNW,338,2.7,4.3,95,0.00,,---,0.00,VWS V14.01,2013-02-14 06:25:00,
2013-02-14 00:26:00,29.8,28.6,28.50,NNW,338,3.6,3.8,95,0.00,,---,0.00,VWS V14.01,2013-02-14 06:26:00,
2013-02-14 00:27:00,29.7,28.4,28.50,NNW,338,3.1,4.0,95,0.00,,---,0.00,VWS V14.01,2013-02-14 06:27:00,
2013-02-14 00:28:00,29.7,28.4,28.50,NNW,338,3.8,4.3,95,0.00,,---,0.00,VWS V14.01,2013-02-14 06:28:00,
2013-02-14 00:29:00,29.7,28.4,28.50,NNW,338,3.6,3.8,95,0.00,,---,0.00,VWS V14.01,2013-02-14 06:29:00,
2013-02-14 00:30:00,29.7,28.4,28.50,NNW,338,2.5,3.4,95,0.00,,---,0.00,VWS V14.01,2013-02-14 06:30:00,
2013-02-14 00:31:00,29.7,28.4,28.50,NNW,338,3.4,4.0,95,0.00,,---,0.00,VWS V14.01,2013-02-14 06:31:00,
2013-02-14 00:32:00,29.7,28.4,28.50,NNW,338,3.4,3.4,95,0.00,,---,0.00,VWS V14.01,2013-02-14 06:32:00,
2013-02-14 00:33:00,29.7,28.4,28.50,NNW,338,3.4,3.6,95,0.00,,---,0.00,VWS V14.01,2013-02-14 06:33:00,
2013-02-14 00:34:00,29.7,28.4,28.50,North,0,3.1,3.6,95,0.00,,---,0.00,VWS V14.01,2013-02-14 06:34:00,
2013-02-14 00:35:00,29.7,28.4,28.50,NNW,338,3.6,4.0,95,0.00,,---,0.00,VWS V14.01,2013-02-14 06:35:00,
2013-02-14 00:36:00,29.7,28.4,28.50,NNW,338,3.4,4.0,95,0.00,,---,0.00,VWS V14.01,2013-02-14 06:36:00,
2013-02-14 00:37:00,29.7,28.4,28.50,NNW,338,3.1,3.8,95,0.00,,---,0.00,VWS V14.01,2013-02-14 06:37:00,
2013-02-14 00:38:00,29.7,28.4,28.50,NNW,338,3.8,4.0,95,0.00,,---,0.00,VWS V14.01,2013-02-14 06:38:00,
2013-02-14 00:39:00,29.7,28.4,28.50,NNW,338,3.1,4.0,95,0.00,,---,0.00,VWS V14.01,2013-02-14 06:39:00,
2013-02-14 00:40:00,29.5,28.2,28.50,North,0,3.1,4.0,95,0.00,,---,0.00,VWS V14.01,2013-02-14 06:40:00,
2013-02-14 00:41:00,29.7,28.4,28.50,NNW,338,2.9,2.9,95,0.00,,---,0.00,VWS V14.01,2013-02-14 06:41:00,
2013-02-14 00:42:00,29.5,28.2,28.50,NNW,338,4.0,4.0,95,0.00,,---,0.00,VWS V14.01,2013-02-14 06:42:00,
2013-02-14 00:43:00,29.5,28.2,28.50,NNW,338,3.6,4.0,95,0.00,,---,0.00,VWS V14.01,2013-02-14 06:43:00,
2013-02-14 00:44:00,29.5,28.0,28.50,NNW,338,4.0,4.0,94,0.00,,---,0.00,VWS V14.01,2013-02-14 06:44:00,
2013-02-14 00:45:00,29.3,27.8,28.47,NNW,338,2.9,2.9,94,0.00,,---,0.00,VWS V14.01,2013-02-14 06:45:00,
2013-02-14 00:46:00,29.5,28.0,28.50,North,0,3.1,4.0,94,0.00,,---,0.00,VWS V14.01,2013-02-14 06:46:00,
2013-02-14 00:47:00,29.5,28.0,28.47,NNW,338,2.7,3.8,94,0.00,,---,0.00,VWS V14.01,2013-02-14 06:47:00,
2013-02-14 00:49:00,29.3,27.8,28.47,NNW,338,2.9,2.9,94,0.00,,---,0.00,VWS V14.01,2013-02-14 06:49:00,
2013-02-14 00:50:00,29.3,27.8,28.47,North,0,2.9,3.6,94,0.00,,---,0.00,VWS V14.01,2013-02-14 06:50:00,
2013-02-14 00:51:00,29.3,27.8,28.47,NNW,338,3.1,3.8,94,0.00,,---,0.00,VWS V14.01,2013-02-14 06:51:00,
2013-02-14 00:52:00,29.3,27.8,28.47,NNW,338,3.6,3.6,94,0.00,,---,0.00,VWS V14.01,2013-02-14 06:52:00,
2013-02-14 00:53:00,29.3,27.8,28.47,NNW,338,3.1,3.6,94,0.00,,---,0.00,VWS V14.01,2013-02-14 06:53:00,
2013-02-14 00:54:00,29.1,27.6,28.47,NNW,338,3.4,3.4,94,0.00,,---,0.00,VWS V14.01,2013-02-14 06:54:00,
2013-02-14 00:55:00,29.1,27.6,28.47,North,0,2.2,2.5,94,0.00,,---,0.00,VWS V14.01,2013-02-14 06:55:00,
2013-02-14 00:56:00,29.1,27.6,28.47,NNW,338,3.1,3.8,94,0.00,,---,0.00,VWS V14.01,2013-02-14 06:56:00,
2013-02-14 00:57:00,29.1,27.6,28.47,NNW,338,2.5,3.1,94,0.00,,---,0.00,VWS V14.01,2013-02-14 06:57:00,
2013-02-14 00:58:00,29.1,27.6,28.47,NNW,338,3.6,3.6,94,0.00,,---,0.00,VWS V14.01,2013-02-14 06:58:00,
2013-02-14 00:59:00,29.1,27.6,28.47,NW,315,2.7,3.6,94,0.00,,---,0.00,VWS V14.01,2013-02-14 06:59:00,
2013-02-14 01:00:00,29.1,27.6,28.47,North,0,3.4,4.0,94,0.00,,---,0.00,VWS V14.01,2013-02-14 07:00:00,
2013-02-14 01:01:00,29.1,27.6,28.47,NNW,338,3.4,4.0,94,0.00,,---,0.00,VWS V14.01,2013-02-14 07:01:00,
2013-02-14 01:02:00,29.1,27.6,28.47,NNW,338,4.0,4.0,94,0.00,,---,0.00,VWS V14.01,2013-02-14 07:02:00,
2013-02-14 01:03:00,29.1,27.6,28.47,NNW,338,3.1,4.0,94,0.00,,---,0.00,VWS V14.01,2013-02-14 07:03:00,
2013-02-14 01:04:00,29.1,27.6,28.47,NNW,338,3.6,4.0,94,0.00,,---,0.00,VWS V14.01,2013-02-14 07:04:00,
2013-02-14 01:05:00,29.1,27.6,28.47,NNW,338,2.7,3.6,94,0.00,,---,0.00,VWS V14.01,2013-02-14 07:05:00,
2013-02-14 01:06:00,29.1,27.6,28.47,NNW,338,4.0,4.0,94,0.00,,---,0.00,VWS V14.01,2013-02-14 07:06:00,
2013-02-14 01:07:00,29.1,27.6,28.47,North,0,2.9,4.0,94,0.00,,---,0.00,VWS V14.01,2013-02-14 07:07:00,
2013-02-14 01:08:00,28.9,27.4,28.47,North,0,3.8,3.8,94,0.00,,---,0.00,VWS V14.01,2013-02-14 07:08:00,
2013-02-14 01:09:00,28.9,27.4,28.47,NNW,338,2.7,3.8,94,0.00,,---,0.00,VWS V14.01,2013-02-14 07:09:00,
2013-02-14 01:10:00,29.1,27.6,28.47,NNW,338,2.5,3.4,94,0.00,,---,0.00,VWS V14.01,2013-02-14 07:10:00,
2013-02-14 01:11:00,28.9,27.4,28.47,NNW,338,2.9,2.9,94,0.00,,---,0.00,VWS V14.01,2013-02-14 07:11:00,
2013-02-14 01:12:00,28.9,27.4,28.47,North,0,3.4,3.8,94,0.00,,---,0.00,VWS V14.01,2013-02-14 07:12:00,
2013-02-14 01:13:00,29.1,27.6,28.47,NNW,338,3.6,4.3,94,0.00,,---,0.00,VWS V14.01,2013-02-14 07:13:00,
2013-02-14 01:14:00,29.1,27.9,28.47,NNW,338,3.8,3.8,95,0.00,,---,0.00,VWS V14.01,2013-02-14 07:14:00,
2013-02-14 01:15:00,29.3,28.0,28.50,NNW,338,3.1,3.8,95,0.00,,---,0.00,VWS V14.01,2013-02-14 07:15:00,
2013-02-14 01:16:00,29.1,27.9,28.47,NNW,338,3.4,3.4,95,0.00,,---,0.00,VWS V14.01,2013-02-14 07:16:00,
2013-02-14 01:17:00,29.3,28.0,28.47,NNW,338,3.8,5.4,95,0.00,,---,0.00,VWS V14.01,2013-02-14 07:17:00,
2013-02-14 01:18:00,29.3,28.0,28.50,North,0,4.3,4.3,95,0.00,,---,0.00,VWS V14.01,2013-02-14 07:18:00,
2013-02-14 01:19:00,29.3,28.0,28.50,NNW,338,5.4,5.6,95,0.00,,---,0.00,VWS V14.01,2013-02-14 07:19:00,
2013-02-14 01:20:00,29.5,28.5,28.50,NNW,338,5.4,5.4,96,0.00,,---,0.00,VWS V14.01,2013-02-14 07:20:00,
2013-02-14 01:21:00,29.5,28.5,28.50,North,0,3.6,5.4,96,0.00,,---,0.00,VWS V14.01,2013-02-14 07:21:00,
2013-02-14 01:22:00,29.5,28.5,28.50,North,0,4.3,6.0,96,0.00,,---,0.00,VWS V14.01,2013-02-14 07:22:00,
2013-02-14 01:23:00,29.5,28.5,28.50,NNW,338,5.4,5.4,96,0.00,,---,0.00,VWS V14.01,2013-02-14 07:23:00,
2013-02-14 01:24:00,29.7,28.7,28.50,North,0,5.4,5.4,96,0.00,,---,0.00,VWS V14.01,2013-02-14 07:24:00,
2013-02-14 01:25:00,29.7,28.7,28.50,NNW,338,4.3,4.3,96,0.00,,---,0.00,VWS V14.01,2013-02-14 07:25:00,
2013-02-14 01:26:00,29.7,28.7,28.50,NNW,338,4.0,5.8,96,0.00,,---,0.00,VWS V14.01,2013-02-14 07:26:00,
2013-02-14 01:27:00,29.7,28.7,28.50,NNW,338,4.3,4.3,96,0.00,,---,0.00,VWS V14.01,2013-02-14 07:27:00,
2013-02-14 01:28:00,29.7,28.7,28.50,NNW,338,4.3,4.3,96,0.00,,---,0.00,VWS V14.01,2013-02-14 07:28:00,
2013-02-14 01:29:00,29.7,28.7,28.50,North,0,6.0,6.0,96,0.00,,---,0.00,VWS V14.01,2013-02-14 07:29:00,
2013-02-14 01:30:00,29.8,28.6,28.52,North,0,4.9,4.9,95,0.00,,---,0.00,VWS V14.01,2013-02-14 07:30:00,
2013-02-14 01:31:00,29.8,28.6,28.50,NNW,338,4.0,5.4,95,0.00,,---,0.00,VWS V14.01,2013-02-14 07:31:00,
2013-02-14 01:32:00,29.8,28.6,28.52,North,0,3.4,4.3,95,0.00,,---,0.00,VWS V14.01,2013-02-14 07:32:00,
2013-02-14 01:33:00,29.8,28.6,28.52,WNW,292,3.8,4.9,95,0.00,,---,0.00,VWS V14.01,2013-02-14 07:33:00,
2013-02-14 01:34:00,29.8,28.6,28.52,NNW,338,3.8,3.8,95,0.00,,---,0.00,VWS V14.01,2013-02-14 07:34:00,
2013-02-14 01:35:00,29.8,28.6,28.52,North,0,4.3,5.8,95,0.00,,---,0.00,VWS V14.01,2013-02-14 07:35:00,
2013-02-14 01:36:00,29.8,28.6,28.52,North,0,5.4,5.8,95,0.00,,---,0.00,VWS V14.01,2013-02-14 07:36:00,
2013-02-14 01:38:00,29.8,28.6,28.52,NNW,338,4.3,5.8,95,0.00,,---,0.00,VWS V14.01,2013-02-14 07:38:00,
2013-02-14 01:39:00,29.8,28.3,28.52,North,0,3.6,4.3,94,0.00,,---,0.00,VWS V14.01,2013-02-14 07:39:00,
2013-02-14 01:40:00,29.8,28.3,28.52,NNW,338,4.3,4.3,94,0.00,,---,0.00,VWS V14.01,2013-02-14 07:40:00,
2013-02-14 01:41:00,29.8,28.3,28.52,North,0,3.1,4.0,94,0.00,,---,0.00,VWS V14.01,2013-02-14 07:41:00,
2013-02-14 01:42:00,29.8,28.3,28.52,NNW,338,4.0,5.6,94,0.00,,---,0.00,VWS V14.01,2013-02-14 07:42:00,
2013-02-14 01:43:00,29.8,28.3,28.52,North,0,2.5,4.3,94,0.00,,---,0.00,VWS V14.01,2013-02-14 07:43:00,
2013-02-14 01:44:00,29.8,28.3,28.52,North,0,4.0,4.0,94,0.00,,---,0.00,VWS V14.01,2013-02-14 07:44:00,
2013-02-14 01:45:00,29.8,28.3,28.52,North,0,3.4,3.4,94,0.00,,---,0.00,VWS V14.01,2013-02-14 07:45:00,
2013-02-14 01:46:00,29.8,28.3,28.52,NNW,338,3.4,4.3,94,0.00,,---,0.00,VWS V14.01,2013-02-14 07:46:00,
2013-02-14 01:47:00,29.8,28.3,28.52,NNW,338,3.1,3.8,94,0.00,,---,0.00,VWS V14.01,2013-02-14 07:47:00,
2013-02-14 01:48:00,29.8,28.3,28.52,NNE,22,3.6,3.8,94,0.00,,---,0.00,VWS V14.01,2013-02-14 07:48:00,
2013-02-14 01:49:00,29.8,28.3,28.52,North,0,4.3,4.3,94,0.00,,---,0.00,VWS V14.01,2013-02-14 07:49:00,
2013-02-14 01:50:00,29.8,28.1,28.52,North,0,3.6,4.7,93,0.00,,---,0.00,VWS V14.01,2013-02-14 07:50:00,
2013-02-14 01:51:00,29.8,28.1,28.52,North,0,3.6,3.8,93,0.00,,---,0.00,VWS V14.01,2013-02-14 07:51:00,
2013-02-14 01:52:00,29.8,28.1,28.52,NNW,338,3.6,3.6,93,0.00,,---,0.00,VWS V14.01,2013-02-14 07:52:00,
2013-02-14 01:53:00,29.8,28.1,28.52,North,0,3.4,4.7,93,0.00,,---,0.00,VWS V14.01,2013-02-14 07:53:00,
2013-02-14 01:55:00,29.8,28.1,28.52,North,0,4.0,4.3,93,0.00,,---,0.00,VWS V14.01,2013-02-14 07:55:00,
2013-02-14 01:56:00,29.8,28.1,28.52,North,0,3.6,3.8,93,0.00,,---,0.00,VWS V14.01,2013-02-14 07:56:00,
2013-02-14 01:57:00,29.8,28.1,28.52,NNW,338,3.8,5.4,93,0.00,,---,0.00,VWS V14.01,2013-02-14 07:57:00,
2013-02-14 01:58:00,29.8,28.1,28.52,North,0,4.9,4.9,93,0.00,,---,0.00,VWS V14.01,2013-02-14 07:58:00,
2013-02-14 01:59:00,29.8,28.1,28.52,NNW,338,4.3,4.9,93,0.00,,---,0.00,VWS V14.01,2013-02-14 07:59:00,
2013-02-14 02:00:00,29.8,28.1,28.52,NNW,338,4.3,4.3,93,0.00,,---,0.00,VWS V14.01,2013-02-14 08:00:00,
2013-02-14 02:01:00,29.8,27.8,28.52,NNW,338,3.6,4.9,92,0.00,,---,0.00,VWS V14.01,2013-02-14 08:01:00,
2013-02-14 02:02:00,29.8,27.8,28.52,NW,315,3.6,4.3,92,0.00,,---,0.00,VWS V14.01,2013-02-14 08:02:00,
2013-02-14 02:03:00,29.8,27.8,28.52,North,0,3.1,4.9,92,0.00,,---,0.00,VWS V14.01,2013-02-14 08:03:00,
2013-02-14 02:04:00,29.8,27.8,28.52,North,0,4.9,4.9,92,0.00,,---,0.00,VWS V14.01,2013-02-14 08:04:00,
2013-02-14 02:05:00,29.8,27.8,28.52,NNW,338,2.7,4.9,92,0.00,,---,0.00,VWS V14.01,2013-02-14 08:05:00,
2013-02-14 02:06:00,29.8,27.8,28.52,NNW,338,1.3,3.6,92,0.00,,---,0.00,VWS V14.01,2013-02-14 08:06:00,
2013-02-14 02:07:00,29.8,27.8,28.52,North,0,2.7,3.6,92,0.00,,---,0.00,VWS V14.01,2013-02-14 08:07:00,
2013-02-14 02:09:00,29.8,27.8,28.52,NNW,338,4.3,4.3,92,0.00,,---,0.00,VWS V14.01,2013-02-14 08:09:00,
2013-02-14 02:10:00,29.8,27.8,28.52,North,0,4.3,4.3,92,0.00,,---,0.00,VWS V14.01,2013-02-14 08:10:00,
2013-02-14 02:11:00,29.8,27.5,28.52,NNW,338,2.9,3.4,91,0.00,,---,0.00,VWS V14.01,2013-02-14 08:11:00,
2013-02-14 02:12:00,29.8,27.5,28.52,NNW,338,3.4,4.0,91,0.00,,---,0.00,VWS V14.01,2013-02-14 08:12:00,
2013-02-14 02:13:00,29.8,27.5,28.52,North,0,4.0,4.0,91,0.00,,---,0.00,VWS V14.01,2013-02-14 08:13:00,
2013-02-14 02:14:00,29.8,27.5,28.52,NNW,338,3.1,4.0,91,0.00,,---,0.00,VWS V14.01,2013-02-14 08:14:00,
2013-02-14 02:15:00,29.8,27.5,28.52,North,0,1.6,3.4,91,0.00,,---,0.00,VWS V14.01,2013-02-14 08:15:00,
2013-02-14 02:16:00,29.8,27.5,28.52,NNW,338,1.3,1.3,91,0.00,,---,0.00,VWS V14.01,2013-02-14 08:16:00,
2013-02-14 02:17:00,29.8,27.5,28.52,NNW,338,1.3,1.3,91,0.00,,---,0.00,VWS V14.01,2013-02-14 08:17:00,
2013-02-14 02:18:00,29.8,27.5,28.52,NNW,338,1.3,1.3,91,0.00,,---,0.00,VWS V14.01,2013-02-14 08:18:00,
2013-02-14 02:19:00,29.8,27.5,28.55,NNW,338,2.9,2.9,91,0.00,,---,0.00,VWS V14.01,2013-02-14 08:19:00,
2013-02-14 02:20:00,29.8,27.5,28.55,NNW,338,2.9,2.9,91,0.00,,---,0.00,VWS V14.01,2013-02-14 08:20:00,
2013-02-14 02:21:00,29.7,27.1,28.55,NNW,338,3.8,3.8,90,0.00,,---,0.00,VWS V14.01,2013-02-14 08:21:00,
2013-02-14 02:22:00,29.7,27.1,28.55,North,0,3.4,4.0,90,0.00,,---,0.00,VWS V14.01,2013-02-14 08:22:00,
2013-02-14 02:23:00,29.7,27.1,28.55,North,0,3.8,3.8,90,0.00,,---,0.00,VWS V14.01,2013-02-14 08:23:00,
2013-02-14 02:24:00,29.7,27.1,28.55,North,0,3.4,3.8,90,0.00,,---,0.00,VWS V14.01,2013-02-14 08:24:00,
2013-02-14 02:25:00,29.7,27.1,28.55,NNW,338,3.8,4.0,90,0.00,,---,0.00,VWS V14.01,2013-02-14 08:25:00,
2013-02-14 02:26:00,29.7,27.1,28.55,NNW,338,3.4,4.0,90,0.00,,---,0.00,VWS V14.01,2013-02-14 08:26:00,
2013-02-14 02:27:00,29.7,27.1,28.55,NNW,338,4.0,4.0,90,0.00,,---,0.00,VWS V14.01,2013-02-14 08:27:00,
2013-02-14 02:28:00,29.7,27.1,28.55,NNW,338,3.4,4.0,90,0.00,,---,0.00,VWS V14.01,2013-02-14 08:28:00,
2013-02-14 02:29:00,29.7,27.1,28.55,NNW,338,3.1,4.0,90,0.00,,---,0.00,VWS V14.01,2013-02-14 08:29:00,
2013-02-14 02:30:00,29.7,27.1,28.55,North,0,3.6,3.6,90,0.00,,---,0.00,VWS V14.01,2013-02-14 08:30:00,
2013-02-14 02:31:00,29.7,27.4,28.55,North,0,3.4,3.4,91,0.00,,---,0.00,VWS V14.01,2013-02-14 08:31:00,
2013-02-14 02:32:00,29.7,27.4,28.55,NNW,338,2.7,3.6,91,0.00,,---,0.00,VWS V14.01,2013-02-14 08:32:00,
2013-02-14 02:33:00,29.7,27.4,28.55,NNW,338,3.6,3.6,91,0.00,,---,0.00,VWS V14.01,2013-02-14 08:33:00,
2013-02-14 02:34:00,29.7,27.4,28.55,North,0,4.3,4.3,91,0.00,,---,0.00,VWS V14.01,2013-02-14 08:34:00,
2013-02-14 02:35:00,29.7,27.1,28.55,NNW,338,4.0,4.3,90,0.00,,---,0.00,VWS V14.01,2013-02-14 08:35:00,
2013-02-14 02:36:00,29.5,26.9,28.55,NNW,338,3.6,3.6,90,0.00,,---,0.00,VWS V14.01,2013-02-14 08:36:00,
2013-02-14 02:37:00,29.7,27.1,28.55,NNW,338,3.6,4.0,90,0.00,,---,0.00,VWS V14.01,2013-02-14 08:37:00,
2013-02-14 02:38:00,29.5,26.9,28.55,NNW,338,4.3,4.3,90,0.00,,---,0.00,VWS V14.01,2013-02-14 08:38:00,
2013-02-14 02:39:00,29.5,26.9,28.55,NNW,338,4.0,4.9,90,0.00,,---,0.00,VWS V14.01,2013-02-14 08:39:00,
2013-02-14 02:40:00,29.5,26.9,28.55,North,0,4.3,4.7,90,0.00,,---,0.00,VWS V14.01,2013-02-14 08:40:00,
2013-02-14 02:41:00,29.5,26.9,28.55,North,0,2.9,3.8,90,0.00,,---,0.00,VWS V14.01,2013-02-14 08:41:00,
2013-02-14 02:42:00,29.5,26.9,28.55,NNW,338,2.9,3.8,90,0.00,,---,0.00,VWS V14.01,2013-02-14 08:42:00,
2013-02-14 02:43:00,29.5,26.9,28.55,NNW,338,3.6,3.8,90,0.00,,---,0.00,VWS V14.01,2013-02-14 08:43:00,
2013-02-14 02:44:00,29.5,26.9,28.55,NNW,338,3.4,4.0,90,0.00,,---,0.00,VWS V14.01,2013-02-14 08:44:00,
2013-02-14 02:45:00,29.5,26.9,28.55,NNW,338,3.1,3.8,90,0.00,,---,0.00,VWS V14.01,2013-02-14 08:45:00,
2013-02-14 02:46:00,29.3,26.5,28.55,NNE,22,3.8,6.0,89,0.00,,---,0.00,VWS V14.01,2013-02-14 08:46:00,
2013-02-14 02:47:00,29.3,26.7,28.55,NNW,338,3.4,3.4,90,0.00,,---,0.00,VWS V14.01,2013-02-14 08:47:00,
2013-02-14 02:48:00,29.3,26.5,28.55,NNW,338,2.9,6.0,89,0.00,,---,0.00,VWS V14.01,2013-02-14 08:48:00,
2013-02-14 02:49:00,29.3,26.5,28.55,NNW,338,3.6,4.7,89,0.00,,---,0.00,VWS V14.01,2013-02-14 08:49:00,
2013-02-14 02:50:00,29.3,26.5,28.55,NNW,338,3.4,3.8,89,0.00,,---,0.00,VWS V14.01,2013-02-14 08:50:00,
2013-02-14 02:51:00,29.1,26.3,28.55,NNW,338,3.8,4.3,89,0.00,,---,0.00,VWS V14.01,2013-02-14 08:51:00,
2013-02-14 02:52:00,29.1,26.3,28.55,NNW,338,4.3,4.5,89,0.00,,---,0.00,VWS V14.01,2013-02-14 08:52:00,
2013-02-14 02:53:00,29.1,26.3,28.55,NNW,338,3.4,4.3,89,0.00,,---,0.00,VWS V14.01,2013-02-14 08:53:00,
2013-02-14 02:54:00,28.9,26.1,28.55,NNW,338,3.4,3.4,89,0.00,,---,0.00,VWS V14.01,2013-02-14 08:54:00,
2013-02-14 02:55:00,28.9,26.1,28.55,NNW,338,2.9,3.8,89,0.00,,---,0.00,VWS V14.01,2013-02-14 08:55:00,
2013-02-14 02:56:00,28.9,25.8,28.55,North,0,3.6,3.6,88,0.00,,---,0.00,VWS V14.01,2013-02-14 08:56:00,
2013-02-14 02:57:00,28.9,25.8,28.55,North,0,3.6,4.9,88,0.00,,---,0.00,VWS V14.01,2013-02-14 08:57:00,
2013-02-14 02:58:00,28.9,25.8,28.55,NNW,338,3.8,3.8,88,0.00,,---,0.00,VWS V14.01,2013-02-14 08:58:00,
2013-02-14 02:59:00,28.8,25.7,28.55,NNW,338,3.1,3.8,88,0.00,,---,0.00,VWS V14.01,2013-02-14 08:59:00,
2013-02-14 03:00:00,28.6,25.5,28.55,NNW,338,4.0,4.3,88,0.00,,---,0.00,VWS V14.01,2013-02-14 09:00:00,
2013-02-14 03:01:00,28.6,25.2,28.55,NNW,338,2.5,3.4,87,0.00,,---,0.00,VWS V14.01,2013-02-14 09:01:00,
2013-02-14 03:02:00,28.6,25.2,28.55,NNW,338,2.9,4.0,87,0.00,,---,0.00,VWS V14.01,2013-02-14 09:02:00,
2013-02-14 03:03:00,28.6,25.2,28.55,NNW,338,2.7,3.4,87,0.00,,---,0.00,VWS V14.01,2013-02-14 09:03:00,
2013-02-14 03:04:00,28.6,25.2,28.55,NNW,338,2.7,3.1,87,0.00,,---,0.00,VWS V14.01,2013-02-14 09:04:00,
2013-02-14 03:05:00,28.4,25.0,28.55,NNW,338,3.6,3.6,87,0.00,,---,0.00,VWS V14.01,2013-02-14 09:05:00,
2013-02-14 03:06:00,28.2,24.6,28.55,NNW,338,2.7,3.4,86,0.00,,---,0.00,VWS V14.01,2013-02-14 09:06:00,
2013-02-14 03:08:00,28.2,24.6,28.55,NNW,338,3.4,3.4,86,0.00,,---,0.00,VWS V14.01,2013-02-14 09:08:00,
2013-02-14 03:09:00,28.0,24.1,28.55,NNW,338,2.9,3.4,85,0.00,,---,0.00,VWS V14.01,2013-02-14 09:09:00,
2013-02-14 03:10:00,27.9,23.9,28.55,North,0,2.5,3.1,85,0.00,,---,0.00,VWS V14.01,2013-02-14 09:10:00,
2013-02-14 03:11:00,27.7,23.8,28.55,NNW,338,2.5,2.9,85,0.00,,---,0.00,VWS V14.01,2013-02-14 09:11:00,
2013-02-14 03:12:00,27.9,23.9,28.55,NNW,338,1.6,2.9,85,0.00,,---,0.00,VWS V14.01,2013-02-14 09:12:00,
2013-02-14 03:13:00,27.7,23.8,28.55,NNW,338,2.5,2.9,85,0.00,,---,0.00,VWS V14.01,2013-02-14 09:13:00,
2013-02-14 03:14:00,27.5,23.6,28.55,NNW,338,2.9,3.1,85,0.00,,---,0.00,VWS V14.01,2013-02-14 09:14:00,
2013-02-14 03:15:00,27.5,23.6,28.55,North,0,3.4,3.4,85,0.00,,---,0.00,VWS V14.01,2013-02-14 09:15:00,
2013-02-14 03:16:00,27.3,23.7,28.55,NNW,338,2.2,3.4,86,0.00,,---,0.00,VWS V14.01,2013-02-14 09:16:00,
2013-02-14 03:17:00,27.3,23.7,28.55,North,0,2.7,2.7,86,0.00,,---,0.00,VWS V14.01,2013-02-14 09:17:00,
2013-02-14 03:18:00,27.3,23.7,28.55,NNW,338,2.2,3.4,86,0.00,,---,0.00,VWS V14.01,2013-02-14 09:18:00,
2013-02-14 03:19:00,27.3,23.7,28.55,NNW,338,2.9,2.9,86,0.00,,---,0.00,VWS V14.01,2013-02-14 09:19:00,
2013-02-14 03:20:00,27.1,23.5,28.55,NNW,338,2.2,2.9,86,0.00,,---,0.00,VWS V14.01,2013-02-14 09:20:00,
2013-02-14 03:21:00,26.8,22.9,28.55,NNW,338,2.2,2.2,85,0.00,,---,0.00,VWS V14.01,2013-02-14 09:21:00,
2013-02-14 03:22:00,27.0,23.1,28.55,North,0,2.0,2.5,85,0.00,,---,0.00,VWS V14.01,2013-02-14 09:22:00,
2013-02-14 03:23:00,26.8,22.9,28.55,NNW,338,2.2,2.2,85,0.00,,---,0.00,VWS V14.01,2013-02-14 09:23:00,
2013-02-14 03:24:00,26.6,23.0,28.55,North,0,2.5,2.5,86,0.00,,---,0.00,VWS V14.01,2013-02-14 09:24:00,
2013-02-14 03:25:00,26.6,23.0,28.55,North,0,0.0,2.5,86,0.00,,---,0.00,VWS V14.01,2013-02-14 09:25:00,
2013-02-14 03:26:00,26.2,22.4,28.55,North,0,2.2,2.9,85,0.00,,---,0.00,VWS V14.01,2013-02-14 09:26:00,
2013-02-14 03:27:00,26.4,22.5,28.55,NNW,338,2.9,2.9,85,0.00,,---,0.00,VWS V14.01,2013-02-14 09:27:00,
2013-02-14 03:28:00,26.2,22.4,28.55,North,0,2.2,2.9,85,0.00,,---,0.00,VWS V14.01,2013-02-14 09:28:00,
2013-02-14 03:29:00,26.1,22.2,28.55,North,0,1.6,2.5,85,0.00,,---,0.00,VWS V14.01,2013-02-14 09:29:00,
2013-02-14 03:30:00,26.1,22.5,28.55,NNW,338,1.3,1.6,86,0.00,,---,0.00,VWS V14.01,2013-02-14 09:30:00,
2013-02-14 03:31:00,25.7,22.1,28.55,NNW,338,2.0,2.5,86,0.00,,---,0.00,VWS V14.01,2013-02-14 09:31:00,
2013-02-14 03:32:00,25.9,22.3,28.55,NNW,338,2.5,2.5,86,0.00,,---,0.00,VWS V14.01,2013-02-14 09:32:00,
2013-02-14 03:33:00,25.7,22.1,28.55,NNW,338,2.0,2.5,86,0.00,,---,0.00,VWS V14.01,2013-02-14 09:33:00,
2013-02-14 03:34:00,25.5,21.9,28.55,NNW,338,2.0,2.2,86,0.00,,---,0.00,VWS V14.01,2013-02-14 09:34:00,
2013-02-14 03:35:00,25.5,21.9,28.55,NNW,338,2.2,2.2,86,0.00,,---,0.00,VWS V14.01,2013-02-14 09:35:00,
2013-02-14 03:36:00,25.0,21.1,28.55,WNW,292,3.4,3.8,85,0.00,,---,0.00,VWS V14.01,2013-02-14 09:36:00,
2013-02-14 03:37:00,25.0,21.1,28.55,WNW,292,2.5,3.6,85,0.00,,---,0.00,VWS V14.01,2013-02-14 09:37:00,
2013-02-14 03:38:00,25.0,21.1,28.55,WNW,292,3.4,3.8,85,0.00,,---,0.00,VWS V14.01,2013-02-14 09:38:00,
2013-02-14 03:39:00,24.8,21.2,28.55,NNW,338,2.9,3.4,86,0.00,,---,0.00,VWS V14.01,2013-02-14 09:39:00,
2013-02-14 03:40:00,24.6,21.0,28.55,NW,315,3.1,4.0,86,0.00,,---,0.00,VWS V14.01,2013-02-14 09:40:00,
2013-02-14 03:41:00,24.4,20.9,28.55,NW,315,3.6,3.6,86,0.00,,---,0.00,VWS V14.01,2013-02-14 09:41:00,
2013-02-14 03:42:00,24.4,20.9,28.55,NW,315,3.6,3.6,86,0.00,,---,0.00,VWS V14.01,2013-02-14 09:42:00,
2013-02-14 03:43:00,24.4,20.9,28.55,NW,315,3.6,3.6,86,0.00,,---,0.00,VWS V14.01,2013-02-14 09:43:00,
2013-02-14 03:44:00,24.3,20.7,28.55,NW,315,2.9,3.8,86,0.00,,---,0.00,VWS V14.01,2013-02-14 09:44:00,
2013-02-14 03:45:00,24.1,20.5,28.55,NW,315,3.4,4.0,86,0.00,,---,0.00,VWS V14.01,2013-02-14 09:45:00,
2013-02-14 03:46:00,23.7,20.1,28.55,NW,315,3.8,3.8,86,0.00,,---,0.00,VWS V14.01,2013-02-14 09:46:00,
2013-02-14 03:47:00,23.9,20.3,28.55,NW,315,3.1,3.8,86,0.00,,---,0.00,VWS V14.01,2013-02-14 09:47:00,
2013-02-14 03:48:00,23.7,20.1,28.55,NW,315,3.4,3.8,86,0.00,,---,0.00,VWS V14.01,2013-02-14 09:48:00,
2013-02-14 03:49:00,23.7,20.1,28.55,NW,315,3.1,3.8,86,0.00,,---,0.00,VWS V14.01,2013-02-14 09:49:00,
2013-02-14 03:50:00,23.7,20.1,28.55,NW,315,2.5,3.1,86,0.00,,---,0.00,VWS V14.01,2013-02-14 09:50:00,
2013-02-14 03:51:00,23.5,20.2,28.55,NNW,338,2.9,2.9,87,0.00,,---,0.00,VWS V14.01,2013-02-14 09:51:00,
2013-02-14 03:52:00,23.5,20.0,28.55,NNW,338,2.9,3.6,86,0.00,,---,0.00,VWS V14.01,2013-02-14 09:52:00,
2013-02-14 03:53:00,23.5,20.2,28.55,NNW,338,2.9,2.9,87,0.00,,---,0.00,VWS V14.01,2013-02-14 09:53:00,
2013-02-14 03:54:00,23.5,20.2,28.55,NW,315,2.7,2.9,87,0.00,,---,0.00,VWS V14.01,2013-02-14 09:54:00,
2013-02-14 03:55:00,23.5,20.2,28.55,NW,315,2.9,3.1,87,0.00,,---,0.00,VWS V14.01,2013-02-14 09:55:00,
2013-02-14 03:56:00,23.4,20.3,28.55,NW,315,3.1,3.1,88,0.00,,---,0.00,VWS V14.01,2013-02-14 09:56:00,
2013-02-14 03:57:00,23.5,20.2,28.55,NNW,338,4.0,4.0,87,0.00,,---,0.00,VWS V14.01,2013-02-14 09:57:00,
2013-02-14 03:58:00,23.5,20.5,28.55,NW,315,2.5,4.0,88,0.00,,---,0.00,VWS V14.01,2013-02-14 09:58:00,
2013-02-14 03:59:00,23.4,20.3,28.55,NNW,338,1.6,3.1,88,0.00,,---,0.00,VWS V14.01,2013-02-14 09:59:00,
2013-02-14 04:00:00,23.4,20.3,28.55,NNW,338,2.9,2.9,88,0.00,,---,0.00,VWS V14.01,2013-02-14 10:00:00,
2013-02-14 04:01:00,23.4,20.3,28.55,NNW,338,2.0,2.0,88,0.00,,---,0.00,VWS V14.01,2013-02-14 10:01:00,
2013-02-14 04:02:00,23.4,20.3,28.55,NNW,338,1.6,2.5,88,0.00,,---,0.00,VWS V14.01,2013-02-14 10:02:00,
2013-02-14 04:03:00,23.4,20.6,28.55,NNW,338,1.3,2.0,89,0.00,,---,0.00,VWS V14.01,2013-02-14 10:03:00,
2013-02-14 04:04:00,23.4,20.6,28.55,NW,315,1.3,2.0,89,0.00,,---,0.00,VWS V14.01,2013-02-14 10:04:00,
2013-02-14 04:05:00,23.2,20.4,28.55,NW,315,2.7,2.7,89,0.00,,---,0.00,VWS V14.01,2013-02-14 10:05:00,
2013-02-14 04:06:00,22.8,20.1,28.55,WNW,292,2.7,3.1,89,0.00,,---,0.00,VWS V14.01,2013-02-14 10:06:00,
2013-02-14 04:07:00,23.0,20.2,28.55,WNW,292,3.4,3.4,89,0.00,,---,0.00,VWS V14.01,2013-02-14 10:07:00,
2013-02-14 04:08:00,22.8,20.1,28.55,WNW,292,3.1,3.6,89,0.00,,---,0.00,VWS V14.01,2013-02-14 10:08:00,
2013-02-14 04:09:00,22.8,20.1,28.55,WNW,292,2.7,3.4,89,0.00,,---,0.00,VWS V14.01,2013-02-14 10:09:00,
2013-02-14 04:10:00,22.6,19.9,28.55,NW,315,3.8,3.8,89,0.00,,---,0.00,VWS V14.01,2013-02-14 10:10:00,
2013-02-14 04:11:00,22.6,20.1,28.55,WNW,292,4.0,4.0,90,0.00,,---,0.00,VWS V14.01,2013-02-14 10:11:00,
2013-02-14 04:12:00,22.6,19.9,28.55,NW,315,2.7,3.8,89,0.00,,---,0.00,VWS V14.01,2013-02-14 10:12:00,
2013-02-14 04:13:00,22.6,20.1,28.55,NNW,338,2.9,3.6,90,0.00,,---,0.00,VWS V14.01,2013-02-14 10:13:00,
2013-02-14 04:14:00,22.6,20.1,28.55,NNW,338,4.9,4.9,90,0.00,,---,0.00,VWS V14.01,2013-02-14 10:14:00,
2013-02-14 04:15:00,22.6,20.1,28.55,NNW,338,5.6,5.6,90,0.00,,---,0.00,VWS V14.01,2013-02-14 10:15:00,
2013-02-14 04:16:00,22.8,20.6,28.58,WNW,292,3.4,4.3,91,0.00,,---,0.00,VWS V14.01,2013-02-14 10:16:00,
2013-02-14 04:17:00,22.6,20.4,28.58,NW,315,4.3,5.4,91,0.00,,---,0.00,VWS V14.01,2013-02-14 10:17:00,
2013-02-14 04:18:00,22.8,20.6,28.58,NW,315,4.3,5.4,91,0.00,,---,0.00,VWS V14.01,2013-02-14 10:18:00,
2013-02-14 04:19:00,22.6,20.7,28.58,WNW,292,4.3,4.9,92,0.00,,---,0.00,VWS V14.01,2013-02-14 10:19:00,
2013-02-14 04:20:00,22.6,20.7,28.58,WNW,292,3.8,4.3,92,0.00,,---,0.00,VWS V14.01,2013-02-14 10:20:00,
2013-02-14 04:21:00,22.6,20.7,28.58,NW,315,4.3,4.3,92,0.00,,---,0.00,VWS V14.01,2013-02-14 10:21:00,
2013-02-14 04:22:00,22.6,20.7,28.58,NW,315,3.8,4.9,92,0.00,,---,0.00,VWS V14.01,2013-02-14 10:22:00,
2013-02-14 04:23:00,22.6,20.7,28.58,NW,315,4.3,4.3,92,0.00,,---,0.00,VWS V14.01,2013-02-14 10:23:00,
2013-02-14 04:24:00,22.5,20.5,28.58,NW,315,2.9,4.3,92,0.00,,---,0.00,VWS V14.01,2013-02-14 10:24:00,
2013-02-14 04:25:00,22.5,20.5,28.58,NW,315,5.8,5.8,92,0.00,,---,0.00,VWS V14.01,2013-02-14 10:25:00,
2013-02-14 04:26:00,22.5,20.5,28.58,NW,315,5.6,5.6,92,0.00,,---,0.00,VWS V14.01,2013-02-14 10:26:00,
2013-02-14 04:27:00,22.6,20.7,28.58,NW,315,4.9,6.0,92,0.00,,---,0.00,VWS V14.01,2013-02-14 10:27:00,
2013-02-14 04:28:00,22.6,20.7,28.58,NW,315,5.6,5.6,92,0.00,,---,0.00,VWS V14.01,2013-02-14 10:28:00,
2013-02-14 04:29:00,22.5,20.5,28.58,NW,315,4.3,5.8,92,0.00,,---,0.00,VWS V14.01,2013-02-14 10:29:00,
2013-02-14 04:30:00,22.5,20.8,28.58,WNW,292,3.4,5.4,93,0.00,,---,0.00,VWS V14.01,2013-02-14 10:30:00,
2013-02-14 04:31:00,22.5,20.8,28.58,NW,315,4.9,4.9,93,0.00,,---,0.00,VWS V14.01,2013-02-14 10:31:00,
2013-02-14 04:32:00,22.5,20.8,28.58,WNW,292,4.3,4.3,93,0.00,,---,0.00,VWS V14.01,2013-02-14 10:32:00,
2013-02-14 04:33:00,22.5,20.8,28.58,WNW,292,4.0,4.7,93,0.00,,---,0.00,VWS V14.01,2013-02-14 10:33:00,
2013-02-14 04:34:00,22.3,20.6,28.58,NW,315,3.8,4.9,93,0.00,,---,0.00,VWS V14.01,2013-02-14 10:34:00,
2013-02-14 04:35:00,22.3,20.3,28.58,NNW,338,3.6,4.0,92,0.00,,---,0.00,VWS V14.01,2013-02-14 10:35:00,
2013-02-14 04:36:00,22.1,20.1,28.58,NW,315,4.3,4.3,92,0.00,,---,0.00,VWS V14.01,2013-02-14 10:36:00,
2013-02-14 04:37:00,22.1,20.1,28.58,WNW,292,4.3,5.8,92,0.00,,---,0.00,VWS V14.01,2013-02-14 10:37:00,
2013-02-14 04:38:00,22.1,20.1,28.58,NW,315,4.3,4.3,92,0.00,,---,0.00,VWS V14.01,2013-02-14 10:38:00,
2013-02-14 04:39:00,21.9,20.0,28.58,WNW,292,3.4,4.9,92,0.00,,---,0.00,VWS V14.01,2013-02-14 10:39:00,
2013-02-14 04:40:00,21.9,20.0,28.58,WNW,292,6.3,6.3,92,0.00,,---,0.00,VWS V14.01,2013-02-14 10:40:00,
2013-02-14 04:41:00,21.7,19.5,28.58,NW,315,4.9,4.9,91,0.00,,---,0.00,VWS V14.01,2013-02-14 10:41:00,
2013-02-14 04:42:00,21.7,19.5,28.58,WNW,292,3.6,5.6,91,0.00,,---,0.00,VWS V14.01,2013-02-14 10:42:00,
2013-02-14 04:43:00,21.7,19.5,28.58,NW,315,4.9,4.9,91,0.00,,---,0.00,VWS V14.01,2013-02-14 10:43:00,
2013-02-14 04:44:00,21.7,19.5,28.58,NW,315,4.9,4.9,91,0.00,,---,0.00,VWS V14.01,2013-02-14 10:44:00,
2013-02-14 04:45:00,21.6,19.3,28.58,WNW,292,3.6,4.9,91,0.00,,---,0.00,VWS V14.01,2013-02-14 10:45:00,
2013-02-14 04:46:00,21.4,19.2,28.61,NW,315,4.0,4.0,91,0.00,,---,0.00,VWS V14.01,2013-02-14 10:46:00,
2013-02-14 04:47:00,21.4,19.2,28.61,NW,315,4.0,4.0,91,0.00,,---,0.00,VWS V14.01,2013-02-14 10:47:00,
2013-02-14 04:48:00,21.4,19.2,28.61,WNW,292,2.9,4.0,91,0.00,,---,0.00,VWS V14.01,2013-02-14 10:48:00,
2013-02-14 04:49:00,21.2,18.7,28.61,NW,315,3.6,4.0,90,0.00,,---,0.00,VWS V14.01,2013-02-14 10:49:00,
2013-02-14 04:50:00,21.2,18.7,28.61,NW,315,4.0,4.0,90,0.00,,---,0.00,VWS V14.01,2013-02-14 10:50:00,
2013-02-14 04:51:00,21.0,18.5,28.61,NW,315,4.7,4.7,90,0.00,,---,0.00,VWS V14.01,2013-02-14 10:51:00,
2013-02-14 04:52:00,21.0,18.5,28.61,NNW,338,4.9,4.9,90,0.00,,---,0.00,VWS V14.01,2013-02-14 10:52:00,
2013-02-14 04:53:00,21.0,18.5,28.61,NW,315,4.0,4.9,90,0.00,,---,0.00,VWS V14.01,2013-02-14 10:53:00,
2013-02-14 04:54:00,20.8,18.1,28.61,NW,315,5.4,5.4,89,0.00,,---,0.00,VWS V14.01,2013-02-14 10:54:00,
2013-02-14 04:55:00,20.8,18.1,28.61,NW,315,2.9,5.4,89,0.00,,---,0.00,VWS V14.01,2013-02-14 10:55:00,
2013-02-14 04:56:00,20.5,17.8,28.61,NW,315,2.7,3.4,89,0.00,,---,0.00,VWS V14.01,2013-02-14 10:56:00,
2013-02-14 04:57:00,20.7,17.9,28.61,NW,315,3.4,4.3,89,0.00,,---,0.00,VWS V14.01,2013-02-14 10:57:00,
2013-02-14 04:58:00,20.5,17.8,28.61,NW,315,3.4,3.8,89,0.00,,---,0.00,VWS V14.01,2013-02-14 10:58:00,
2013-02-14 04:59:00,20.5,17.8,28.61,NW,315,2.7,3.4,89,0.00,,---,0.00,VWS V14.01,2013-02-14 10:59:00,
2013-02-14 05:00:00,20.3,17.3,28.61,WNW,292,3.1,4.0,88,0.00,,---,0.00,VWS V14.01,2013-02-14 11:00:00,
2013-02-14 05:01:00,20.3,17.3,28.61,NW,315,3.4,4.0,88,0.00,,---,0.00,VWS V14.01,2013-02-14 11:01:00,
2013-02-14 05:02:00,20.3,17.3,28.61,WNW,292,3.1,3.1,88,0.00,,---,0.00,VWS V14.01,2013-02-14 11:02:00,
2013-02-14 05:03:00,20.3,17.3,28.61,WSW,248,2.7,4.0,88,0.00,,---,0.00,VWS V14.01,2013-02-14 11:03:00,
2013-02-14 05:04:00,20.3,17.3,28.61,WSW,248,1.3,2.7,88,0.00,,---,0.00,VWS V14.01,2013-02-14 11:04:00,
2013-02-14 05:05:00,20.3,17.3,28.61,WNW,292,3.1,3.6,88,0.00,,---,0.00,VWS V14.01,2013-02-14 11:05:00,
2013-02-14 05:06:00,20.1,17.4,28.61,WNW,292,1.6,3.1,89,0.00,,---,0.00,VWS V14.01,2013-02-14 11:06:00,
2013-02-14 05:07:00,20.1,17.4,28.61,NW,315,3.1,4.0,89,0.00,,---,0.00,VWS V14.01,2013-02-14 11:07:00,
2013-02-14 05:08:00,20.1,17.4,28.61,NW,315,2.5,3.6,89,0.00,,---,0.00,VWS V14.01,2013-02-14 11:08:00,
2013-02-14 05:09:00,20.1,17.4,28.61,NNW,338,3.6,3.6,89,0.00,,---,0.00,VWS V14.01,2013-02-14 11:09:00,
2013-02-14 05:10:00,19.9,17.2,28.61,NW,315,3.6,3.6,89,0.00,,---,0.00,VWS V14.01,2013-02-14 11:10:00,
2013-02-14 05:11:00,19.9,17.0,28.61,NNW,338,3.4,3.4,88,0.00,,---,0.00,VWS V14.01,2013-02-14 11:11:00,
2013-02-14 05:12:00,19.9,17.0,28.61,WNW,292,2.7,3.1,88,0.00,,---,0.00,VWS V14.01,2013-02-14 11:12:00,
2013-02-14 05:13:00,19.9,17.0,28.61,WSW,248,0.0,3.4,88,0.00,,---,0.00,VWS V14.01,2013-02-14 11:13:00,
2013-02-14 05:14:00,19.9,17.0,28.61,North,0,1.1,1.1,88,0.00,,---,0.00,VWS V14.01,2013-02-14 11:14:00,
2013-02-14 05:15:00,19.8,16.8,28.61,NW,315,1.3,2.5,88,0.00,,---,0.00,VWS V14.01,2013-02-14 11:15:00,
2013-02-14 05:16:00,19.6,16.6,28.64,WNW,292,0.9,2.0,88,0.00,,---,0.00,VWS V14.01,2013-02-14 11:16:00,
2013-02-14 05:17:00,19.6,16.6,28.64,WNW,292,1.3,2.0,88,0.00,,---,0.00,VWS V14.01,2013-02-14 11:17:00,
2013-02-14 05:18:00,19.6,16.6,28.64,WSW,248,2.0,3.4,88,0.00,,---,0.00,VWS V14.01,2013-02-14 11:18:00,
2013-02-14 05:19:00,19.6,16.6,28.64,WNW,292,2.5,2.5,88,0.00,,---,0.00,VWS V14.01,2013-02-14 11:19:00,
2013-02-14 05:20:00,19.4,16.7,28.64,WNW,292,2.7,2.7,89,0.00,,---,0.00,VWS V14.01,2013-02-14 11:20:00,
2013-02-14 05:21:00,19.4,16.7,28.64,WNW,292,2.0,2.0,89,0.00,,---,0.00,VWS V14.01,2013-02-14 11:21:00,
2013-02-14 05:22:00,19.4,16.7,28.64,West,270,2.9,2.9,89,0.00,,---,0.00,VWS V14.01,2013-02-14 11:22:00,
2013-02-14 05:23:00,19.4,16.7,28.64,WNW,292,0.9,2.9,89,0.00,,---,0.00,VWS V14.01,2013-02-14 11:23:00,
2013-02-14 05:24:00,19.4,16.7,28.64,NW,315,1.6,2.2,89,0.00,,---,0.00,VWS V14.01,2013-02-14 11:24:00,
2013-02-14 05:25:00,19.4,16.7,28.64,WNW,292,2.0,2.0,89,0.00,,---,0.00,VWS V14.01,2013-02-14 11:25:00,
2013-02-14 05:26:00,19.2,16.5,28.64,NW,315,0.0,0.0,89,0.00,,---,0.00,VWS V14.01,2013-02-14 11:26:00,
2013-02-14 05:27:00,19.2,16.5,28.64,NW,315,0.0,2.5,89,0.00,,---,0.00,VWS V14.01,2013-02-14 11:27:00,
2013-02-14 05:28:00,19.2,16.5,28.64,NW,315,0.0,0.0,89,0.00,,---,0.00,VWS V14.01,2013-02-14 11:28:00,
2013-02-14 05:29:00,19.2,16.5,28.64,NW,315,0.0,0.0,89,0.00,,---,0.00,VWS V14.01,2013-02-14 11:29:00,
2013-02-14 05:30:00,19.2,16.5,28.64,NW,315,2.2,2.5,89,0.00,,---,0.00,VWS V14.01,2013-02-14 11:30:00,
2013-02-14 05:31:00,19.2,16.5,28.61,WNW,292,1.6,1.6,89,0.00,,---,0.00,VWS V14.01,2013-02-14 11:31:00,
2013-02-14 05:32:00,19.2,16.5,28.61,WNW,292,1.1,2.0,89,0.00,,---,0.00,VWS V14.01,2013-02-14 11:32:00,
2013-02-14 05:33:00,19.2,16.5,28.61,WNW,292,0.0,1.1,89,0.00,,---,0.00,VWS V14.01,2013-02-14 11:33:00,
2013-02-14 05:34:00,19.2,16.5,28.61,WNW,292,0.0,1.6,89,0.00,,---,0.00,VWS V14.01,2013-02-14 11:34:00,
2013-02-14 05:35:00,19.0,16.3,28.61,NW,315,1.3,1.3,89,0.00,,---,0.00,VWS V14.01,2013-02-14 11:35:00,
2013-02-14 05:36:00,19.0,16.3,28.61,NNW,338,1.6,2.5,89,0.00,,---,0.00,VWS V14.01,2013-02-14 11:36:00,
2013-02-14 05:37:00,19.0,16.3,28.61,NNW,338,0.0,0.0,89,0.00,,---,0.00,VWS V14.01,2013-02-14 11:37:00,
2013-02-14 05:38:00,19.0,16.3,28.61,WNW,292,2.5,2.5,89,0.00,,---,0.00,VWS V14.01,2013-02-14 11:38:00,
2013-02-14 05:39:00,19.0,16.3,28.61,WNW,292,1.6,2.5,89,0.00,,---,0.00,VWS V14.01,2013-02-14 11:39:00,
2013-02-14 05:40:00,19.0,16.3,28.61,NNW,338,2.9,3.1,89,0.00,,---,0.00,VWS V14.01,2013-02-14 11:40:00,
2013-02-14 05:41:00,19.0,16.3,28.61,NW,315,1.3,1.6,89,0.00,,---,0.00,VWS V14.01,2013-02-14 11:41:00,
2013-02-14 05:42:00,19.0,16.3,28.61,NW,315,2.2,2.5,89,0.00,,---,0.00,VWS V14.01,2013-02-14 11:42:00,
2013-02-14 05:43:00,19.0,16.3,28.61,NW,315,1.1,2.2,89,0.00,,---,0.00,VWS V14.01,2013-02-14 11:43:00,
2013-02-14 05:44:00,19.0,16.3,28.61,NNW,338,0.0,1.6,89,0.00,,---,0.00,VWS V14.01,2013-02-14 11:44:00,
2013-02-14 05:45:00,19.0,16.3,28.61,NNW,338,2.0,2.0,89,0.00,,---,0.00,VWS V14.01,2013-02-14 11:45:00,
2013-02-14 05:46:00,19.0,16.3,28.58,WNW,292,2.0,2.5,89,0.00,,---,0.00,VWS V14.01,2013-02-14 11:46:00,
2013-02-14 05:47:00,19.0,16.3,28.58,WNW,292,2.7,2.7,89,0.00,,---,0.00,VWS V14.01,2013-02-14 11:47:00,
2013-02-14 05:48:00,19.0,16.3,28.58,WNW,292,1.6,2.7,89,0.00,,---,0.00,VWS V14.01,2013-02-14 11:48:00,
2013-02-14 05:49:00,19.0,16.3,28.58,WNW,292,1.6,2.7,89,0.00,,---,0.00,VWS V14.01,2013-02-14 11:49:00,
2013-02-14 05:50:00,19.0,16.3,28.58,NW,315,0.0,1.6,89,0.00,,---,0.00,VWS V14.01,2013-02-14 11:50:00,
2013-02-14 05:51:00,19.2,16.5,28.58,WNW,292,0.0,0.0,89,0.00,,---,0.00,VWS V14.01,2013-02-14 11:51:00,
2013-02-14 05:52:00,19.0,16.3,28.58,NW,315,3.4,3.4,89,0.00,,---,0.00,VWS V14.01,2013-02-14 11:52:00,
2013-02-14 05:53:00,19.2,16.5,28.58,NNW,338,0.0,3.4,89,0.00,,---,0.00,VWS V14.01,2013-02-14 11:53:00,
2013-02-14 05:54:00,19.2,16.5,28.58,WNW,292,0.0,0.0,89,0.00,,---,0.00,VWS V14.01,2013-02-14 11:54:00,
2013-02-14 05:55:00,19.2,16.5,28.58,WNW,292,0.0,0.0,89,0.00,,---,0.00,VWS V14.01,2013-02-14 11:55:00,
2013-02-14 05:56:00,19.2,16.5,28.58,NW,315,0.0,0.0,89,0.00,,---,0.00,VWS V14.01,2013-02-14 11:56:00,
2013-02-14 05:57:00,19.2,16.5,28.58,NW,315,0.0,0.0,89,0.00,,---,0.00,VWS V14.01,2013-02-14 11:57:00,
2013-02-14 05:58:00,19.2,16.5,28.58,NW,315,0.0,0.0,89,0.00,,---,0.00,VWS V14.01,2013-02-14 11:58:00,
2013-02-14 05:59:00,19.2,16.5,28.58,WNW,292,0.0,0.0,89,0.00,,---,0.00,VWS V14.01,2013-02-14 11:59:00,
2013-02-14 06:00:00,19.2,16.5,28.58,WNW,292,0.0,0.0,89,0.00,,---,0.00,VWS V14.01,2013-02-14 12:00:00,
2013-02-14 06:01:00,19.2,16.5,28.58,NNW,338,1.3,1.6,89,0.00,,---,0.00,VWS V14.01,2013-02-14 12:01:00,
2013-02-14 06:02:00,19.2,16.5,28.58,NW,315,1.6,2.5,89,0.00,,---,0.00,VWS V14.01,2013-02-14 12:02:00,
2013-02-14 06:03:00,19.2,16.5,28.58,NW,315,0.0,1.6,89,0.00,,---,0.00,VWS V14.01,2013-02-14 12:03:00,
2013-02-14 06:04:00,19.2,16.5,28.58,NNW,338,1.1,1.6,89,0.00,,---,0.00,VWS V14.01,2013-02-14 12:04:00,
2013-02-14 06:05:00,19.2,16.5,28.58,NNW,338,0.0,1.1,89,0.00,,---,0.00,VWS V14.01,2013-02-14 12:05:00,
2013-02-14 06:06:00,19.2,16.5,28.58,NW,315,2.5,2.5,89,0.00,,---,0.00,VWS V14.01,2013-02-14 12:06:00,
2013-02-14 06:07:00,19.2,16.5,28.58,NNW,338,0.0,0.0,89,0.00,,---,0.00,VWS V14.01,2013-02-14 12:07:00,
2013-02-14 06:08:00,19.2,16.5,28.58,NW,315,2.2,2.2,89,0.00,,---,0.00,VWS V14.01,2013-02-14 12:08:00,
2013-02-14 06:09:00,19.2,16.5,28.58,NNW,338,1.6,2.5,89,0.00,,---,0.00,VWS V14.01,2013-02-14 12:09:00,
2013-02-14 06:10:00,19.2,16.5,28.58,NNW,338,0.0,1.6,89,0.00,,---,0.00,VWS V14.01,2013-02-14 12:10:00,
2013-02-14 06:11:00,19.2,16.5,28.58,NNW,338,0.0,0.0,89,0.00,,---,0.00,VWS V14.01,2013-02-14 12:11:00,
2013-02-14 06:12:00,19.2,16.5,28.58,NNW,338,0.0,0.0,89,0.00,,---,0.00,VWS V14.01,2013-02-14 12:12:00,
2013-02-14 06:13:00,19.2,16.5,28.58,NNW,338,0.0,0.0,89,0.00,,---,0.00,VWS V14.01,2013-02-14 12:13:00,
2013-02-14 06:14:00,19.2,16.5,28.58,NNW,338,2.0,2.0,89,0.00,,---,0.00,VWS V14.01,2013-02-14 12:14:00,
2013-02-14 06:15:00,19.2,16.5,28.58,NNW,338,1.6,2.0,89,0.00,,---,0.00,VWS V14.01,2013-02-14 12:15:00,
2013-02-14 06:16:00,18.9,16.2,28.58,WNW,292,2.0,2.9,89,0.00,,---,0.00,VWS V14.01,2013-02-14 12:16:00,
2013-02-14 06:17:00,19.0,16.3,28.58,NNW,338,2.7,2.7,89,0.00,,---,0.00,VWS V14.01,2013-02-14 12:17:00,
2013-02-14 06:18:00,18.9,16.2,28.58,NNW,338,2.9,2.9,89,0.00,,---,0.00,VWS V14.01,2013-02-14 12:18:00,
2013-02-14 06:19:00,18.9,16.2,28.58,NNW,338,2.9,2.9,89,0.00,,---,0.00,VWS V14.01,2013-02-14 12:19:00,
2013-02-14 06:20:00,18.9,15.9,28.58,NNW,338,2.0,2.9,88,0.00,,---,0.00,VWS V14.01,2013-02-14 12:20:00,
2013-02-14 06:21:00,18.9,15.9,28.58,NNW,338,2.2,2.2,88,0.00,,---,0.00,VWS V14.01,2013-02-14 12:21:00,
2013-02-14 06:22:00,18.9,15.9,28.58,NNW,338,1.6,2.0,88,0.00,,---,0.00,VWS V14.01,2013-02-14 12:22:00,
2013-02-14 06:23:00,18.9,15.9,28.58,NNW,338,2.2,2.2,88,0.00,,---,0.00,VWS V14.01,2013-02-14 12:23:00,
2013-02-14 06:24:00,18.9,15.9,28.58,NNW,338,2.0,2.2,88,0.00,,---,0.00,VWS V14.01,2013-02-14 12:24:00,
2013-02-14 06:25:00,18.9,15.9,28.58,NNW,338,2.0,2.9,88,0.00,,---,0.00,VWS V14.01,2013-02-14 12:25:00,
2013-02-14 06:26:00,18.9,16.2,28.58,NNW,338,2.2,2.5,89,0.00,,---,0.00,VWS V14.01,2013-02-14 12:26:00,
2013-02-14 06:27:00,18.9,16.2,28.58,NNW,338,2.5,2.9,89,0.00,,---,0.00,VWS V14.01,2013-02-14 12:27:00,
2013-02-14 06:28:00,18.9,16.2,28.58,NNW,338,2.2,2.5,89,0.00,,---,0.00,VWS V14.01,2013-02-14 12:28:00,
2013-02-14 06:29:00,18.9,16.2,28.58,NNW,338,2.0,2.2,89,0.00,,---,0.00,VWS V14.01,2013-02-14 12:29:00,
2013-02-14 06:30:00,18.9,16.2,28.58,NNW,338,2.5,2.7,89,0.00,,---,0.00,VWS V14.01,2013-02-14 12:30:00,
2013-02-14 06:31:00,18.7,16.0,28.58,WNW,292,2.5,2.5,89,0.00,,---,0.00,VWS V14.01,2013-02-14 12:31:00,
2013-02-14 06:32:00,18.9,16.2,28.58,NW,315,1.6,2.9,89,0.00,,---,0.00,VWS V14.01,2013-02-14 12:32:00,
2013-02-14 06:33:00,18.9,16.2,28.58,NNW,338,1.1,2.7,89,0.00,,---,0.00,VWS V14.01,2013-02-14 12:33:00,
2013-02-14 06:34:00,18.7,16.0,28.58,WNW,292,2.5,2.5,89,0.00,,---,0.00,VWS V14.01,2013-02-14 12:34:00,
2013-02-14 06:35:00,18.7,16.0,28.58,WNW,292,2.7,2.7,89,0.00,,---,0.00,VWS V14.01,2013-02-14 12:35:00,
2013-02-14 06:36:00,18.7,15.7,28.58,NNW,338,3.1,3.1,88,0.00,,---,0.00,VWS V14.01,2013-02-14 12:36:00,
2013-02-14 06:37:00,18.7,15.7,28.58,WNW,292,2.7,3.6,88,0.00,,---,0.00,VWS V14.01,2013-02-14 12:37:00,
2013-02-14 06:38:00,18.7,15.7,28.58,WNW,292,2.7,2.7,88,0.00,,---,0.00,VWS V14.01,2013-02-14 12:38:00,
2013-02-14 06:39:00,18.7,16.0,28.58,NW,315,2.7,3.1,89,0.00,,---,0.00,VWS V14.01,2013-02-14 12:39:00,
2013-02-14 06:40:00,18.7,16.0,28.58,NW,315,2.7,3.1,89,0.00,,---,0.00,VWS V14.01,2013-02-14 12:40:00,
2013-02-14 06:41:00,18.7,16.0,28.58,WNW,292,2.2,2.5,89,0.00,,---,0.00,VWS V14.01,2013-02-14 12:41:00,
2013-02-14 06:42:00,18.7,16.0,28.58,NW,315,3.1,3.1,89,0.00,,---,0.00,VWS V14.01,2013-02-14 12:42:00,
2013-02-14 06:43:00,18.7,16.0,28.58,NW,315,2.5,3.1,89,0.00,,---,0.00,VWS V14.01,2013-02-14 12:43:00,
2013-02-14 06:44:00,18.7,16.0,28.58,WNW,292,2.0,2.5,89,0.00,,---,0.00,VWS V14.01,2013-02-14 12:44:00,
2013-02-14 06:45:00,18.7,16.0,28.58,WNW,292,2.9,2.9,89,0.00,,---,0.00,VWS V14.01,2013-02-14 12:45:00,
2013-02-14 06:46:00,18.9,16.2,28.61,NW,315,2.2,2.2,89,0.00,,---,0.00,VWS V14.01,2013-02-14 12:46:00,
2013-02-14 06:47:00,18.9,16.2,28.61,NW,315,1.6,2.7,89,0.00,,---,0.00,VWS V14.01,2013-02-14 12:47:00,
2013-02-14 06:48:00,18.9,16.2,28.61,NW,315,2.2,2.7,89,0.00,,---,0.00,VWS V14.01,2013-02-14 12:48:00,
2013-02-14 06:49:00,18.9,16.2,28.61,NW,315,2.0,2.2,89,0.00,,---,0.00,VWS V14.01,2013-02-14 12:49:00,
2013-02-14 06:50:00,18.9,16.2,28.61,NNW,338,1.1,2.0,89,0.00,,---,0.00,VWS V14.01,2013-02-14 12:50:00,
2013-02-14 06:51:00,18.9,16.2,28.61,NNW,338,0.0,0.9,89,0.00,,---,0.00,VWS V14.01,2013-02-14 12:51:00,
2013-02-14 06:52:00,18.9,16.2,28.61,NNW,338,2.0,2.7,89,0.00,,---,0.00,VWS V14.01,2013-02-14 12:52:00,
2013-02-14 06:53:00,18.9,16.2,28.61,NNW,338,0.0,2.0,89,0.00,,---,0.00,VWS V14.01,2013-02-14 12:53:00,
2013-02-14 06:54:00,18.9,16.2,28.61,NNW,338,0.0,0.9,89,0.00,,---,0.00,VWS V14.01,2013-02-14 12:54:00,
2013-02-14 06:55:00,18.9,16.2,28.61,NNW,338,0.0,0.0,89,0.00,,---,0.00,VWS V14.01,2013-02-14 12:55:00,
2013-02-14 06:56:00,18.9,16.2,28.61,NNW,338,0.0,0.0,89,0.00,,---,0.00,VWS V14.01,2013-02-14 12:56:00,
2013-02-14 06:57:00,18.9,16.2,28.61,NNW,338,0.0,0.0,89,0.00,,---,0.00,VWS V14.01,2013-02-14 12:57:00,
2013-02-14 06:58:00,18.9,16.2,28.61,NNW,338,0.0,0.0,89,0.00,,---,0.00,VWS V14.01,2013-02-14 12:58:00,
2013-02-14 06:59:00,18.9,16.2,28.61,NNW,338,0.0,0.0,89,0.00,,---,0.00,VWS V14.01,2013-02-14 12:59:00,
2013-02-14 07:00:00,18.9,16.2,28.61,NNW,338,0.0,0.0,89,0.00,,---,0.00,VWS V14.01,2013-02-14 13:00:00,
2013-02-14 07:01:00,18.9,16.2,28.61,NNW,338,0.0,0.0,89,0.00,,---,0.00,VWS V14.01,2013-02-14 13:01:00,
2013-02-14 07:02:00,18.9,16.2,28.61,NNW,338,0.0,0.0,89,0.00,,---,0.00,VWS V14.01,2013-02-14 13:02:00,
2013-02-14 07:03:00,18.9,16.2,28.61,NNW,338,0.0,0.0,89,0.00,,---,0.00,VWS V14.01,2013-02-14 13:03:00,
2013-02-14 07:05:00,18.9,16.2,28.61,NNW,338,0.0,0.0,89,0.00,,---,0.00,VWS V14.01,2013-02-14 13:05:00,
2013-02-14 07:06:00,18.9,16.2,28.61,NNW,338,2.5,2.7,89,0.00,,---,0.00,VWS V14.01,2013-02-14 13:06:00,
2013-02-14 07:07:00,18.9,16.2,28.61,NNW,338,0.0,0.0,89,0.00,,---,0.00,VWS V14.01,2013-02-14 13:07:00,
2013-02-14 07:08:00,18.9,16.2,28.61,NW,315,2.7,2.7,89,0.00,,---,0.00,VWS V14.01,2013-02-14 13:08:00,
2013-02-14 07:09:00,18.9,16.2,28.61,NW,315,2.7,2.7,89,0.00,,---,0.00,VWS V14.01,2013-02-14 13:09:00,
2013-02-14 07:10:00,18.9,16.2,28.61,NW,315,2.7,2.7,89,0.00,,---,0.00,VWS V14.01,2013-02-14 13:10:00,
2013-02-14 07:11:00,19.0,16.3,28.61,WNW,292,2.5,2.5,89,0.00,,---,0.00,VWS V14.01,2013-02-14 13:11:00,
2013-02-14 07:12:00,19.0,16.3,28.61,WNW,292,2.2,2.2,89,0.00,,---,0.00,VWS V14.01,2013-02-14 13:12:00,
2013-02-14 07:13:00,19.0,16.3,28.61,NW,315,2.0,2.2,89,0.00,,---,0.00,VWS V14.01,2013-02-14 13:13:00,
2013-02-14 07:14:00,19.0,16.3,28.61,NW,315,2.5,2.5,89,0.00,,---,0.00,VWS V14.01,2013-02-14 13:14:00,
2013-02-14 07:15:00,19.0,16.3,28.61,NW,315,3.1,3.1,89,0.00,,---,0.00,VWS V14.01,2013-02-14 13:15:00,
2013-02-14 07:16:00,19.2,16.5,28.64,WNW,292,2.0,3.1,89,0.00,,---,0.00,VWS V14.01,2013-02-14 13:16:00,
2013-02-14 07:17:00,19.2,16.5,28.64,NW,315,3.1,3.4,89,0.00,,---,0.00,VWS V14.01,2013-02-14 13:17:00,
2013-02-14 07:18:00,19.2,16.5,28.64,NW,315,3.1,3.1,89,0.00,,---,0.00,VWS V14.01,2013-02-14 13:18:00,
2013-02-14 07:19:00,19.2,16.5,28.64,NW,315,1.6,3.1,89,0.00,,---,0.00,VWS V14.01,2013-02-14 13:19:00,
2013-02-14 07:20:00,19.2,16.3,28.64,WNW,292,2.7,2.7,88,0.00,,---,0.00,VWS V14.01,2013-02-14 13:20:00,
2013-02-14 07:21:00,19.2,16.3,28.64,WNW,292,2.7,2.7,88,0.00,,---,0.00,VWS V14.01,2013-02-14 13:21:00,
2013-02-14 07:22:00,19.2,16.3,28.64,WNW,292,3.4,3.4,88,0.00,,---,0.00,VWS V14.01,2013-02-14 13:22:00,
2013-02-14 07:23:00,19.2,16.3,28.64,WNW,292,2.7,3.4,88,0.00,,---,0.00,VWS V14.01,2013-02-14 13:23:00,
2013-02-14 07:24:00,19.2,16.3,28.64,WNW,292,2.2,2.7,88,0.00,,---,0.00,VWS V14.01,2013-02-14 13:24:00,
2013-02-14 07:25:00,19.2,16.3,28.64,West,270,2.0,2.2,88,0.00,,---,0.00,VWS V14.01,2013-02-14 13:25:00,
2013-02-14 07:26:00,19.0,16.1,28.64,WNW,292,2.5,2.7,88,0.00,,---,0.00,VWS V14.01,2013-02-14 13:26:00,
2013-02-14 07:27:00,19.0,16.1,28.64,WNW,292,1.6,2.2,88,0.00,,---,0.00,VWS V14.01,2013-02-14 13:27:00,
2013-02-14 07:28:00,19.0,16.1,28.64,WNW,292,1.6,2.5,88,0.00,,---,0.00,VWS V14.01,2013-02-14 13:28:00,
2013-02-14 07:29:00,19.0,16.1,28.64,WNW,292,2.5,2.7,88,0.00,,---,0.00,VWS V14.01,2013-02-14 13:29:00,
2013-02-14 07:30:00,19.0,16.1,28.64,WNW,292,2.7,2.7,88,0.00,,---,0.00,VWS V14.01,2013-02-14 13:30:00,
2013-02-14 07:31:00,19.0,16.1,28.64,West,270,1.6,2.7,88,0.00,,---,0.00,VWS V14.01,2013-02-14 13:31:00,
2013-02-14 07:32:00,18.9,15.9,28.64,West,270,2.0,2.7,88,0.00,,---,0.00,VWS V14.01,2013-02-14 13:32:00,
2013-02-14 07:33:00,19.0,16.1,28.64,West,270,2.7,2.7,88,0.00,,---,0.00,VWS V14.01,2013-02-14 13:33:00,
2013-02-14 07:34:00,19.0,16.1,28.64,West,270,1.1,2.7,88,0.00,,---,0.00,VWS V14.01,2013-02-14 13:34:00,
2013-02-14 07:35:00,19.0,15.8,28.64,West,270,2.0,2.0,87,0.00,,---,0.00,VWS V14.01,2013-02-14 13:35:00,
2013-02-14 07:36:00,19.0,15.8,28.64,West,270,1.3,2.0,87,0.00,,---,0.00,VWS V14.01,2013-02-14 13:36:00,
2013-02-14 07:37:00,19.0,15.8,28.64,West,270,1.3,2.2,87,0.00,,---,0.00,VWS V14.01,2013-02-14 13:37:00,
2013-02-14 07:38:00,19.0,15.8,28.64,West,270,0.0,1.6,87,0.00,,---,0.00,VWS V14.01,2013-02-14 13:38:00,
2013-02-14 07:39:00,19.0,15.8,28.64,WNW,292,0.0,2.0,87,0.00,,---,0.00,VWS V14.01,2013-02-14 13:39:00,
2013-02-14 07:40:00,19.0,15.8,28.64,WNW,292,0.0,0.0,87,0.00,,---,0.00,VWS V14.01,2013-02-14 13:40:00,
2013-02-14 07:41:00,19.2,16.0,28.64,WNW,292,0.0,0.0,87,0.00,,---,0.00,VWS V14.01,2013-02-14 13:41:00,
2013-02-14 07:42:00,19.0,15.8,28.64,WNW,292,0.0,0.0,87,0.00,,---,0.00,VWS V14.01,2013-02-14 13:42:00,
2013-02-14 07:43:00,19.2,16.0,28.64,WNW,292,0.0,0.0,87,0.00,,---,0.00,VWS V14.01,2013-02-14 13:43:00,
2013-02-14 07:44:00,19.2,16.0,28.64,WNW,292,0.0,0.0,87,0.00,,---,0.00,VWS V14.01,2013-02-14 13:44:00,
2013-02-14 07:45:00,19.2,16.0,28.64,WNW,292,0.0,1.3,87,0.00,,---,0.00,VWS V14.01,2013-02-14 13:45:00,
2013-02-14 07:46:00,19.2,16.0,28.64,NW,315,0.0,1.6,87,0.00,,---,0.00,VWS V14.01,2013-02-14 13:46:00,
2013-02-14 07:47:00,19.2,16.0,28.64,WNW,292,0.0,0.0,87,0.00,,---,0.00,VWS V14.01,2013-02-14 13:47:00,
2013-02-14 07:48:00,19.2,16.0,28.64,WNW,292,1.6,1.6,87,0.00,,---,0.00,VWS V14.01,2013-02-14 13:48:00,
2013-02-14 07:49:00,19.4,16.2,28.64,NNW,338,2.2,2.2,87,0.00,,---,0.00,VWS V14.01,2013-02-14 13:49:00,
2013-02-14 07:50:00,19.4,16.2,28.64,NW,315,0.0,2.2,87,0.00,,---,0.00,VWS V14.01,2013-02-14 13:50:00,
2013-02-14 07:51:00,19.6,16.4,28.64,NW,315,2.5,2.5,87,0.00,,---,0.00,VWS V14.01,2013-02-14 13:51:00,
2013-02-14 07:52:00,19.4,16.2,28.64,NNW,338,1.3,2.2,87,0.00,,---,0.00,VWS V14.01,2013-02-14 13:52:00,
2013-02-14 07:53:00,19.6,16.4,28.64,NW,315,1.6,2.5,87,0.00,,---,0.00,VWS V14.01,2013-02-14 13:53:00,
2013-02-14 07:54:00,19.6,16.4,28.64,WNW,292,2.0,2.0,87,0.00,,---,0.00,VWS V14.01,2013-02-14 13:54:00,
2013-02-14 07:55:00,19.6,16.4,28.64,WNW,292,2.0,2.0,87,0.00,,---,0.00,VWS V14.01,2013-02-14 13:55:00,
2013-02-14 07:56:00,19.8,16.3,28.64,NW,315,2.0,2.5,86,0.00,,---,0.00,VWS V14.01,2013-02-14 13:56:00,
2013-02-14 07:57:00,19.6,16.1,28.64,NW,315,2.0,2.7,86,0.00,,---,0.00,VWS V14.01,2013-02-14 13:57:00,
2013-02-14 07:58:00,19.8,16.3,28.64,NW,315,1.3,3.1,86,0.00,,---,0.00,VWS V14.01,2013-02-14 13:58:00,
2013-02-14 07:59:00,19.8,16.3,28.64,NW,315,2.0,2.5,86,0.00,,---,0.00,VWS V14.01,2013-02-14 13:59:00,
2013-02-14 08:00:00,19.8,16.0,28.64,NW,315,2.7,2.7,85,0.00,,---,0.00,VWS V14.01,2013-02-14 14:00:00,
2013-02-14 08:01:00,19.8,16.0,28.64,NNW,338,0.0,0.0,85,0.00,,---,0.00,VWS V14.01,2013-02-14 14:01:00,
2013-02-14 08:02:00,19.8,16.0,28.64,NNW,338,0.0,1.1,85,0.00,,---,0.00,VWS V14.01,2013-02-14 14:02:00,
2013-02-14 08:03:00,19.8,16.0,28.64,NNW,338,0.0,0.0,85,0.00,,---,0.00,VWS V14.01,2013-02-14 14:03:00,
2013-02-14 08:04:00,19.9,16.2,28.64,NNW,338,1.6,1.6,85,0.00,,---,0.00,VWS V14.01,2013-02-14 14:04:00,
2013-02-14 08:05:00,19.9,16.2,28.64,NNW,338,0.0,1.6,85,0.00,,---,0.00,VWS V14.01,2013-02-14 14:05:00,
2013-02-14 08:06:00,19.9,15.6,28.64,NNW,338,0.0,1.1,83,0.00,,---,0.00,VWS V14.01,2013-02-14 14:06:00,
2013-02-14 08:07:00,19.9,15.9,28.64,NNW,338,1.1,1.6,84,0.00,,---,0.00,VWS V14.01,2013-02-14 14:07:00,
2013-02-14 08:09:00,19.9,15.6,28.64,NNW,338,0.0,1.1,83,0.00,,---,0.00,VWS V14.01,2013-02-14 14:09:00,
2013-02-14 08:10:00,20.1,15.8,28.64,NNW,338,0.0,0.0,83,0.00,,---,0.00,VWS V14.01,2013-02-14 14:10:00,
2013-02-14 08:11:00,20.1,15.2,28.64,NNW,338,2.0,2.0,81,0.00,,---,0.00,VWS V14.01,2013-02-14 14:11:00,
2013-02-14 08:12:00,20.1,15.5,28.64,NNW,338,1.6,2.5,82,0.00,,---,0.00,VWS V14.01,2013-02-14 14:12:00,
2013-02-14 08:13:00,20.1,15.2,28.64,NNW,338,1.6,2.0,81,0.00,,---,0.00,VWS V14.01,2013-02-14 14:13:00,
2013-02-14 08:14:00,20.1,15.2,28.64,NNW,338,1.6,2.0,81,0.00,,---,0.00,VWS V14.01,2013-02-14 14:14:00,
2013-02-14 08:15:00,20.1,14.9,28.64,NNW,338,1.6,1.6,80,0.00,,---,0.00,VWS V14.01,2013-02-14 14:15:00,
2013-02-14 08:16:00,20.1,14.7,28.67,NNW,338,1.3,1.6,79,0.00,,---,0.00,VWS V14.01,2013-02-14 14:16:00,
2013-02-14 08:17:00,20.1,14.7,28.67,NNW,338,1.3,2.0,79,0.00,,---,0.00,VWS V14.01,2013-02-14 14:17:00,
2013-02-14 08:18:00,20.1,14.7,28.67,NNW,338,1.6,1.6,79,0.00,,---,0.00,VWS V14.01,2013-02-14 14:18:00,
2013-02-14 08:19:00,20.1,14.7,28.67,NNW,338,1.3,1.6,79,0.00,,---,0.00,VWS V14.01,2013-02-14 14:19:00,
2013-02-14 08:20:00,20.1,14.7,28.67,NW,315,1.6,2.5,79,0.00,,---,0.00,VWS V14.01,2013-02-14 14:20:00,
2013-02-14 08:21:00,20.3,15.1,28.67,NNW,338,2.5,2.5,80,0.00,,---,0.00,VWS V14.01,2013-02-14 14:21:00,
2013-02-14 08:22:00,20.3,14.8,28.67,NNW,338,1.1,2.2,79,0.00,,---,0.00,VWS V14.01,2013-02-14 14:22:00,
2013-02-14 08:23:00,20.3,14.8,28.67,NNW,338,1.1,1.1,79,0.00,,---,0.00,VWS V14.01,2013-02-14 14:23:00,
2013-02-14 08:24:00,20.3,15.1,28.67,NNW,338,2.5,2.5,80,0.00,,---,0.00,VWS V14.01,2013-02-14 14:24:00,
2013-02-14 08:25:00,20.5,15.3,28.67,NNW,338,2.9,2.9,80,0.00,,---,0.00,VWS V14.01,2013-02-14 14:25:00,
2013-02-14 08:26:00,20.7,15.5,28.67,NNW,338,0.0,0.0,80,0.00,,---,0.00,VWS V14.01,2013-02-14 14:26:00,
2013-02-14 08:27:00,20.5,15.3,28.67,NNW,338,2.5,2.5,80,0.00,,---,0.00,VWS V14.01,2013-02-14 14:27:00,
2013-02-14 08:28:00,20.5,15.3,28.67,NNW,338,0.0,2.5,80,0.00,,---,0.00,VWS V14.01,2013-02-14 14:28:00,
2013-02-14 08:29:00,20.7,15.5,28.67,NNW,338,1.3,1.3,80,0.00,,---,0.00,VWS V14.01,2013-02-14 14:29:00,
2013-02-14 08:30:00,20.7,15.5,28.67,NW,315,0.0,1.3,80,0.00,,---,0.00,VWS V14.01,2013-02-14 14:30:00,
2013-02-14 08:31:00,20.7,15.5,28.67,NNW,338,1.1,2.0,80,0.00,,---,0.00,VWS V14.01,2013-02-14 14:31:00,
2013-02-14 08:32:00,20.7,15.5,28.67,NW,315,0.9,2.2,80,0.00,,---,0.00,VWS V14.01,2013-02-14 14:32:00,
2013-02-14 08:33:00,20.7,15.5,28.67,NNW,338,0.9,2.0,80,0.00,,---,0.00,VWS V14.01,2013-02-14 14:33:00,
2013-02-14 08:34:00,20.8,15.6,28.67,NNW,338,0.0,0.9,80,0.00,,---,0.00,VWS V14.01,2013-02-14 14:34:00,
2013-02-14 08:35:00,20.8,15.6,28.67,North,0,0.0,0.0,80,0.00,,---,0.00,VWS V14.01,2013-02-14 14:35:00,
2013-02-14 08:36:00,21.0,15.5,28.67,WNW,292,1.6,2.0,79,0.00,,---,0.00,VWS V14.01,2013-02-14 14:36:00,
2013-02-14 08:37:00,20.8,15.6,28.67,NNW,338,1.6,1.6,80,0.00,,---,0.00,VWS V14.01,2013-02-14 14:37:00,
2013-02-14 08:38:00,20.8,15.4,28.67,NNW,338,2.0,2.0,79,0.00,,---,0.00,VWS V14.01,2013-02-14 14:38:00,
2013-02-14 08:39:00,21.0,15.5,28.67,NNW,338,2.2,2.2,79,0.00,,---,0.00,VWS V14.01,2013-02-14 14:39:00,
2013-02-14 08:40:00,21.2,15.7,28.67,NNW,338,1.6,2.7,79,0.00,,---,0.00,VWS V14.01,2013-02-14 14:40:00,
2013-02-14 08:41:00,21.4,15.6,28.67,NW,315,2.5,3.8,78,0.00,,---,0.00,VWS V14.01,2013-02-14 14:41:00,
2013-02-14 08:42:00,21.2,15.7,28.67,NNW,338,2.5,2.5,79,0.00,,---,0.00,VWS V14.01,2013-02-14 14:42:00,
2013-02-14 08:43:00,21.2,15.7,28.67,North,0,3.8,3.8,79,0.00,,---,0.00,VWS V14.01,2013-02-14 14:43:00,
2013-02-14 08:44:00,21.4,15.6,28.67,NNW,338,2.2,3.8,78,0.00,,---,0.00,VWS V14.01,2013-02-14 14:44:00,
2013-02-14 08:45:00,21.4,15.6,28.67,NNW,338,2.0,2.5,78,0.00,,---,0.00,VWS V14.01,2013-02-14 14:45:00,
2013-02-14 08:46:00,21.6,15.5,28.67,NNW,338,1.3,2.0,77,0.00,,---,0.00,VWS V14.01,2013-02-14 14:46:00,
2013-02-14 08:47:00,21.4,15.3,28.67,NNW,338,2.0,2.7,77,0.00,,---,0.00,VWS V14.01,2013-02-14 14:47:00,
2013-02-14 08:48:00,21.6,15.5,28.67,NNW,338,1.6,2.5,77,0.00,,---,0.00,VWS V14.01,2013-02-14 14:48:00,
2013-02-14 08:49:00,21.6,15.5,28.67,NNW,338,1.3,2.0,77,0.00,,---,0.00,VWS V14.01,2013-02-14 14:49:00,
2013-02-14 08:50:00,21.6,15.5,28.67,NNW,338,2.0,2.9,77,0.00,,---,0.00,VWS V14.01,2013-02-14 14:50:00,
2013-02-14 08:51:00,21.6,15.2,28.67,NNW,338,2.5,3.4,76,0.00,,---,0.00,VWS V14.01,2013-02-14 14:51:00,
2013-02-14 08:52:00,21.6,15.2,28.67,NW,315,1.6,2.9,76,0.00,,---,0.00,VWS V14.01,2013-02-14 14:52:00,
2013-02-14 08:53:00,21.6,15.2,28.67,NNW,338,3.4,3.4,76,0.00,,---,0.00,VWS V14.01,2013-02-14 14:53:00,
2013-02-14 08:54:00,21.6,15.2,28.67,NNW,338,2.2,3.4,76,0.00,,---,0.00,VWS V14.01,2013-02-14 14:54:00,
2013-02-14 08:55:00,21.6,14.9,28.67,NNW,338,1.1,2.7,75,0.00,,---,0.00,VWS V14.01,2013-02-14 14:55:00,
2013-02-14 08:56:00,21.6,14.9,28.67,NNW,338,2.7,2.7,75,0.00,,---,0.00,VWS V14.01,2013-02-14 14:56:00,
2013-02-14 08:57:00,21.6,14.9,28.67,North,0,2.5,3.1,75,0.00,,---,0.00,VWS V14.01,2013-02-14 14:57:00,
2013-02-14 08:58:00,21.6,14.9,28.67,NNW,338,2.5,2.5,75,0.00,,---,0.00,VWS V14.01,2013-02-14 14:58:00,
2013-02-14 08:59:00,21.6,14.9,28.67,NNW,338,1.6,2.7,75,0.00,,---,0.00,VWS V14.01,2013-02-14 14:59:00,
2013-02-14 09:00:00,21.6,14.9,28.67,NNW,338,2.7,2.9,75,0.00,,---,0.00,VWS V14.01,2013-02-14 15:00:00,
2013-02-14 09:01:00,21.6,14.9,28.67,NNW,338,2.7,2.9,75,0.00,,---,0.00,VWS V14.01,2013-02-14 15:01:00,
2013-02-14 09:02:00,22.8,15.5,28.70,NNW,338,3.1,4.7,73,0.00,,---,0.00,VWS V14.01,2013-02-14 15:02:00,
2013-02-14 09:03:00,21.6,14.9,28.67,NNW,338,2.7,3.4,75,0.00,,---,0.00,VWS V14.01,2013-02-14 15:03:00,
2013-02-14 09:04:00,21.6,14.9,28.67,NNW,338,1.6,2.9,75,0.00,,---,0.00,VWS V14.01,2013-02-14 15:04:00,
2013-02-14 09:05:00,21.6,14.9,28.67,NNW,338,3.1,3.1,75,0.00,,---,0.00,VWS V14.01,2013-02-14 15:05:00,
2013-02-14 09:06:00,21.7,15.1,28.67,NNW,338,1.3,2.2,75,0.00,,---,0.00,VWS V14.01,2013-02-14 15:06:00,
2013-02-14 09:07:00,21.6,14.9,28.67,NNW,338,2.0,3.1,75,0.00,,---,0.00,VWS V14.01,2013-02-14 15:07:00,
2013-02-14 09:08:00,21.7,15.1,28.67,NNW,338,2.2,2.5,75,0.00,,---,0.00,VWS V14.01,2013-02-14 15:08:00,
2013-02-14 09:09:00,21.7,15.1,28.67,NNW,338,1.1,2.2,75,0.00,,---,0.00,VWS V14.01,2013-02-14 15:09:00,
2013-02-14 09:10:00,21.7,15.1,28.67,NNW,338,1.6,3.1,75,0.00,,---,0.00,VWS V14.01,2013-02-14 15:10:00,
2013-02-14 09:11:00,21.7,15.1,28.67,NNW,338,1.6,2.7,75,0.00,,---,0.00,VWS V14.01,2013-02-14 15:11:00,
2013-02-14 09:12:00,21.9,15.2,28.67,NW,315,3.8,3.8,75,0.00,,---,0.00,VWS V14.01,2013-02-14 15:12:00,
2013-02-14 09:13:00,21.9,15.2,28.67,NW,315,2.7,3.6,75,0.00,,---,0.00,VWS V14.01,2013-02-14 15:13:00,
2013-02-14 09:14:00,21.9,15.2,28.67,NNW,338,3.6,3.8,75,0.00,,---,0.00,VWS V14.01,2013-02-14 15:14:00,
2013-02-14 09:15:00,21.9,15.2,28.67,NNW,338,2.7,3.6,75,0.00,,---,0.00,VWS V14.01,2013-02-14 15:15:00,
2013-02-14 09:16:00,21.9,15.2,28.67,NNW,338,1.6,2.7,75,0.00,,---,0.00,VWS V14.01,2013-02-14 15:16:00,
2013-02-14 09:17:00,22.1,15.1,28.67,NW,315,3.1,3.4,74,0.00,,---,0.00,VWS V14.01,2013-02-14 15:17:00,
2013-02-14 09:18:00,22.1,15.1,28.67,NNW,338,1.6,2.0,74,0.00,,---,0.00,VWS V14.01,2013-02-14 15:18:00,
2013-02-14 09:19:00,22.1,15.1,28.67,NW,315,3.1,3.4,74,0.00,,---,0.00,VWS V14.01,2013-02-14 15:19:00,
2013-02-14 09:20:00,22.3,15.3,28.67,NNW,338,2.0,3.1,74,0.00,,---,0.00,VWS V14.01,2013-02-14 15:20:00,
2013-02-14 09:21:00,22.3,15.3,28.67,NNW,338,0.0,2.5,74,0.00,,---,0.00,VWS V14.01,2013-02-14 15:21:00,
2013-02-14 09:22:00,22.6,15.6,28.67,NNW,338,2.0,2.7,74,0.00,,---,0.00,VWS V14.01,2013-02-14 15:22:00,
2013-02-14 09:23:00,22.5,15.4,28.67,NW,315,2.7,3.4,74,0.00,,---,0.00,VWS V14.01,2013-02-14 15:23:00,
2013-02-14 09:24:00,22.6,15.6,28.67,NNW,338,2.2,2.7,74,0.00,,---,0.00,VWS V14.01,2013-02-14 15:24:00,
2013-02-14 09:25:00,22.6,15.6,28.67,NW,315,0.9,2.2,74,0.00,,---,0.00,VWS V14.01,2013-02-14 15:25:00,
2013-02-14 09:26:00,22.6,15.6,28.67,NNW,338,1.6,2.5,74,0.00,,---,0.00,VWS V14.01,2013-02-14 15:26:00,
2013-02-14 09:27:00,22.8,15.8,28.67,NNW,338,2.7,2.7,74,0.00,,---,0.00,VWS V14.01,2013-02-14 15:27:00,
2013-02-14 09:28:00,22.8,15.8,28.67,NNW,338,2.7,2.7,74,0.00,,---,0.00,VWS V14.01,2013-02-14 15:28:00,
2013-02-14 09:29:00,22.8,15.8,28.67,NNW,338,2.7,2.7,74,0.00,,---,0.00,VWS V14.01,2013-02-14 15:29:00,
2013-02-14 09:30:00,22.8,15.5,28.67,NNW,338,2.7,2.9,73,0.00,,---,0.00,VWS V14.01,2013-02-14 15:30:00,
2013-02-14 09:31:00,22.8,15.2,28.67,NNW,338,2.9,2.9,72,0.00,,---,0.00,VWS V14.01,2013-02-14 15:31:00,
2013-02-14 09:32:00,22.8,15.2,28.67,NW,315,1.6,3.4,72,0.00,,---,0.00,VWS V14.01,2013-02-14 15:32:00,
2013-02-14 09:33:00,22.8,15.2,28.67,NW,315,3.4,3.4,72,0.00,,---,0.00,VWS V14.01,2013-02-14 15:33:00,
2013-02-14 09:34:00,22.8,15.2,28.67,NNW,338,3.1,3.4,72,0.00,,---,0.00,VWS V14.01,2013-02-14 15:34:00,
2013-02-14 09:35:00,22.8,15.2,28.67,NNW,338,3.1,3.1,72,0.00,,---,0.00,VWS V14.01,2013-02-14 15:35:00,
2013-02-14 09:36:00,22.6,15.0,28.67,NNW,338,2.7,4.0,72,0.00,,---,0.00,VWS V14.01,2013-02-14 15:36:00,
2013-02-14 09:37:00,22.8,15.2,28.67,NNW,338,1.6,2.5,72,0.00,,---,0.00,VWS V14.01,2013-02-14 15:37:00,
2013-02-14 09:38:00,22.6,15.0,28.67,NNW,338,2.5,2.9,72,0.00,,---,0.00,VWS V14.01,2013-02-14 15:38:00,
2013-02-14 09:39:00,22.8,15.2,28.67,NNW,338,2.5,2.5,72,0.00,,---,0.00,VWS V14.01,2013-02-14 15:39:00,
2013-02-14 09:40:00,23.5,14.9,28.73,NNW,338,5.8,6.7,69,0.00,,---,0.00,VWS V14.01,2013-02-14 15:40:00,
2013-02-14 09:41:00,23.5,14.6,28.73,NNW,338,4.3,7.4,68,0.00,,---,0.00,VWS V14.01,2013-02-14 15:41:00,
2013-02-14 09:42:00,22.6,15.3,28.67,NNW,338,2.5,2.9,73,0.00,,---,0.00,VWS V14.01,2013-02-14 15:42:00,
2013-02-14 09:43:00,22.8,15.5,28.67,NNW,338,2.5,2.7,73,0.00,,---,0.00,VWS V14.01,2013-02-14 15:43:00,
2013-02-14 09:44:00,22.6,15.3,28.67,NNW,338,1.6,2.9,73,0.00,,---,0.00,VWS V14.01,2013-02-14 15:44:00,
2013-02-14 09:45:00,22.6,15.3,28.67,NNW,338,2.2,2.5,73,0.00,,---,0.00,VWS V14.01,2013-02-14 15:45:00,
2013-02-14 09:46:00,22.6,15.0,28.67,NNW,338,2.5,3.8,72,0.00,,---,0.00,VWS V14.01,2013-02-14 15:46:00,
2013-02-14 09:47:00,22.6,15.0,28.70,NNW,338,2.5,2.5,72,0.00,,---,0.00,VWS V14.01,2013-02-14 15:47:00,
2013-02-14 09:48:00,22.6,15.0,28.70,NNW,338,2.5,3.8,72,0.00,,---,0.00,VWS V14.01,2013-02-14 15:48:00,
2013-02-14 09:49:00,22.6,15.0,28.70,NNW,338,2.5,2.5,72,0.00,,---,0.00,VWS V14.01,2013-02-14 15:49:00,
2013-02-14 09:50:00,22.6,15.3,28.70,NNW,338,2.9,3.4,73,0.00,,---,0.00,VWS V14.01,2013-02-14 15:50:00,
2013-02-14 09:51:00,22.6,15.0,28.70,NNW,338,3.6,3.6,72,0.00,,---,0.00,VWS V14.01,2013-02-14 15:51:00,
2013-02-14 09:52:00,22.8,15.5,28.70,NNW,338,2.9,3.6,73,0.00,,---,0.00,VWS V14.01,2013-02-14 15:52:00,
2013-02-14 09:53:00,22.6,15.0,28.70,NNW,338,3.1,3.4,72,0.00,,---,0.00,VWS V14.01,2013-02-14 15:53:00,
2013-02-14 09:54:00,22.8,15.5,28.70,NNW,338,3.4,3.6,73,0.00,,---,0.00,VWS V14.01,2013-02-14 15:54:00,
2013-02-14 09:55:00,22.8,15.5,28.70,NNW,338,2.0,3.6,73,0.00,,---,0.00,VWS V14.01,2013-02-14 15:55:00,
2013-02-14 09:56:00,22.8,15.5,28.70,NNW,338,2.9,3.6,73,0.00,,---,0.00,VWS V14.01,2013-02-14 15:56:00,
2013-02-14 09:57:00,22.8,15.5,28.70,North,0,3.4,3.4,73,0.00,,---,0.00,VWS V14.01,2013-02-14 15:57:00,
2013-02-14 09:58:00,22.8,15.5,28.70,NNW,338,2.9,2.9,73,0.00,,---,0.00,VWS V14.01,2013-02-14 15:58:00,
2013-02-14 09:59:00,22.8,15.5,28.70,North,0,3.4,3.4,73,0.00,,---,0.00,VWS V14.01,2013-02-14 15:59:00,
2013-02-14 10:00:00,24.3,12.8,28.73,NNW,338,7.8,8.7,61,0.00,,---,0.00,VWS V14.01,2013-02-14 16:00:00,
2013-02-14 10:01:00,23.0,15.6,28.70,North,0,3.8,4.5,73,0.00,,---,0.00,VWS V14.01,2013-02-14 16:01:00,
2013-02-14 10:02:00,22.8,15.2,28.70,NNW,338,3.4,4.3,72,0.00,,---,0.00,VWS V14.01,2013-02-14 16:02:00,
2013-02-14 10:03:00,24.4,12.6,28.73,NNW,338,6.3,9.8,60,0.00,,---,0.00,VWS V14.01,2013-02-14 16:03:00,
2013-02-14 10:04:00,22.8,15.2,28.70,NNW,338,3.4,4.3,72,0.00,,---,0.00,VWS V14.01,2013-02-14 16:04:00,
2013-02-14 10:05:00,22.8,15.2,28.70,NNW,338,4.0,4.0,72,0.00,,---,0.00,VWS V14.01,2013-02-14 16:05:00,
2013-02-14 10:06:00,22.6,15.3,28.70,NNW,338,3.6,4.0,73,0.00,,---,0.00,VWS V14.01,2013-02-14 16:06:00,
2013-02-14 10:07:00,22.6,15.3,28.70,NNW,338,2.9,4.3,73,0.00,,---,0.00,VWS V14.01,2013-02-14 16:07:00,
2013-02-14 10:08:00,22.8,15.5,28.70,North,0,4.3,4.3,73,0.00,,---,0.00,VWS V14.01,2013-02-14 16:08:00,
2013-02-14 10:09:00,22.6,15.3,28.70,NNW,338,2.9,4.3,73,0.00,,---,0.00,VWS V14.01,2013-02-14 16:09:00,
2013-02-14 10:10:00,22.8,15.5,28.70,North,0,4.0,4.3,73,0.00,,---,0.00,VWS V14.01,2013-02-14 16:10:00,
2013-02-14 10:11:00,22.8,15.5,28.70,NNW,338,4.7,4.7,73,0.00,,---,0.00,VWS V14.01,2013-02-14 16:11:00,
2013-02-14 10:12:00,22.8,15.5,28.70,NNW,338,2.9,5.4,73,0.00,,---,0.00,VWS V14.01,2013-02-14 16:12:00,
2013-02-14 10:13:00,22.8,15.5,28.70,NNW,338,5.4,5.4,73,0.00,,---,0.00,VWS V14.01,2013-02-14 16:13:00,
2013-02-14 10:14:00,22.8,15.5,28.70,NNW,338,5.6,5.6,73,0.00,,---,0.00,VWS V14.01,2013-02-14 16:14:00,
2013-02-14 10:15:00,22.8,15.5,28.70,North,0,6.5,6.5,73,0.00,,---,0.00,VWS V14.01,2013-02-14 16:15:00,
2013-02-14 10:16:00,22.8,15.2,28.70,NNW,338,5.6,6.5,72,0.00,,---,0.00,VWS V14.01,2013-02-14 16:16:00,
2013-02-14 10:17:00,22.8,15.2,28.73,NNW,338,5.6,6.5,72,0.00,,---,0.00,VWS V14.01,2013-02-14 16:17:00,
2013-02-14 10:18:00,22.8,15.2,28.73,NW,315,6.5,6.5,72,0.00,,---,0.00,VWS V14.01,2013-02-14 16:18:00,
2013-02-14 10:19:00,22.8,15.2,28.73,NNW,338,5.6,6.5,72,0.00,,---,0.00,VWS V14.01,2013-02-14 16:19:00,
2013-02-14 10:20:00,23.0,15.3,28.73,North,0,4.7,5.6,72,0.00,,---,0.00,VWS V14.01,2013-02-14 16:20:00,
2013-02-14 10:21:00,23.0,15.3,28.73,North,0,6.3,6.3,72,0.00,,---,0.00,VWS V14.01,2013-02-14 16:21:00,
2013-02-14 10:22:00,23.0,15.3,28.73,NNW,338,6.0,6.0,72,0.00,,---,0.00,VWS V14.01,2013-02-14 16:22:00,
2013-02-14 10:23:00,23.0,15.3,28.73,NNW,338,4.5,5.4,72,0.00,,---,0.00,VWS V14.01,2013-02-14 16:23:00,
2013-02-14 10:24:00,23.0,15.3,28.73,NNW,338,6.0,6.0,72,0.00,,---,0.00,VWS V14.01,2013-02-14 16:24:00,
2013-02-14 10:25:00,23.0,15.3,28.73,North,0,6.5,6.5,72,0.00,,---,0.00,VWS V14.01,2013-02-14 16:25:00,
2013-02-14 10:26:00,23.0,15.0,28.73,North,0,6.0,7.6,71,0.00,,---,0.00,VWS V14.01,2013-02-14 16:26:00,
2013-02-14 10:27:00,23.2,15.2,28.73,North,0,4.3,5.6,71,0.00,,---,0.00,VWS V14.01,2013-02-14 16:27:00,
2013-02-14 10:28:00,23.2,15.2,28.73,NNW,338,5.6,7.2,71,0.00,,---,0.00,VWS V14.01,2013-02-14 16:28:00,
2013-02-14 10:29:00,23.2,15.2,28.73,North,0,4.3,5.6,71,0.00,,---,0.00,VWS V14.01,2013-02-14 16:29:00,
2013-02-14 10:30:00,23.2,15.2,28.73,NNW,338,4.5,5.8,71,0.00,,---,0.00,VWS V14.01,2013-02-14 16:30:00,
2013-02-14 10:31:00,23.4,15.4,28.73,NNW,338,4.3,4.5,71,0.00,,---,0.00,VWS V14.01,2013-02-14 16:31:00,
2013-02-14 10:32:00,23.4,15.0,28.73,NNW,338,5.6,5.8,70,0.00,,---,0.00,VWS V14.01,2013-02-14 16:32:00,
2013-02-14 10:33:00,23.4,15.0,28.73,NNW,338,4.0,6.3,70,0.00,,---,0.00,VWS V14.01,2013-02-14 16:33:00,
2013-02-14 10:34:00,23.4,15.0,28.73,NNW,338,5.6,5.8,70,0.00,,---,0.00,VWS V14.01,2013-02-14 16:34:00,
2013-02-14 10:35:00,23.4,15.0,28.73,NNW,338,7.2,7.2,70,0.00,,---,0.00,VWS V14.01,2013-02-14 16:35:00,
2013-02-14 10:36:00,23.4,15.0,28.73,NW,315,4.0,7.2,70,0.00,,---,0.00,VWS V14.01,2013-02-14 16:36:00,
2013-02-14 10:37:00,23.5,14.9,28.73,NW,315,6.7,6.7,69,0.00,,---,0.00,VWS V14.01,2013-02-14 16:37:00,
2013-02-14 10:38:00,23.4,14.7,28.73,North,0,4.3,5.8,69,0.00,,---,0.00,VWS V14.01,2013-02-14 16:38:00,
2013-02-14 10:39:00,23.5,14.9,28.73,NW,315,6.7,6.7,69,0.00,,---,0.00,VWS V14.01,2013-02-14 16:39:00,
2013-02-14 10:40:00,23.5,14.9,28.73,NNW,338,5.8,6.7,69,0.00,,---,0.00,VWS V14.01,2013-02-14 16:40:00,
2013-02-14 10:41:00,23.5,14.6,28.73,NNW,338,4.3,7.4,68,0.00,,---,0.00,VWS V14.01,2013-02-14 16:41:00,
2013-02-14 10:42:00,23.9,14.6,28.73,NNW,338,3.8,4.9,67,0.00,,---,0.00,VWS V14.01,2013-02-14 16:42:00,
2013-02-14 10:43:00,23.5,14.2,28.73,North,0,5.8,6.5,67,0.00,,---,0.00,VWS V14.01,2013-02-14 16:43:00,
2013-02-14 10:44:00,23.9,14.6,28.73,NNW,338,4.9,5.8,67,0.00,,---,0.00,VWS V14.01,2013-02-14 16:44:00,
2013-02-14 10:45:00,23.9,14.2,28.73,NNW,338,2.5,5.6,66,0.00,,---,0.00,VWS V14.01,2013-02-14 16:45:00,
2013-02-14 10:46:00,23.9,14.2,28.73,NNW,338,5.8,7.8,66,0.00,,---,0.00,VWS V14.01,2013-02-14 16:46:00,
2013-02-14 10:47:00,24.1,14.4,28.73,NNE,22,3.1,7.2,66,0.00,,---,0.00,VWS V14.01,2013-02-14 16:47:00,
2013-02-14 10:48:00,24.1,14.4,28.73,NNW,338,7.2,7.2,66,0.00,,---,0.00,VWS V14.01,2013-02-14 16:48:00,
2013-02-14 10:49:00,24.4,14.7,28.73,NNW,338,4.7,7.2,66,0.00,,---,0.00,VWS V14.01,2013-02-14 16:49:00,
2013-02-14 10:50:00,24.4,14.7,28.73,North,0,5.4,5.4,66,0.00,,---,0.00,VWS V14.01,2013-02-14 16:50:00,
2013-02-14 10:51:00,24.4,14.4,28.73,NNW,338,7.4,7.4,65,0.00,,---,0.00,VWS V14.01,2013-02-14 16:51:00,
2013-02-14 10:52:00,24.8,14.4,28.73,North,0,5.8,7.4,64,0.00,,---,0.00,VWS V14.01,2013-02-14 16:52:00,
2013-02-14 10:53:00,24.6,14.2,28.73,NNE,22,7.4,7.6,64,0.00,,---,0.00,VWS V14.01,2013-02-14 16:53:00,
2013-02-14 10:54:00,24.8,14.4,28.73,North,0,5.8,7.4,64,0.00,,---,0.00,VWS V14.01,2013-02-14 16:54:00,
2013-02-14 10:55:00,24.8,14.4,28.73,North,0,4.3,5.8,64,0.00,,---,0.00,VWS V14.01,2013-02-14 16:55:00,
2013-02-14 10:56:00,24.6,13.8,28.73,NNW,338,6.3,6.3,63,0.00,,---,0.00,VWS V14.01,2013-02-14 16:56:00,
2013-02-14 10:57:00,24.4,12.9,28.73,NNW,338,8.1,8.7,61,0.00,,---,0.00,VWS V14.01,2013-02-14 16:57:00,
2013-02-14 10:58:00,24.4,13.3,28.73,NNW,338,6.0,7.4,62,0.00,,---,0.00,VWS V14.01,2013-02-14 16:58:00,
2013-02-14 10:59:00,24.4,12.9,28.73,North,0,8.7,8.7,61,0.00,,---,0.00,VWS V14.01,2013-02-14 16:59:00,
2013-02-14 11:00:00,24.3,12.8,28.73,NNW,338,7.8,8.7,61,0.00,,---,0.00,VWS V14.01,2013-02-14 17:00:00,
2013-02-14 11:01:00,24.1,12.2,28.73,NNW,338,6.3,10.1,60,0.00,,---,0.00,VWS V14.01,2013-02-14 17:01:00,
2013-02-14 11:02:00,24.3,12.4,28.73,NNW,338,6.0,6.0,60,0.00,,---,0.00,VWS V14.01,2013-02-14 17:02:00,
2013-02-14 11:03:00,24.4,12.6,28.73,NNW,338,6.3,9.8,60,0.00,,---,0.00,VWS V14.01,2013-02-14 17:03:00,
2013-02-14 11:04:00,24.3,12.4,28.73,NNW,338,6.0,7.8,60,0.00,,---,0.00,VWS V14.01,2013-02-14 17:04:00,
2013-02-14 11:05:00,24.3,12.4,28.73,NW,315,3.4,7.2,60,0.00,,---,0.00,VWS V14.01,2013-02-14 17:05:00,
2013-02-14 11:06:00,24.4,12.9,28.73,North,0,3.1,4.3,61,0.00,,---,0.00,VWS V14.01,2013-02-14 17:06:00,
2013-02-14 11:07:00,24.6,12.7,28.73,NNW,338,3.4,5.4,60,0.00,,---,0.00,VWS V14.01,2013-02-14 17:07:00,
2013-02-14 11:08:00,24.6,12.7,28.73,NNW,338,5.4,7.2,60,0.00,,---,0.00,VWS V14.01,2013-02-14 17:08:00,
2013-02-14 11:09:00,24.6,12.7,28.73,NNW,338,3.4,5.4,60,0.00,,---,0.00,VWS V14.01,2013-02-14 17:09:00,
2013-02-14 11:10:00,24.6,12.7,28.73,North,0,6.5,8.5,60,0.00,,---,0.00,VWS V14.01,2013-02-14 17:10:00,
2013-02-14 11:11:00,24.4,12.2,28.73,NNE,22,3.1,6.5,59,0.00,,---,0.00,VWS V14.01,2013-02-14 17:11:00,
2013-02-14 11:12:00,24.8,12.1,28.73,NNW,338,4.3,4.3,58,0.00,,---,0.00,VWS V14.01,2013-02-14 17:12:00,
2013-02-14 11:13:00,24.8,12.1,28.73,North,0,4.9,5.6,58,0.00,,---,0.00,VWS V14.01,2013-02-14 17:13:00,
2013-02-14 11:14:00,24.8,12.1,28.73,NNW,338,4.3,5.8,58,0.00,,---,0.00,VWS V14.01,2013-02-14 17:14:00,
2013-02-14 11:15:00,24.8,12.1,28.73,NNW,338,4.3,4.3,58,0.00,,---,0.00,VWS V14.01,2013-02-14 17:15:00,
2013-02-14 11:16:00,25.0,11.9,28.73,NNW,338,6.7,6.7,57,0.00,,---,0.00,VWS V14.01,2013-02-14 17:16:00,
2013-02-14 11:17:00,25.2,12.1,28.70,NNW,338,4.0,4.0,57,0.00,,---,0.00,VWS V14.01,2013-02-14 17:17:00,
2013-02-14 11:18:00,25.0,11.9,28.70,NNW,338,4.0,6.7,57,0.00,,---,0.00,VWS V14.01,2013-02-14 17:18:00,
2013-02-14 11:19:00,25.2,12.1,28.70,NNW,338,4.0,4.0,57,0.00,,---,0.00,VWS V14.01,2013-02-14 17:19:00,
2013-02-14 11:20:00,25.3,11.9,28.70,NE,45,7.2,9.6,56,0.00,,---,0.00,VWS V14.01,2013-02-14 17:20:00,
2013-02-14 11:21:00,25.5,12.0,28.70,NNW,338,6.5,7.2,56,0.00,,---,0.00,VWS V14.01,2013-02-14 17:21:00,
2013-02-14 11:22:00,25.9,11.9,28.70,NNW,338,5.4,5.4,55,0.00,,---,0.00,VWS V14.01,2013-02-14 17:22:00,
2013-02-14 11:23:00,25.9,11.9,28.70,North,0,3.6,5.6,55,0.00,,---,0.00,VWS V14.01,2013-02-14 17:23:00,
2013-02-14 11:24:00,25.9,11.9,28.70,NNW,338,5.4,5.4,55,0.00,,---,0.00,VWS V14.01,2013-02-14 17:24:00,
2013-02-14 11:25:00,25.7,11.8,28.70,NNE,22,6.5,7.4,55,0.00,,---,0.00,VWS V14.01,2013-02-14 17:25:00,
2013-02-14 11:26:00,26.2,12.3,28.70,NNE,22,3.8,7.4,55,0.00,,---,0.00,VWS V14.01,2013-02-14 17:26:00,
2013-02-14 11:27:00,26.6,12.2,28.70,North,0,3.8,4.0,54,0.00,,---,0.00,VWS V14.01,2013-02-14 17:27:00,
2013-02-14 11:28:00,26.1,11.3,28.70,NNE,22,4.0,6.0,53,0.00,,---,0.00,VWS V14.01,2013-02-14 17:28:00,
2013-02-14 11:29:00,26.6,12.2,28.70,NNE,22,4.0,7.2,54,0.00,,---,0.00,VWS V14.01,2013-02-14 17:29:00,
2013-02-14 11:30:00,26.2,11.9,28.70,North,0,5.4,5.4,54,0.00,,---,0.00,VWS V14.01,2013-02-14 17:30:00,
2013-02-14 11:31:00,26.4,11.6,28.70,North,0,6.5,10.3,53,0.00,,---,0.00,VWS V14.01,2013-02-14 17:31:00,
2013-02-14 11:32:00,26.4,11.2,28.73,North,0,4.3,7.8,52,0.00,,---,0.00,VWS V14.01,2013-02-14 17:32:00,
2013-02-14 11:33:00,26.2,11.0,28.73,NW,315,6.5,6.5,52,0.00,,---,0.00,VWS V14.01,2013-02-14 17:33:00,
2013-02-14 11:34:00,26.4,11.2,28.73,North,0,4.3,7.8,52,0.00,,---,0.00,VWS V14.01,2013-02-14 17:34:00,
2013-02-14 11:35:00,26.4,11.2,28.73,North,0,4.3,4.3,52,0.00,,---,0.00,VWS V14.01,2013-02-14 17:35:00,
2013-02-14 11:36:00,27.0,11.7,28.73,NNW,338,3.4,7.4,52,0.00,,---,0.00,VWS V14.01,2013-02-14 17:36:00,
2013-02-14 11:37:00,27.1,11.4,28.73,North,0,5.4,5.4,51,0.00,,---,0.00,VWS V14.01,2013-02-14 17:37:00,
2013-02-14 11:38:00,27.1,11.9,28.73,NNW,338,4.3,7.6,52,0.00,,---,0.00,VWS V14.01,2013-02-14 17:38:00,
2013-02-14 11:39:00,27.1,11.4,28.73,North,0,5.4,5.4,51,0.00,,---,0.00,VWS V14.01,2013-02-14 17:39:00,
2013-02-14 11:40:00,27.1,11.4,28.73,NNW,338,5.4,5.4,51,0.00,,---,0.00,VWS V14.01,2013-02-14 17:40:00,
2013-02-14 11:41:00,27.3,11.6,28.73,NNW,338,4.7,7.8,51,0.00,,---,0.00,VWS V14.01,2013-02-14 17:41:00,
2013-02-14 11:42:00,27.3,11.1,28.73,NNE,22,6.3,6.3,50,0.00,,---,0.00,VWS V14.01,2013-02-14 17:42:00,
2013-02-14 11:43:00,27.3,11.6,28.73,North,0,11.0,11.0,51,0.00,,---,0.00,VWS V14.01,2013-02-14 17:43:00,
2013-02-14 11:44:00,27.3,11.1,28.73,NNW,338,5.8,11.0,50,0.00,,---,0.00,VWS V14.01,2013-02-14 17:44:00,
2013-02-14 11:45:00,27.1,11.0,28.73,NNE,22,5.6,8.1,50,0.00,,---,0.00,VWS V14.01,2013-02-14 17:45:00,
2013-02-14 11:46:00,27.1,11.0,28.73,NNE,22,9.8,9.8,50,0.00,,---,0.00,VWS V14.01,2013-02-14 17:46:00,
2013-02-14 11:47:00,27.9,12.1,28.73,NNW,338,7.8,7.8,51,0.00,,---,0.00,VWS V14.01,2013-02-14 17:47:00,
2013-02-14 11:48:00,27.5,11.8,28.73,North,0,5.4,5.4,51,0.00,,---,0.00,VWS V14.01,2013-02-14 17:48:00,
2013-02-14 11:49:00,27.9,12.1,28.73,NNW,338,6.0,6.0,51,0.00,,---,0.00,VWS V14.01,2013-02-14 17:49:00,
2013-02-14 11:50:00,27.7,11.5,28.73,NNE,22,12.5,12.5,50,0.00,,---,0.00,VWS V14.01,2013-02-14 17:50:00,
2013-02-14 11:51:00,27.7,11.5,28.73,North,0,4.0,12.5,50,0.00,,---,0.00,VWS V14.01,2013-02-14 17:51:00,
2013-02-14 11:52:00,28.0,11.8,28.73,NNW,338,8.1,8.1,50,0.00,,---,0.00,VWS V14.01,2013-02-14 17:52:00,
2013-02-14 11:53:00,27.9,11.6,28.73,NNE,22,5.8,5.8,50,0.00,,---,0.00,VWS V14.01,2013-02-14 17:53:00,
2013-02-14 11:54:00,27.9,11.2,28.73,NNW,338,8.1,8.5,49,0.00,,---,0.00,VWS V14.01,2013-02-14 17:54:00,
2013-02-14 11:55:00,28.0,11.8,28.73,North,0,6.7,8.1,50,0.00,,---,0.00,VWS V14.01,2013-02-14 17:55:00,
2013-02-14 11:56:00,27.9,10.7,28.73,NNW,338,7.6,8.5,48,0.00,,---,0.00,VWS V14.01,2013-02-14 17:56:00,
2013-02-14 11:57:00,27.1,10.1,28.73,North,0,5.8,5.8,48,0.00,,---,0.00,VWS V14.01,2013-02-14 17:57:00,
2013-02-14 11:58:00,27.1,10.1,28.73,NNW,338,10.7,10.7,48,0.00,,---,0.00,VWS V14.01,2013-02-14 17:58:00,
2013-02-14 11:59:00,27.1,10.1,28.73,NNW,338,3.6,10.7,48,0.00,,---,0.00,VWS V14.01,2013-02-14 17:59:00,
2013-02-14 12:00:00,27.0,9.9,28.73,NNW,338,7.2,11.2,48,0.00,,---,0.00,VWS V14.01,2013-02-14 18:00:00,
2013-02-14 12:01:00,27.0,9.9,28.73,NNW,338,7.8,7.8,48,0.00,,---,0.00,VWS V14.01,2013-02-14 18:01:00,
2013-02-14 12:02:00,26.6,9.6,28.73,NNW,338,3.8,3.8,48,0.00,,---,0.00,VWS V14.01,2013-02-14 18:02:00,
2013-02-14 12:03:00,26.4,9.4,28.73,NNE,22,5.4,10.1,48,0.00,,---,0.00,VWS V14.01,2013-02-14 18:03:00,
2013-02-14 12:04:00,26.6,9.6,28.73,NNW,338,3.6,6.0,48,0.00,,---,0.00,VWS V14.01,2013-02-14 18:04:00,
2013-02-14 12:05:00,26.6,9.6,28.73,NNW,338,6.5,6.5,48,0.00,,---,0.00,VWS V14.01,2013-02-14 18:05:00,
2013-02-14 12:06:00,26.6,9.6,28.73,North,0,4.3,6.5,48,0.00,,---,0.00,VWS V14.01,2013-02-14 18:06:00,
2013-02-14 12:07:00,26.4,9.9,28.73,NNW,338,7.4,7.4,49,0.00,,---,0.00,VWS V14.01,2013-02-14 18:07:00,
2013-02-14 12:08:00,26.8,10.2,28.73,NNW,338,5.8,7.8,49,0.00,,---,0.00,VWS V14.01,2013-02-14 18:08:00,
2013-02-14 12:09:00,26.4,9.9,28.73,NNW,338,7.4,7.4,49,0.00,,---,0.00,VWS V14.01,2013-02-14 18:09:00,
2013-02-14 12:10:00,26.4,9.9,28.73,WNW,292,7.4,7.4,49,0.00,,---,0.00,VWS V14.01,2013-02-14 18:10:00,
2013-02-14 12:11:00,26.6,10.0,28.73,WNW,292,6.7,7.4,49,0.00,,---,0.00,VWS V14.01,2013-02-14 18:11:00,
2013-02-14 12:12:00,26.6,9.6,28.73,NNW,338,8.5,8.5,48,0.00,,---,0.00,VWS V14.01,2013-02-14 18:12:00,
2013-02-14 12:13:00,26.8,9.3,28.73,North,0,6.0,7.4,47,0.00,,---,0.00,VWS V14.01,2013-02-14 18:13:00,
2013-02-14 12:14:00,26.6,9.6,28.73,NNW,338,8.5,8.5,48,0.00,,---,0.00,VWS V14.01,2013-02-14 18:14:00,
2013-02-14 12:15:00,26.6,9.6,28.73,NNW,338,9.6,9.6,48,0.00,,---,0.00,VWS V14.01,2013-02-14 18:15:00,
2013-02-14 12:16:00,26.6,9.6,28.73,NNW,338,9.0,9.6,48,0.00,,---,0.00,VWS V14.01,2013-02-14 18:16:00,
2013-02-14 12:17:00,27.1,9.6,28.73,NNE,22,7.2,7.2,47,0.00,,---,0.00,VWS V14.01,2013-02-14 18:17:00,
2013-02-14 12:18:00,27.0,9.4,28.73,WNW,292,6.5,9.2,47,0.00,,---,0.00,VWS V14.01,2013-02-14 18:18:00,
2013-02-14 12:19:00,27.1,9.6,28.73,North,0,5.8,9.8,47,0.00,,---,0.00,VWS V14.01,2013-02-14 18:19:00,
2013-02-14 12:20:00,27.1,9.6,28.73,NNW,338,7.8,7.8,47,0.00,,---,0.00,VWS V14.01,2013-02-14 18:20:00,
2013-02-14 12:21:00,27.9,10.3,28.73,NNW,338,5.6,7.8,47,0.00,,---,0.00,VWS V14.01,2013-02-14 18:21:00,
2013-02-14 12:22:00,27.3,9.8,28.73,NNW,338,6.0,8.5,47,0.00,,---,0.00,VWS V14.01,2013-02-14 18:22:00,
2013-02-14 12:23:00,27.9,10.7,28.73,NNW,338,8.5,8.5,48,0.00,,---,0.00,VWS V14.01,2013-02-14 18:23:00,
2013-02-14 12:24:00,27.3,9.8,28.73,NNE,22,8.5,8.5,47,0.00,,---,0.00,VWS V14.01,2013-02-14 18:24:00,
2013-02-14 12:25:00,27.3,9.8,28.73,NNE,22,8.7,8.7,47,0.00,,---,0.00,VWS V14.01,2013-02-14 18:25:00,
2013-02-14 12:26:00,27.1,9.1,28.73,NNW,338,9.8,9.8,46,0.00,,---,0.00,VWS V14.01,2013-02-14 18:26:00,
2013-02-14 12:27:00,27.0,8.9,28.73,NW,315,4.0,5.6,46,0.00,,---,0.00,VWS V14.01,2013-02-14 18:27:00,
2013-02-14 12:28:00,27.0,8.9,28.73,NNE,22,3.4,3.4,46,0.00,,---,0.00,VWS V14.01,2013-02-14 18:28:00,
2013-02-14 12:29:00,27.0,8.9,28.73,NW,315,5.4,7.6,46,0.00,,---,0.00,VWS V14.01,2013-02-14 18:29:00,
2013-02-14 12:30:00,27.1,9.1,28.73,NNW,338,5.6,5.6,46,0.00,,---,0.00,VWS V14.01,2013-02-14 18:30:00,
2013-02-14 12:31:00,27.1,9.6,28.73,NNW,338,9.8,9.8,47,0.00,,---,0.00,VWS V14.01,2013-02-14 18:31:00,
2013-02-14 12:32:00,27.0,9.4,28.76,NNW,338,8.1,9.8,47,0.00,,---,0.00,VWS V14.01,2013-02-14 18:32:00,
2013-02-14 12:33:00,27.0,9.4,28.76,NNW,338,10.3,10.3,47,0.00,,---,0.00,VWS V14.01,2013-02-14 18:33:00,
2013-02-14 12:34:00,27.0,9.4,28.76,NNW,338,9.0,10.3,47,0.00,,---,0.00,VWS V14.01,2013-02-14 18:34:00,
2013-02-14 12:35:00,27.0,9.4,28.76,NNW,338,4.9,9.8,47,0.00,,---,0.00,VWS V14.01,2013-02-14 18:35:00,
2013-02-14 12:36:00,27.0,9.4,28.76,NNW,338,7.4,7.4,47,0.00,,---,0.00,VWS V14.01,2013-02-14 18:36:00,
2013-02-14 12:37:00,27.7,10.1,28.76,NNW,338,6.5,8.7,47,0.00,,---,0.00,VWS V14.01,2013-02-14 18:37:00,
2013-02-14 12:38:00,27.3,9.8,28.76,NNW,338,8.7,9.8,47,0.00,,---,0.00,VWS V14.01,2013-02-14 18:38:00,
2013-02-14 12:39:00,27.5,9.9,28.76,NNW,338,5.4,8.7,47,0.00,,---,0.00,VWS V14.01,2013-02-14 18:39:00,
2013-02-14 12:40:00,27.7,10.1,28.76,North,0,7.8,8.7,47,0.00,,---,0.00,VWS V14.01,2013-02-14 18:40:00,
2013-02-14 12:41:00,27.5,9.9,28.76,NNE,22,7.8,8.1,47,0.00,,---,0.00,VWS V14.01,2013-02-14 18:41:00,
2013-02-14 12:42:00,27.7,9.6,28.76,NNW,338,10.1,10.5,46,0.00,,---,0.00,VWS V14.01,2013-02-14 18:42:00,
2013-02-14 12:43:00,27.7,9.6,28.76,North,0,10.1,10.3,46,0.00,,---,0.00,VWS V14.01,2013-02-14 18:43:00,
2013-02-14 12:44:00,27.7,9.6,28.76,NNW,338,8.7,10.1,46,0.00,,---,0.00,VWS V14.01,2013-02-14 18:44:00,
2013-02-14 12:45:00,27.5,9.0,28.76,NNW,338,7.8,11.0,45,0.00,,---,0.00,VWS V14.01,2013-02-14 18:45:00,
2013-02-14 12:46:00,27.5,9.4,28.76,NNW,338,11.0,11.0,46,0.00,,---,0.00,VWS V14.01,2013-02-14 18:46:00,
2013-02-14 12:47:00,27.5,9.9,28.76,NNW,338,10.3,10.3,47,0.00,,---,0.00,VWS V14.01,2013-02-14 18:47:00,
2013-02-14 12:48:00,27.7,9.6,28.76,NW,315,4.9,8.7,46,0.00,,---,0.00,VWS V14.01,2013-02-14 18:48:00,
2013-02-14 12:49:00,27.5,9.9,28.76,NNW,338,10.1,10.1,47,0.00,,---,0.00,VWS V14.01,2013-02-14 18:49:00,
2013-02-14 12:50:00,27.5,9.9,28.76,North,0,11.0,11.0,47,0.00,,---,0.00,VWS V14.01,2013-02-14 18:50:00,
2013-02-14 12:51:00,27.5,9.9,28.76,North,0,11.0,11.0,47,0.00,,---,0.00,VWS V14.01,2013-02-14 18:51:00,
2013-02-14 12:52:00,26.6,9.1,28.76,NNW,338,10.1,12.8,47,0.00,,---,0.00,VWS V14.01,2013-02-14 18:52:00,
2013-02-14 12:53:00,27.5,9.9,28.76,NNW,338,9.2,12.1,47,0.00,,---,0.00,VWS V14.01,2013-02-14 18:53:00,
2013-02-14 12:54:00,26.8,8.8,28.76,NNW,338,11.0,12.3,46,0.00,,---,0.00,VWS V14.01,2013-02-14 18:54:00,
2013-02-14 12:55:00,26.6,9.1,28.76,NNW,338,12.3,12.8,47,0.00,,---,0.00,VWS V14.01,2013-02-14 18:55:00,
2013-02-14 12:56:00,26.4,9.4,28.76,NNW,338,9.8,12.3,48,0.00,,---,0.00,VWS V14.01,2013-02-14 18:56:00,
2013-02-14 12:57:00,26.1,9.5,28.76,North,0,8.7,10.3,49,0.00,,---,0.00,VWS V14.01,2013-02-14 18:57:00,
2013-02-14 12:58:00,26.1,8.6,28.76,NNW,338,10.1,10.1,47,0.00,,---,0.00,VWS V14.01,2013-02-14 18:58:00,
2013-02-14 12:59:00,25.9,8.9,28.76,NNW,338,10.3,13.0,48,0.00,,---,0.00,VWS V14.01,2013-02-14 18:59:00,
2013-02-14 13:00:00,26.1,9.5,28.76,NNW,338,14.3,14.3,49,0.00,,---,0.00,VWS V14.01,2013-02-14 19:00:00,
2013-02-14 13:01:00,26.1,9.5,28.76,NNW,338,14.3,14.3,49,0.00,,---,0.00,VWS V14.01,2013-02-14 19:01:00,
2013-02-14 13:02:00,25.5,8.1,28.76,NNW,338,13.2,13.2,47,0.00,,---,0.00,VWS V14.01,2013-02-14 19:02:00,
2013-02-14 13:03:00,25.7,8.7,28.76,NNW,338,10.3,10.3,48,0.00,,---,0.00,VWS V14.01,2013-02-14 19:03:00,
2013-02-14 13:04:00,25.7,8.7,28.76,NNW,338,12.8,12.8,48,0.00,,---,0.00,VWS V14.01,2013-02-14 19:04:00,
2013-02-14 13:05:00,25.5,8.6,28.76,NNW,338,9.8,13.2,48,0.00,,---,0.00,VWS V14.01,2013-02-14 19:05:00,
2013-02-14 13:06:00,25.3,7.9,28.76,NNW,338,12.5,12.5,47,0.00,,---,0.00,VWS V14.01,2013-02-14 19:06:00,
2013-02-14 13:07:00,25.3,7.5,28.76,NNW,338,7.8,9.8,46,0.00,,---,0.00,VWS V14.01,2013-02-14 19:07:00,
2013-02-14 13:08:00,25.3,8.4,28.76,NNW,338,10.7,10.7,48,0.00,,---,0.00,VWS V14.01,2013-02-14 19:08:00,
2013-02-14 13:09:00,25.3,7.9,28.76,NNW,338,9.8,10.7,47,0.00,,---,0.00,VWS V14.01,2013-02-14 19:09:00,
2013-02-14 13:10:00,25.3,7.5,28.76,WNW,292,9.8,10.3,46,0.00,,---,0.00,VWS V14.01,2013-02-14 19:10:00,
2013-02-14 13:11:00,25.3,7.9,28.76,NNW,338,6.3,11.4,47,0.00,,---,0.00,VWS V14.01,2013-02-14 19:11:00,
2013-02-14 13:12:00,25.2,7.3,28.76,NNW,338,9.6,10.5,46,0.00,,---,0.00,VWS V14.01,2013-02-14 19:12:00,
2013-02-14 13:13:00,25.0,7.6,28.76,NNW,338,12.5,12.5,47,0.00,,---,0.00,VWS V14.01,2013-02-14 19:13:00,
2013-02-14 13:14:00,25.2,7.8,28.76,NNW,338,10.5,12.5,47,0.00,,---,0.00,VWS V14.01,2013-02-14 19:14:00,
2013-02-14 13:15:00,25.0,7.6,28.76,North,0,13.0,13.0,47,0.00,,---,0.00,VWS V14.01,2013-02-14 19:15:00,
2013-02-14 13:16:00,25.0,8.1,28.76,NNW,338,12.1,13.6,48,0.00,,---,0.00,VWS V14.01,2013-02-14 19:16:00,
2013-02-14 13:17:00,24.6,7.7,28.76,NNW,338,11.0,12.1,48,0.00,,---,0.00,VWS V14.01,2013-02-14 19:17:00,
2013-02-14 13:18:00,24.4,7.1,28.76,North,0,9.0,12.8,47,0.00,,---,0.00,VWS V14.01,2013-02-14 19:18:00,
2013-02-14 13:19:00,24.1,5.8,28.76,NNW,338,12.3,14.8,45,0.00,,---,0.00,VWS V14.01,2013-02-14 19:19:00,
2013-02-14 13:20:00,24.4,7.1,28.76,NNW,338,13.6,13.6,47,0.00,,---,0.00,VWS V14.01,2013-02-14 19:20:00,
2013-02-14 13:21:00,24.4,7.1,28.76,NW,315,10.7,13.6,47,0.00,,---,0.00,VWS V14.01,2013-02-14 19:21:00,
2013-02-14 13:22:00,24.4,7.1,28.76,NNW,338,9.8,10.7,47,0.00,,---,0.00,VWS V14.01,2013-02-14 19:22:00,
2013-02-14 13:23:00,24.6,7.7,28.76,North,0,7.4,10.1,48,0.00,,---,0.00,VWS V14.01,2013-02-14 19:23:00,
2013-02-14 13:24:00,24.6,7.7,28.76,NNW,338,6.0,8.1,48,0.00,,---,0.00,VWS V14.01,2013-02-14 19:24:00,
2013-02-14 13:25:00,24.6,7.7,28.76,NNW,338,7.8,10.1,48,0.00,,---,0.00,VWS V14.01,2013-02-14 19:25:00,
2013-02-14 13:26:00,24.6,7.7,28.76,NNW,338,6.3,10.3,48,0.00,,---,0.00,VWS V14.01,2013-02-14 19:26:00,
2013-02-14 13:27:00,24.8,8.4,28.76,NNW,338,7.4,9.8,49,0.00,,---,0.00,VWS V14.01,2013-02-14 19:27:00,
2013-02-14 13:28:00,24.8,7.4,28.76,NNW,338,11.2,12.3,47,0.00,,---,0.00,VWS V14.01,2013-02-14 19:28:00,
2013-02-14 13:29:00,24.8,7.4,28.76,NNW,338,10.5,11.9,47,0.00,,---,0.00,VWS V14.01,2013-02-14 19:29:00,
2013-02-14 13:30:00,24.8,7.4,28.76,NNW,338,11.2,12.3,47,0.00,,---,0.00,VWS V14.01,2013-02-14 19:30:00,
2013-02-14 13:31:00,24.8,7.4,28.76,NNW,338,7.4,11.2,47,0.00,,---,0.00,VWS V14.01,2013-02-14 19:31:00,
2013-02-14 13:32:00,24.6,7.3,28.79,NNW,338,11.0,11.0,47,0.00,,---,0.00,VWS V14.01,2013-02-14 19:32:00,
2013-02-14 13:33:00,24.8,7.4,28.79,NNW,338,7.8,10.3,47,0.00,,---,0.00,VWS V14.01,2013-02-14 19:33:00,
2013-02-14 13:34:00,24.8,7.4,28.79,NNW,338,7.8,10.3,47,0.00,,---,0.00,VWS V14.01,2013-02-14 19:34:00,
2013-02-14 13:35:00,24.8,7.4,28.79,NNW,338,11.0,11.0,47,0.00,,---,0.00,VWS V14.01,2013-02-14 19:35:00,
2013-02-14 13:36:00,24.8,7.4,28.79,NNW,338,12.1,13.4,47,0.00,,---,0.00,VWS V14.01,2013-02-14 19:36:00,
2013-02-14 13:37:00,24.8,7.4,28.79,NNW,338,8.7,12.8,47,0.00,,---,0.00,VWS V14.01,2013-02-14 19:37:00,
2013-02-14 13:38:00,24.8,7.0,28.79,NNW,338,11.4,11.4,46,0.00,,---,0.00,VWS V14.01,2013-02-14 19:38:00,
2013-02-14 13:39:00,24.8,7.4,28.79,NNW,338,10.5,12.5,47,0.00,,---,0.00,VWS V14.01,2013-02-14 19:39:00,
2013-02-14 13:40:00,24.8,7.0,28.79,NNW,338,11.4,11.4,46,0.00,,---,0.00,VWS V14.01,2013-02-14 19:40:00,
2013-02-14 13:41:00,24.8,7.0,28.79,NNW,338,14.3,14.3,46,0.00,,---,0.00,VWS V14.01,2013-02-14 19:41:00,
2013-02-14 13:42:00,24.8,7.0,28.79,NNE,22,10.7,14.3,46,0.00,,---,0.00,VWS V14.01,2013-02-14 19:42:00,
2013-02-14 13:43:00,24.6,6.8,28.79,NNW,338,11.0,12.5,46,0.00,,---,0.00,VWS V14.01,2013-02-14 19:43:00,
2013-02-14 13:44:00,24.6,6.8,28.79,North,0,12.5,12.5,46,0.00,,---,0.00,VWS V14.01,2013-02-14 19:44:00,
2013-02-14 13:45:00,24.6,6.8,28.79,WSW,248,7.8,12.5,46,0.00,,---,0.00,VWS V14.01,2013-02-14 19:45:00,
2013-02-14 13:46:00,24.6,6.8,28.79,WSW,248,7.8,7.8,46,0.00,,---,0.00,VWS V14.01,2013-02-14 19:46:00,
2013-02-14 13:47:00,24.8,7.4,28.79,NNW,338,10.7,12.1,47,0.00,,---,0.00,VWS V14.01,2013-02-14 19:47:00,
2013-02-14 13:48:00,24.6,6.8,28.79,NNW,338,10.7,11.0,46,0.00,,---,0.00,VWS V14.01,2013-02-14 19:48:00,
2013-02-14 13:49:00,24.6,6.8,28.79,NNW,338,11.0,13.0,46,0.00,,---,0.00,VWS V14.01,2013-02-14 19:49:00,
2013-02-14 13:50:00,24.6,6.8,28.79,NNW,338,10.7,11.0,46,0.00,,---,0.00,VWS V14.01,2013-02-14 19:50:00,
2013-02-14 13:51:00,24.6,6.8,28.79,NNW,338,14.8,14.8,46,0.00,,---,0.00,VWS V14.01,2013-02-14 19:51:00,
2013-02-14 13:52:00,24.6,6.8,28.79,NNW,338,14.5,16.6,46,0.00,,---,0.00,VWS V14.01,2013-02-14 19:52:00,
2013-02-14 13:53:00,24.4,6.6,28.79,NNW,338,7.8,13.0,46,0.00,,---,0.00,VWS V14.01,2013-02-14 19:53:00,
2013-02-14 13:54:00,24.4,6.6,28.79,NW,315,12.1,12.5,46,0.00,,---,0.00,VWS V14.01,2013-02-14 19:54:00,
2013-02-14 13:55:00,24.4,6.6,28.79,NNW,338,7.8,13.0,46,0.00,,---,0.00,VWS V14.01,2013-02-14 19:55:00,
2013-02-14 13:56:00,24.4,6.6,28.79,NNW,338,10.3,13.2,46,0.00,,---,0.00,VWS V14.01,2013-02-14 19:56:00,
2013-02-14 13:57:00,24.4,6.6,28.79,NNW,338,10.7,11.2,46,0.00,,---,0.00,VWS V14.01,2013-02-14 19:57:00,
2013-02-14 13:58:00,24.4,6.6,28.79,NNW,338,13.0,15.4,46,0.00,,---,0.00,VWS V14.01,2013-02-14 19:58:00,
2013-02-14 13:59:00,24.4,6.6,28.79,NNW,338,12.5,13.2,46,0.00,,---,0.00,VWS V14.01,2013-02-14 19:59:00,
2013-02-14 14:00:00,24.4,6.6,28.79,NNW,338,13.0,15.4,46,0.00,,---,0.00,VWS V14.01,2013-02-14 20:00:00,
2013-02-14 14:01:00,24.1,5.8,28.79,NNW,338,11.0,15.4,45,0.00,,---,0.00,VWS V14.01,2013-02-14 20:01:00,
2013-02-14 14:02:00,24.1,5.8,28.76,North,0,10.5,13.0,45,0.00,,---,0.00,VWS V14.01,2013-02-14 20:02:00,
2013-02-14 14:03:00,24.3,6.0,28.76,NNW,338,10.5,14.3,45,0.00,,---,0.00,VWS V14.01,2013-02-14 20:03:00,
2013-02-14 14:04:00,24.3,6.0,28.76,NNW,338,12.5,12.5,45,0.00,,---,0.00,VWS V14.01,2013-02-14 20:04:00,
2013-02-14 14:05:00,24.3,6.0,28.76,NNW,338,10.5,14.3,45,0.00,,---,0.00,VWS V14.01,2013-02-14 20:05:00,
2013-02-14 14:06:00,24.3,6.0,28.76,NNW,338,13.0,13.0,45,0.00,,---,0.00,VWS V14.01,2013-02-14 20:06:00,
2013-02-14 14:07:00,23.5,5.3,28.82,NNW,338,12.8,12.8,45,0.00,,---,0.00,VWS V14.01,2013-02-14 20:07:00,
2013-02-14 14:08:00,24.3,6.0,28.76,NNW,338,7.8,12.3,45,0.00,,---,0.00,VWS V14.01,2013-02-14 20:08:00,
2013-02-14 14:09:00,24.3,6.0,28.76,NNW,338,12.3,17.2,45,0.00,,---,0.00,VWS V14.01,2013-02-14 20:09:00,
2013-02-14 14:10:00,24.3,6.0,28.76,NNW,338,10.5,12.3,45,0.00,,---,0.00,VWS V14.01,2013-02-14 20:10:00,
2013-02-14 14:11:00,24.3,6.0,28.76,NNW,338,10.5,10.5,45,0.00,,---,0.00,VWS V14.01,2013-02-14 20:11:00,
2013-02-14 14:12:00,24.1,5.8,28.76,NW,315,10.1,13.0,45,0.00,,---,0.00,VWS V14.01,2013-02-14 20:12:00,
2013-02-14 14:13:00,24.3,6.0,28.76,NNW,338,7.8,13.6,45,0.00,,---,0.00,VWS V14.01,2013-02-14 20:13:00,
2013-02-14 14:14:00,24.3,5.5,28.76,North,0,13.6,13.6,44,0.00,,---,0.00,VWS V14.01,2013-02-14 20:14:00,
2013-02-14 14:15:00,24.3,6.0,28.76,NNW,338,7.8,13.6,45,0.00,,---,0.00,VWS V14.01,2013-02-14 20:15:00,
2013-02-14 14:16:00,24.3,6.0,28.76,NNW,338,11.9,12.3,45,0.00,,---,0.00,VWS V14.01,2013-02-14 20:16:00,
2013-02-14 14:17:00,24.3,6.0,28.76,NNW,338,10.1,12.1,45,0.00,,---,0.00,VWS V14.01,2013-02-14 20:17:00,
2013-02-14 14:18:00,24.1,5.3,28.76,NNW,338,15.7,15.7,44,0.00,,---,0.00,VWS V14.01,2013-02-14 20:18:00,
2013-02-14 14:19:00,24.1,5.8,28.76,NNW,338,12.3,14.8,45,0.00,,---,0.00,VWS V14.01,2013-02-14 20:19:00,
2013-02-14 14:20:00,24.1,5.3,28.76,NNW,338,15.7,15.7,44,0.00,,---,0.00,VWS V14.01,2013-02-14 20:20:00,
2013-02-14 14:21:00,24.1,5.8,28.76,NNW,338,12.5,15.7,45,0.00,,---,0.00,VWS V14.01,2013-02-14 20:21:00,
2013-02-14 14:22:00,24.1,5.8,28.76,NW,315,10.5,12.5,45,0.00,,---,0.00,VWS V14.01,2013-02-14 20:22:00,
2013-02-14 14:23:00,24.3,6.0,28.76,NNE,22,10.7,10.7,45,0.00,,---,0.00,VWS V14.01,2013-02-14 20:23:00,
2013-02-14 14:24:00,24.3,6.0,28.76,WNW,292,8.5,12.3,45,0.00,,---,0.00,VWS V14.01,2013-02-14 20:24:00,
2013-02-14 14:25:00,24.3,6.0,28.76,NNE,22,10.7,10.7,45,0.00,,---,0.00,VWS V14.01,2013-02-14 20:25:00,
2013-02-14 14:26:00,24.3,6.0,28.76,NNW,338,7.6,11.9,45,0.00,,---,0.00,VWS V14.01,2013-02-14 20:26:00,
2013-02-14 14:27:00,24.3,6.0,28.76,NNW,338,8.7,10.1,45,0.00,,---,0.00,VWS V14.01,2013-02-14 20:27:00,
2013-02-14 14:28:00,24.3,6.0,28.76,NNW,338,10.1,10.1,45,0.00,,---,0.00,VWS V14.01,2013-02-14 20:28:00,
2013-02-14 14:29:00,24.3,6.0,28.76,NNW,338,10.1,10.1,45,0.00,,---,0.00,VWS V14.01,2013-02-14 20:29:00,
2013-02-14 14:30:00,24.3,6.0,28.76,NNW,338,7.8,10.1,45,0.00,,---,0.00,VWS V14.01,2013-02-14 20:30:00,
2013-02-14 14:31:00,24.3,6.0,28.76,NNW,338,14.8,14.8,45,0.00,,---,0.00,VWS V14.01,2013-02-14 20:31:00,
2013-02-14 14:32:00,24.1,5.8,28.79,NNW,338,10.1,15.7,45,0.00,,---,0.00,VWS V14.01,2013-02-14 20:32:00,
2013-02-14 14:33:00,24.1,5.8,28.79,NNW,338,6.5,10.7,45,0.00,,---,0.00,VWS V14.01,2013-02-14 20:33:00,
2013-02-14 14:34:00,24.1,5.8,28.79,NNW,338,5.8,12.8,45,0.00,,---,0.00,VWS V14.01,2013-02-14 20:34:00,
2013-02-14 14:35:00,24.1,5.8,28.79,NNW,338,6.5,10.7,45,0.00,,---,0.00,VWS V14.01,2013-02-14 20:35:00,
2013-02-14 14:36:00,24.1,6.3,28.79,NNW,338,7.8,11.0,46,0.00,,---,0.00,VWS V14.01,2013-02-14 20:36:00,
2013-02-14 14:37:00,24.3,6.5,28.79,NNE,22,5.8,8.1,46,0.00,,---,0.00,VWS V14.01,2013-02-14 20:37:00,
2013-02-14 14:38:00,24.1,6.3,28.79,NNW,338,10.5,10.5,46,0.00,,---,0.00,VWS V14.01,2013-02-14 20:38:00,
2013-02-14 14:39:00,24.1,6.3,28.79,NNW,338,9.4,11.9,46,0.00,,---,0.00,VWS V14.01,2013-02-14 20:39:00,
2013-02-14 14:40:00,24.1,6.3,28.79,NNW,338,10.5,10.5,46,0.00,,---,0.00,VWS V14.01,2013-02-14 20:40:00,
2013-02-14 14:41:00,24.1,6.3,28.79,NNW,338,7.4,10.7,46,0.00,,---,0.00,VWS V14.01,2013-02-14 20:41:00,
2013-02-14 14:42:00,24.1,6.3,28.79,NNW,338,14.1,14.1,46,0.00,,---,0.00,VWS V14.01,2013-02-14 20:42:00,
2013-02-14 14:43:00,24.1,6.3,28.79,NNW,338,8.7,8.7,46,0.00,,---,0.00,VWS V14.01,2013-02-14 20:43:00,
2013-02-14 14:44:00,24.1,6.3,28.79,NNW,338,7.8,11.0,46,0.00,,---,0.00,VWS V14.01,2013-02-14 20:44:00,
2013-02-14 14:45:00,24.1,6.3,28.79,NNW,338,8.7,8.7,46,0.00,,---,0.00,VWS V14.01,2013-02-14 20:45:00,
2013-02-14 14:46:00,24.1,6.3,28.79,NNW,338,5.6,9.6,46,0.00,,---,0.00,VWS V14.01,2013-02-14 20:46:00,
2013-02-14 14:47:00,24.1,6.3,28.82,NNW,338,10.1,11.2,46,0.00,,---,0.00,VWS V14.01,2013-02-14 20:47:00,
2013-02-14 14:48:00,24.1,6.3,28.82,NNW,338,10.7,10.7,46,0.00,,---,0.00,VWS V14.01,2013-02-14 20:48:00,
2013-02-14 14:49:00,24.1,6.3,28.82,NNW,338,11.4,12.5,46,0.00,,---,0.00,VWS V14.01,2013-02-14 20:49:00,
2013-02-14 14:50:00,24.1,6.3,28.82,NNW,338,8.1,12.8,46,0.00,,---,0.00,VWS V14.01,2013-02-14 20:50:00,
2013-02-14 14:51:00,24.1,5.8,28.82,NNW,338,8.7,10.7,45,0.00,,---,0.00,VWS V14.01,2013-02-14 20:51:00,
2013-02-14 14:52:00,24.1,6.3,28.82,NNW,338,10.1,10.3,46,0.00,,---,0.00,VWS V14.01,2013-02-14 20:52:00,
2013-02-14 14:53:00,24.1,6.3,28.82,NNW,338,10.5,10.5,46,0.00,,---,0.00,VWS V14.01,2013-02-14 20:53:00,
2013-02-14 14:54:00,24.1,6.3,28.82,NNW,338,6.5,10.5,46,0.00,,---,0.00,VWS V14.01,2013-02-14 20:54:00,
2013-02-14 14:55:00,24.1,6.3,28.82,NNW,338,10.5,10.5,46,0.00,,---,0.00,VWS V14.01,2013-02-14 20:55:00,
2013-02-14 14:56:00,24.1,6.3,28.82,NNW,338,9.4,10.5,46,0.00,,---,0.00,VWS V14.01,2013-02-14 20:56:00,
2013-02-14 14:57:00,24.1,6.3,28.82,NNW,338,9.4,10.1,46,0.00,,---,0.00,VWS V14.01,2013-02-14 20:57:00,
2013-02-14 14:58:00,23.7,6.0,28.82,North,0,5.8,8.7,46,0.00,,---,0.00,VWS V14.01,2013-02-14 20:58:00,
2013-02-14 14:59:00,23.7,6.0,28.82,NNW,338,12.3,12.5,46,0.00,,---,0.00,VWS V14.01,2013-02-14 20:59:00,
2013-02-14 15:00:00,23.7,6.0,28.82,North,0,8.7,12.8,46,0.00,,---,0.00,VWS V14.01,2013-02-14 21:00:00,
2013-02-14 15:01:00,23.7,6.0,28.82,NNW,338,11.0,11.0,46,0.00,,---,0.00,VWS V14.01,2013-02-14 21:01:00,
2013-02-14 15:02:00,23.7,6.0,28.82,NNW,338,10.5,11.0,46,0.00,,---,0.00,VWS V14.01,2013-02-14 21:02:00,
2013-02-14 15:03:00,23.5,5.3,28.82,NNW,338,13.2,13.2,45,0.00,,---,0.00,VWS V14.01,2013-02-14 21:03:00,
2013-02-14 15:04:00,23.5,5.8,28.82,NNW,338,9.6,10.5,46,0.00,,---,0.00,VWS V14.01,2013-02-14 21:04:00,
2013-02-14 15:05:00,23.5,5.8,28.82,NNW,338,12.3,13.6,46,0.00,,---,0.00,VWS V14.01,2013-02-14 21:05:00,
2013-02-14 15:06:00,23.5,5.8,28.82,NNW,338,12.3,13.2,46,0.00,,---,0.00,VWS V14.01,2013-02-14 21:06:00,
2013-02-14 15:07:00,23.5,5.3,28.82,NNW,338,12.8,12.8,45,0.00,,---,0.00,VWS V14.01,2013-02-14 21:07:00,
2013-02-14 15:08:00,23.5,5.8,28.82,NNW,338,7.8,7.8,46,0.00,,---,0.00,VWS V14.01,2013-02-14 21:08:00,
2013-02-14 15:09:00,23.5,5.8,28.82,NNW,338,7.8,10.5,46,0.00,,---,0.00,VWS V14.01,2013-02-14 21:09:00,
2013-02-14 15:10:00,23.5,5.8,28.82,NNW,338,7.8,7.8,46,0.00,,---,0.00,VWS V14.01,2013-02-14 21:10:00,
2013-02-14 15:11:00,23.5,5.3,28.82,North,0,11.2,11.2,45,0.00,,---,0.00,VWS V14.01,2013-02-14 21:11:00,
2013-02-14 15:12:00,23.5,5.3,28.82,NNW,338,10.3,12.5,45,0.00,,---,0.00,VWS V14.01,2013-02-14 21:12:00,
2013-02-14 15:13:00,23.9,6.1,28.82,NNW,338,12.3,12.3,46,0.00,,---,0.00,VWS V14.01,2013-02-14 21:13:00,
2013-02-14 15:14:00,23.9,6.1,28.82,NNW,338,7.8,9.8,46,0.00,,---,0.00,VWS V14.01,2013-02-14 21:14:00,
2013-02-14 15:15:00,23.9,6.1,28.82,NNW,338,12.3,12.3,46,0.00,,---,0.00,VWS V14.01,2013-02-14 21:15:00,
2013-02-14 15:16:00,23.9,5.7,28.82,NNW,338,10.3,12.5,45,0.00,,---,0.00,VWS V14.01,2013-02-14 21:16:00,
2013-02-14 15:17:00,23.9,5.7,28.85,NNW,338,10.5,10.5,45,0.00,,---,0.00,VWS V14.01,2013-02-14 21:17:00,
2013-02-14 15:18:00,24.1,6.3,28.85,NNW,338,6.5,8.7,46,0.00,,---,0.00,VWS V14.01,2013-02-14 21:18:00,
2013-02-14 15:19:00,24.1,6.3,28.85,NNW,338,6.0,9.2,46,0.00,,---,0.00,VWS V14.01,2013-02-14 21:19:00,
2013-02-14 15:20:00,24.1,5.8,28.85,NNW,338,8.7,8.7,45,0.00,,---,0.00,VWS V14.01,2013-02-14 21:20:00,
2013-02-14 15:21:00,24.1,6.3,28.85,NNW,338,8.5,8.7,46,0.00,,---,0.00,VWS V14.01,2013-02-14 21:21:00,
2013-02-14 15:22:00,24.1,6.3,28.85,NNW,338,4.9,8.5,46,0.00,,---,0.00,VWS V14.01,2013-02-14 21:22:00,
2013-02-14 15:23:00,24.1,6.3,28.85,NNW,338,9.8,9.8,46,0.00,,---,0.00,VWS V14.01,2013-02-14 21:23:00,
2013-02-14 15:24:00,24.1,6.3,28.85,NNW,338,9.8,11.0,46,0.00,,---,0.00,VWS V14.01,2013-02-14 21:24:00,
2013-02-14 15:25:00,24.1,6.3,28.85,NNW,338,9.0,9.8,46,0.00,,---,0.00,VWS V14.01,2013-02-14 21:25:00,
2013-02-14 15:26:00,24.3,6.5,28.85,NNW,338,8.1,10.5,46,0.00,,---,0.00,VWS V14.01,2013-02-14 21:26:00,
2013-02-14 15:27:00,24.1,5.8,28.85,NNW,338,12.3,12.8,45,0.00,,---,0.00,VWS V14.01,2013-02-14 21:27:00,
2013-02-14 15:28:00,23.9,5.7,28.85,NNW,338,10.7,11.9,45,0.00,,---,0.00,VWS V14.01,2013-02-14 21:28:00,
2013-02-14 15:29:00,23.9,5.7,28.85,NNW,338,11.4,12.3,45,0.00,,---,0.00,VWS V14.01,2013-02-14 21:29:00,
2013-02-14 15:30:00,23.9,5.7,28.85,NNW,338,11.9,13.0,45,0.00,,---,0.00,VWS V14.01,2013-02-14 21:30:00,
2013-02-14 15:31:00,23.9,5.7,28.85,NNW,338,7.8,11.9,45,0.00,,---,0.00,VWS V14.01,2013-02-14 21:31:00,
2013-02-14 15:32:00,24.1,5.8,28.85,NNW,338,7.8,8.7,45,0.00,,---,0.00,VWS V14.01,2013-02-14 21:32:00,
2013-02-14 15:33:00,24.3,6.0,28.85,NNW,338,10.7,10.7,45,0.00,,---,0.00,VWS V14.01,2013-02-14 21:33:00,
2013-02-14 15:34:00,24.3,6.0,28.85,NNW,338,7.4,12.8,45,0.00,,---,0.00,VWS V14.01,2013-02-14 21:34:00,
2013-02-14 15:35:00,24.3,6.0,28.85,NNW,338,10.7,10.7,45,0.00,,---,0.00,VWS V14.01,2013-02-14 21:35:00,
2013-02-14 15:36:00,24.4,6.2,28.85,NNW,338,10.3,10.7,45,0.00,,---,0.00,VWS V14.01,2013-02-14 21:36:00,
2013-02-14 15:37:00,24.4,5.7,28.85,NNW,338,10.5,10.7,44,0.00,,---,0.00,VWS V14.01,2013-02-14 21:37:00,
2013-02-14 15:38:00,24.4,5.7,28.85,NNW,338,10.1,10.1,44,0.00,,---,0.00,VWS V14.01,2013-02-14 21:38:00,
2013-02-14 15:39:00,24.4,5.7,28.85,NNW,338,7.8,10.7,44,0.00,,---,0.00,VWS V14.01,2013-02-14 21:39:00,
2013-02-14 15:40:00,24.4,5.7,28.85,NNW,338,9.6,12.8,44,0.00,,---,0.00,VWS V14.01,2013-02-14 21:40:00,
2013-02-14 15:41:00,24.4,5.7,28.85,NNW,338,5.4,10.1,44,0.00,,---,0.00,VWS V14.01,2013-02-14 21:41:00,
2013-02-14 15:42:00,24.4,5.7,28.85,NNW,338,7.6,9.6,44,0.00,,---,0.00,VWS V14.01,2013-02-14 21:42:00,
2013-02-14 15:43:00,24.4,5.7,28.85,NNW,338,8.7,8.7,44,0.00,,---,0.00,VWS V14.01,2013-02-14 21:43:00,
2013-02-14 15:44:00,24.4,5.7,28.85,NNW,338,5.6,8.5,44,0.00,,---,0.00,VWS V14.01,2013-02-14 21:44:00,
2013-02-14 15:45:00,24.4,5.7,28.85,NNW,338,8.5,10.7,44,0.00,,---,0.00,VWS V14.01,2013-02-14 21:45:00,
2013-02-14 15:46:00,24.4,5.7,28.85,North,0,7.4,9.8,44,0.00,,---,0.00,VWS V14.01,2013-02-14 21:46:00,
2013-02-14 15:47:00,24.4,5.7,28.85,NNW,338,7.4,9.6,44,0.00,,---,0.00,VWS V14.01,2013-02-14 21:47:00,
2013-02-14 15:48:00,24.3,6.0,28.85,NNW,338,11.0,11.0,45,0.00,,---,0.00,VWS V14.01,2013-02-14 21:48:00,
2013-02-14 15:49:00,24.4,6.2,28.85,NNW,338,10.7,10.7,45,0.00,,---,0.00,VWS V14.01,2013-02-14 21:49:00,
2013-02-14 15:50:00,24.3,5.5,28.85,North,0,6.5,10.7,44,0.00,,---,0.00,VWS V14.01,2013-02-14 21:50:00,
2013-02-14 15:51:00,24.3,6.0,28.85,NW,315,6.5,11.0,45,0.00,,---,0.00,VWS V14.01,2013-02-14 21:51:00,
2013-02-14 15:52:00,18.3,4.9,28.88,NW,315,12.5,12.5,55,0.00,,---,0.00,VWS V14.01,2013-02-14 21:52:00,
2013-02-14 15:53:00,23.9,5.2,28.85,NNW,338,6.9,13.0,44,0.00,,---,0.00,VWS V14.01,2013-02-14 21:53:00,
2013-02-14 15:54:00,24.1,5.3,28.85,NNW,338,10.7,10.7,44,0.00,,---,0.00,VWS V14.01,2013-02-14 21:54:00,
2013-02-14 15:55:00,23.9,5.2,28.85,NW,315,13.0,13.0,44,0.00,,---,0.00,VWS V14.01,2013-02-14 21:55:00,
2013-02-14 15:56:00,23.9,5.2,28.85,NNW,338,6.7,13.0,44,0.00,,---,0.00,VWS V14.01,2013-02-14 21:56:00,
2013-02-14 15:57:00,23.9,5.7,28.85,NW,315,5.8,13.0,45,0.00,,---,0.00,VWS V14.01,2013-02-14 21:57:00,
2013-02-14 15:58:00,23.9,5.7,28.85,NNW,338,6.0,6.0,45,0.00,,---,0.00,VWS V14.01,2013-02-14 21:58:00,
2013-02-14 15:59:00,23.9,5.7,28.85,NW,315,7.4,8.7,45,0.00,,---,0.00,VWS V14.01,2013-02-14 21:59:00,
2013-02-14 16:00:00,23.9,5.7,28.85,NNW,338,6.0,7.4,45,0.00,,---,0.00,VWS V14.01,2013-02-14 22:00:00,
2013-02-14 16:01:00,23.9,5.7,28.85,NW,315,5.6,6.0,45,0.00,,---,0.00,VWS V14.01,2013-02-14 22:01:00,
2013-02-14 16:02:00,23.7,5.5,28.85,NNW,338,7.8,7.8,45,0.00,,---,0.00,VWS V14.01,2013-02-14 22:02:00,
2013-02-14 16:03:00,23.7,5.5,28.85,NW,315,10.3,10.3,45,0.00,,---,0.00,VWS V14.01,2013-02-14 22:03:00,
2013-02-14 16:04:00,23.7,5.5,28.85,NW,315,7.6,10.5,45,0.00,,---,0.00,VWS V14.01,2013-02-14 22:04:00,
2013-02-14 16:05:00,23.7,5.5,28.85,NW,315,10.3,10.3,45,0.00,,---,0.00,VWS V14.01,2013-02-14 22:05:00,
2013-02-14 16:06:00,23.5,6.3,28.85,NW,315,10.3,10.3,47,0.00,,---,0.00,VWS V14.01,2013-02-14 22:06:00,
2013-02-14 16:07:00,23.5,6.3,28.85,NNW,338,8.5,10.3,47,0.00,,---,0.00,VWS V14.01,2013-02-14 22:07:00,
2013-02-14 16:08:00,23.4,6.6,28.85,WNW,292,13.0,13.0,48,0.00,,---,0.00,VWS V14.01,2013-02-14 22:08:00,
2013-02-14 16:09:00,23.4,6.6,28.85,NNW,338,8.5,8.7,48,0.00,,---,0.00,VWS V14.01,2013-02-14 22:09:00,
2013-02-14 16:10:00,23.4,6.6,28.85,NNW,338,9.8,10.3,48,0.00,,---,0.00,VWS V14.01,2013-02-14 22:10:00,
2013-02-14 16:11:00,23.4,7.0,28.85,North,0,12.1,13.0,49,0.00,,---,0.00,VWS V14.01,2013-02-14 22:11:00,
2013-02-14 16:12:00,23.2,6.9,28.85,NW,315,8.1,12.1,49,0.00,,---,0.00,VWS V14.01,2013-02-14 22:12:00,
2013-02-14 16:13:00,22.6,6.8,28.85,NW,315,10.3,11.9,50,0.00,,---,0.00,VWS V14.01,2013-02-14 22:13:00,
2013-02-14 16:14:00,22.8,7.0,28.85,NW,315,10.1,13.2,50,0.00,,---,0.00,VWS V14.01,2013-02-14 22:14:00,
2013-02-14 16:15:00,22.6,6.8,28.85,WNW,292,11.0,12.3,50,0.00,,---,0.00,VWS V14.01,2013-02-14 22:15:00,
2013-02-14 16:16:00,22.6,6.8,28.85,NNW,338,9.6,11.9,50,0.00,,---,0.00,VWS V14.01,2013-02-14 22:16:00,
2013-02-14 16:17:00,22.5,6.6,28.85,WNW,292,10.1,13.2,50,0.00,,---,0.00,VWS V14.01,2013-02-14 22:17:00,
2013-02-14 16:18:00,21.9,7.0,28.85,NW,315,10.7,12.3,52,0.00,,---,0.00,VWS V14.01,2013-02-14 22:18:00,
2013-02-14 16:19:00,22.1,6.7,28.85,WNW,292,10.3,13.6,51,0.00,,---,0.00,VWS V14.01,2013-02-14 22:19:00,
2013-02-14 16:20:00,21.9,6.6,28.85,WNW,292,12.3,13.0,51,0.00,,---,0.00,VWS V14.01,2013-02-14 22:20:00,
2013-02-14 16:21:00,21.7,6.8,28.85,NW,315,9.0,12.5,52,0.00,,---,0.00,VWS V14.01,2013-02-14 22:21:00,
2013-02-14 16:22:00,21.6,6.7,28.85,NNW,338,10.3,13.2,52,0.00,,---,0.00,VWS V14.01,2013-02-14 22:22:00,
2013-02-14 16:23:00,21.2,6.8,28.85,WNW,292,14.3,14.3,53,0.00,,---,0.00,VWS V14.01,2013-02-14 22:23:00,
2013-02-14 16:24:00,21.2,6.8,28.85,WNW,292,13.2,17.2,53,0.00,,---,0.00,VWS V14.01,2013-02-14 22:24:00,
2013-02-14 16:25:00,21.2,6.8,28.85,NW,315,8.7,13.2,53,0.00,,---,0.00,VWS V14.01,2013-02-14 22:25:00,
2013-02-14 16:26:00,21.2,6.8,28.85,WNW,292,13.0,15.7,53,0.00,,---,0.00,VWS V14.01,2013-02-14 22:26:00,
2013-02-14 16:27:00,21.0,6.6,28.85,NW,315,14.8,14.8,53,0.00,,---,0.00,VWS V14.01,2013-02-14 22:27:00,
2013-02-14 16:28:00,20.7,6.2,28.85,NW,315,13.0,13.2,53,0.00,,---,0.00,VWS V14.01,2013-02-14 22:28:00,
2013-02-14 16:29:00,20.8,6.4,28.85,NW,315,8.7,10.7,53,0.00,,---,0.00,VWS V14.01,2013-02-14 22:29:00,
2013-02-14 16:30:00,20.7,6.2,28.85,NW,315,13.2,15.7,53,0.00,,---,0.00,VWS V14.01,2013-02-14 22:30:00,
2013-02-14 16:31:00,20.7,6.2,28.85,NW,315,14.1,14.8,53,0.00,,---,0.00,VWS V14.01,2013-02-14 22:31:00,
2013-02-14 16:32:00,20.5,6.1,28.88,NNW,338,12.8,17.5,53,0.00,,---,0.00,VWS V14.01,2013-02-14 22:32:00,
2013-02-14 16:33:00,20.1,6.2,28.88,NW,315,10.7,13.2,54,0.00,,---,0.00,VWS V14.01,2013-02-14 22:33:00,
2013-02-14 16:34:00,20.3,6.3,28.88,NW,315,12.8,15.4,54,0.00,,---,0.00,VWS V14.01,2013-02-14 22:34:00,
2013-02-14 16:35:00,20.3,6.3,28.88,NNW,338,13.2,13.2,54,0.00,,---,0.00,VWS V14.01,2013-02-14 22:35:00,
2013-02-14 16:36:00,20.1,6.2,28.88,NW,315,14.8,14.8,54,0.00,,---,0.00,VWS V14.01,2013-02-14 22:36:00,
2013-02-14 16:37:00,19.8,5.8,28.88,NW,315,10.3,14.8,54,0.00,,---,0.00,VWS V14.01,2013-02-14 22:37:00,
2013-02-14 16:38:00,19.4,5.5,28.88,NW,315,14.5,14.5,54,0.00,,---,0.00,VWS V14.01,2013-02-14 22:38:00,
2013-02-14 16:39:00,19.4,5.5,28.88,WNW,292,14.1,14.1,54,0.00,,---,0.00,VWS V14.01,2013-02-14 22:39:00,
2013-02-14 16:40:00,19.4,5.5,28.88,NW,315,14.5,14.5,54,0.00,,---,0.00,VWS V14.01,2013-02-14 22:40:00,
2013-02-14 16:41:00,19.2,5.3,28.88,NNW,338,10.1,14.8,54,0.00,,---,0.00,VWS V14.01,2013-02-14 22:41:00,
2013-02-14 16:42:00,19.2,5.3,28.88,NW,315,14.3,14.3,54,0.00,,---,0.00,VWS V14.01,2013-02-14 22:42:00,
2013-02-14 16:43:00,18.9,5.4,28.88,NW,315,13.0,13.0,55,0.00,,---,0.00,VWS V14.01,2013-02-14 22:43:00,
2013-02-14 16:44:00,19.0,5.6,28.88,NW,315,12.1,14.5,55,0.00,,---,0.00,VWS V14.01,2013-02-14 22:44:00,
2013-02-14 16:45:00,18.9,5.4,28.88,NNW,338,13.0,17.2,55,0.00,,---,0.00,VWS V14.01,2013-02-14 22:45:00,
2013-02-14 16:46:00,18.7,5.2,28.88,NNW,338,9.4,13.0,55,0.00,,---,0.00,VWS V14.01,2013-02-14 22:46:00,
2013-02-14 16:47:00,18.7,5.2,28.88,NW,315,10.1,10.1,55,0.00,,---,0.00,VWS V14.01,2013-02-14 22:47:00,
2013-02-14 16:48:00,18.3,4.9,28.88,NW,315,13.0,13.2,55,0.00,,---,0.00,VWS V14.01,2013-02-14 22:48:00,
2013-02-14 16:49:00,18.5,5.0,28.88,NNW,338,9.8,13.0,55,0.00,,---,0.00,VWS V14.01,2013-02-14 22:49:00,
2013-02-14 16:50:00,18.3,4.9,28.88,NW,315,13.2,13.2,55,0.00,,---,0.00,VWS V14.01,2013-02-14 22:50:00,
2013-02-14 16:51:00,18.3,4.9,28.88,NW,315,11.4,13.2,55,0.00,,---,0.00,VWS V14.01,2013-02-14 22:51:00,
2013-02-14 16:52:00,18.3,4.9,28.88,NW,315,12.5,12.5,55,0.00,,---,0.00,VWS V14.01,2013-02-14 22:52:00,
2013-02-14 16:53:00,18.1,4.7,28.88,NW,315,8.7,13.0,55,0.00,,---,0.00,VWS V14.01,2013-02-14 22:53:00,
2013-02-14 16:54:00,18.1,4.7,28.88,NW,315,10.3,12.3,55,0.00,,---,0.00,VWS V14.01,2013-02-14 22:54:00,
2013-02-14 16:55:00,18.1,4.7,28.88,NW,315,12.8,12.8,55,0.00,,---,0.00,VWS V14.01,2013-02-14 22:55:00,
2013-02-14 16:56:00,18.1,4.7,28.88,NW,315,13.2,13.2,55,0.00,,---,0.00,VWS V14.01,2013-02-14 22:56:00,
2013-02-14 16:57:00,18.1,4.7,28.88,NW,315,14.8,14.8,55,0.00,,---,0.00,VWS V14.01,2013-02-14 22:57:00,
2013-02-14 16:58:00,18.0,4.5,28.88,NNW,338,13.2,13.2,55,0.00,,---,0.00,VWS V14.01,2013-02-14 22:58:00,
2013-02-14 16:59:00,18.0,4.5,28.88,NNW,338,10.7,11.0,55,0.00,,---,0.00,VWS V14.01,2013-02-14 22:59:00,
2013-02-14 17:00:00,18.0,4.5,28.88,NNW,338,13.2,13.2,55,0.00,,---,0.00,VWS V14.01,2013-02-14 23:00:00,
2013-02-14 17:01:00,18.0,4.5,28.88,NNW,338,13.2,13.2,55,0.00,,---,0.00,VWS V14.01,2013-02-14 23:01:00,
2013-02-14 17:02:00,11.3,-0.6,28.91,NNW,338,10.1,13.0,58,0.00,,---,0.00,VWS V14.01,2013-02-14 23:02:00,
2013-02-14 17:03:00,17.4,4.0,28.91,WNW,292,12.8,13.9,55,0.00,,---,0.00,VWS V14.01,2013-02-14 23:03:00,
2013-02-14 17:04:00,18.0,4.5,28.91,NW,315,11.4,13.2,55,0.00,,---,0.00,VWS V14.01,2013-02-14 23:04:00,
2013-02-14 17:05:00,18.0,4.5,28.91,WNW,292,13.9,15.2,55,0.00,,---,0.00,VWS V14.01,2013-02-14 23:05:00,
2013-02-14 17:06:00,17.4,4.0,28.91,NW,315,11.0,13.9,55,0.00,,---,0.00,VWS V14.01,2013-02-14 23:06:00,
2013-02-14 17:07:00,17.2,3.9,28.91,NNW,338,12.3,12.5,55,0.00,,---,0.00,VWS V14.01,2013-02-14 23:07:00,
2013-02-14 17:08:00,16.7,3.3,28.91,NW,315,6.5,10.1,55,0.00,,---,0.00,VWS V14.01,2013-02-14 23:08:00,
2013-02-14 17:09:00,17.1,3.7,28.91,NW,315,12.1,12.1,55,0.00,,---,0.00,VWS V14.01,2013-02-14 23:09:00,
2013-02-14 17:10:00,16.9,3.5,28.91,NNW,338,10.1,12.5,55,0.00,,---,0.00,VWS V14.01,2013-02-14 23:10:00,
2013-02-14 17:11:00,16.7,3.3,28.91,NNW,338,14.5,14.5,55,0.00,,---,0.00,VWS V14.01,2013-02-14 23:11:00,
2013-02-14 17:12:00,16.7,3.3,28.91,NNW,338,10.7,14.5,55,0.00,,---,0.00,VWS V14.01,2013-02-14 23:12:00,
2013-02-14 17:13:00,16.2,2.8,28.91,NW,315,7.8,7.8,55,0.00,,---,0.00,VWS V14.01,2013-02-14 23:13:00,
2013-02-14 17:14:00,16.3,3.0,28.91,WNW,292,8.7,11.0,55,0.00,,---,0.00,VWS V14.01,2013-02-14 23:14:00,
2013-02-14 17:15:00,16.2,2.8,28.91,NW,315,5.8,12.3,55,0.00,,---,0.00,VWS V14.01,2013-02-14 23:15:00,
2013-02-14 17:16:00,16.2,2.8,28.91,NNW,338,8.1,8.1,55,0.00,,---,0.00,VWS V14.01,2013-02-14 23:16:00,
2013-02-14 17:17:00,16.0,2.7,28.91,NNW,338,12.1,12.1,55,0.00,,---,0.00,VWS V14.01,2013-02-14 23:17:00,
2013-02-14 17:18:00,15.8,2.9,28.91,NNW,338,13.0,13.0,56,0.00,,---,0.00,VWS V14.01,2013-02-14 23:18:00,
2013-02-14 17:19:00,15.8,2.9,28.91,NNW,338,10.5,13.2,56,0.00,,---,0.00,VWS V14.01,2013-02-14 23:19:00,
2013-02-14 17:20:00,10.2,-1.6,28.91,NW,315,10.3,12.5,58,0.00,,---,0.00,VWS V14.01,2013-02-14 23:20:00,
2013-02-14 17:21:00,15.8,2.9,28.91,WNW,292,8.5,13.0,56,0.00,,---,0.00,VWS V14.01,2013-02-14 23:21:00,
2013-02-14 17:22:00,15.6,2.7,28.91,NNW,338,9.6,10.5,56,0.00,,---,0.00,VWS V14.01,2013-02-14 23:22:00,
2013-02-14 17:23:00,15.1,2.6,28.91,WNW,292,11.0,11.0,57,0.00,,---,0.00,VWS V14.01,2013-02-14 23:23:00,
2013-02-14 17:24:00,15.3,2.8,28.91,WNW,292,10.5,10.5,57,0.00,,---,0.00,VWS V14.01,2013-02-14 23:24:00,
2013-02-14 17:25:00,15.1,2.6,28.91,NNW,338,8.5,10.5,57,0.00,,---,0.00,VWS V14.01,2013-02-14 23:25:00,
2013-02-14 17:26:00,15.1,2.6,28.91,NW,315,10.7,11.0,57,0.00,,---,0.00,VWS V14.01,2013-02-14 23:26:00,
2013-02-14 17:27:00,14.9,2.4,28.91,NNW,338,10.1,10.7,57,0.00,,---,0.00,VWS V14.01,2013-02-14 23:27:00,
2013-02-14 17:28:00,14.5,2.1,28.91,NNW,338,7.8,9.8,57,0.00,,---,0.00,VWS V14.01,2013-02-14 23:28:00,
2013-02-14 17:29:00,14.5,2.1,28.91,NW,315,9.6,15.4,57,0.00,,---,0.00,VWS V14.01,2013-02-14 23:29:00,
2013-02-14 17:30:00,14.5,2.1,28.91,NNW,338,9.8,13.2,57,0.00,,---,0.00,VWS V14.01,2013-02-14 23:30:00,
2013-02-14 17:31:00,14.4,1.9,28.91,NNW,338,7.2,9.8,57,0.00,,---,0.00,VWS V14.01,2013-02-14 23:31:00,
2013-02-14 17:32:00,14.4,1.9,28.94,NNW,338,7.4,10.3,57,0.00,,---,0.00,VWS V14.01,2013-02-14 23:32:00,
2013-02-14 17:33:00,14.0,2.0,28.94,NNW,338,15.2,15.2,58,0.00,,---,0.00,VWS V14.01,2013-02-14 23:33:00,
2013-02-14 17:34:00,14.2,2.1,28.94,NW,315,8.7,10.5,58,0.00,,---,0.00,VWS V14.01,2013-02-14 23:34:00,
2013-02-14 17:35:00,8.8,-3.0,28.94,NNW,338,8.5,11.9,58,0.00,,---,0.00,VWS V14.01,2013-02-14 23:35:00,
2013-02-14 17:36:00,14.0,2.0,28.94,NNW,338,15.2,15.2,58,0.00,,---,0.00,VWS V14.01,2013-02-14 23:36:00,
2013-02-14 17:37:00,13.6,1.6,28.94,WNW,292,11.0,15.2,58,0.00,,---,0.00,VWS V14.01,2013-02-14 23:37:00,
2013-02-14 17:38:00,13.3,1.3,28.94,NNW,338,8.5,8.5,58,0.00,,---,0.00,VWS V14.01,2013-02-14 23:38:00,
2013-02-14 17:39:00,13.5,1.5,28.94,WNW,292,8.1,9.0,58,0.00,,---,0.00,VWS V14.01,2013-02-14 23:39:00,
2013-02-14 17:40:00,13.5,1.5,28.94,NNW,338,8.5,10.5,58,0.00,,---,0.00,VWS V14.01,2013-02-14 23:40:00,
2013-02-14 17:41:00,13.3,1.3,28.94,NNW,338,8.5,12.5,58,0.00,,---,0.00,VWS V14.01,2013-02-14 23:41:00,
2013-02-14 17:42:00,12.9,0.9,28.94,NNW,338,9.0,9.0,58,0.00,,---,0.00,VWS V14.01,2013-02-14 23:42:00,
2013-02-14 17:43:00,12.7,0.8,28.94,NNW,338,8.7,12.8,58,0.00,,---,0.00,VWS V14.01,2013-02-14 23:43:00,
2013-02-14 17:44:00,12.9,0.9,28.94,NW,315,12.8,12.8,58,0.00,,---,0.00,VWS V14.01,2013-02-14 23:44:00,
2013-02-14 17:45:00,12.7,0.8,28.94,NW,315,9.0,12.8,58,0.00,,---,0.00,VWS V14.01,2013-02-14 23:45:00,
2013-02-14 17:46:00,12.7,0.8,28.94,North,0,11.0,11.0,58,0.00,,---,0.00,VWS V14.01,2013-02-14 23:46:00,
2013-02-14 17:47:00,12.6,0.6,28.94,WNW,292,8.5,11.0,58,0.00,,---,0.00,VWS V14.01,2013-02-14 23:47:00,
2013-02-14 17:48:00,12.2,0.3,28.91,NW,315,10.5,10.5,58,0.00,,---,0.00,VWS V14.01,2013-02-14 23:48:00,
2013-02-14 17:49:00,12.4,0.4,28.91,NNW,338,13.0,13.0,58,0.00,,---,0.00,VWS V14.01,2013-02-14 23:49:00,
2013-02-14 17:50:00,12.2,0.3,28.91,NNW,338,10.5,13.0,58,0.00,,---,0.00,VWS V14.01,2013-02-14 23:50:00,
2013-02-14 17:51:00,12.2,0.3,28.91,WNW,292,10.7,10.7,58,0.00,,---,0.00,VWS V14.01,2013-02-14 23:51:00,
2013-02-14 17:52:00,12.2,0.3,28.91,NW,315,10.1,10.7,58,0.00,,---,0.00,VWS V14.01,2013-02-14 23:52:00,
2013-02-14 17:53:00,11.8,-0.1,28.91,NNW,338,8.7,10.1,58,0.00,,---,0.00,VWS V14.01,2013-02-14 23:53:00,
2013-02-14 17:54:00,11.8,-0.1,28.91,WNW,292,7.8,12.8,58,0.00,,---,0.00,VWS V14.01,2013-02-14 23:54:00,
2013-02-14 17:55:00,11.8,-0.1,28.91,NW,315,6.9,12.1,58,0.00,,---,0.00,VWS V14.01,2013-02-14 23:55:00,
2013-02-14 17:56:00,11.8,-0.1,28.91,NW,315,7.8,10.1,58,0.00,,---,0.00,VWS V14.01,2013-02-14 23:56:00,
2013-02-14 17:57:00,11.7,-0.2,28.91,NW,315,8.5,11.9,58,0.00,,---,0.00,VWS V14.01,2013-02-14 23:57:00,
2013-02-14 17:58:00,11.3,-0.6,28.91,NW,315,12.5,12.5,58,0.00,,---,0.00,VWS V14.01,2013-02-14 23:58:00,
2013-02-14 17:59:00,11.5,-0.4,28.91,NNW,338,6.7,9.4,58,0.00,,---,0.00,VWS V14.01,2013-02-14 23:59:00,
2013-02-14 18:00:00,11.3,-0.6,28.91,NW,315,12.5,12.5,58,0.00,,---,0.00,VWS V14.01,2013-02-15 00:00:00,
2013-02-14 18:01:00,11.3,-0.6,28.91,NNW,338,12.5,15.2,58,0.00,,---,0.00,VWS V14.01,2013-02-15 00:01:00,
2013-02-14 18:02:00,11.3,-0.6,28.91,NNW,338,10.1,13.0,58,0.00,,---,0.00,VWS V14.01,2013-02-15 00:02:00,
2013-02-14 18:03:00,11.1,-0.8,28.91,NW,315,14.8,14.8,58,0.00,,---,0.00,VWS V14.01,2013-02-15 00:03:00,
2013-02-14 18:04:00,11.1,-0.8,28.91,NNW,338,9.6,11.4,58,0.00,,---,0.00,VWS V14.01,2013-02-15 00:04:00,
2013-02-14 18:05:00,11.1,-0.8,28.91,NW,315,9.6,14.5,58,0.00,,---,0.00,VWS V14.01,2013-02-15 00:05:00,
2013-02-14 18:06:00,11.1,-0.8,28.91,NW,315,10.7,14.8,58,0.00,,---,0.00,VWS V14.01,2013-02-15 00:06:00,
2013-02-14 18:07:00,10.9,-0.9,28.91,WNW,292,11.9,14.5,58,0.00,,---,0.00,VWS V14.01,2013-02-15 00:07:00,
2013-02-14 18:08:00,10.8,-1.1,28.91,NW,315,15.4,15.4,58,0.00,,---,0.00,VWS V14.01,2013-02-15 00:08:00,
2013-02-14 18:09:00,10.8,-1.1,28.91,WNW,292,12.5,12.5,58,0.00,,---,0.00,VWS V14.01,2013-02-15 00:09:00,
2013-02-14 18:10:00,10.8,-1.1,28.91,NW,315,14.5,17.5,58,0.00,,---,0.00,VWS V14.01,2013-02-15 00:10:00,
2013-02-14 18:11:00,10.8,-1.1,28.91,NW,315,12.5,15.4,58,0.00,,---,0.00,VWS V14.01,2013-02-15 00:11:00,
2013-02-14 18:12:00,10.8,-1.1,28.91,NW,315,12.5,12.5,58,0.00,,---,0.00,VWS V14.01,2013-02-15 00:12:00,
2013-02-14 18:13:00,10.4,-1.4,28.91,NNW,338,11.0,14.8,58,0.00,,---,0.00,VWS V14.01,2013-02-15 00:13:00,
2013-02-14 18:14:00,10.4,-1.4,28.91,NW,315,17.2,17.2,58,0.00,,---,0.00,VWS V14.01,2013-02-15 00:14:00,
2013-02-14 18:15:00,10.4,-1.4,28.91,NW,315,14.8,17.2,58,0.00,,---,0.00,VWS V14.01,2013-02-15 00:15:00,
2013-02-14 18:16:00,10.4,-1.4,28.91,NW,315,15.9,15.9,58,0.00,,---,0.00,VWS V14.01,2013-02-15 00:16:00,
2013-02-14 18:17:00,10.4,-1.4,28.91,WNW,292,10.3,15.9,58,0.00,,---,0.00,VWS V14.01,2013-02-15 00:17:00,
2013-02-14 18:18:00,10.0,-1.8,28.91,WNW,292,12.5,12.5,58,0.00,,---,0.00,VWS V14.01,2013-02-15 00:18:00,
2013-02-14 18:19:00,10.2,-1.6,28.91,NNW,338,12.5,13.2,58,0.00,,---,0.00,VWS V14.01,2013-02-15 00:19:00,
2013-02-14 18:20:00,10.2,-1.6,28.91,NW,315,10.3,12.5,58,0.00,,---,0.00,VWS V14.01,2013-02-15 00:20:00,
2013-02-14 18:21:00,10.0,-1.8,28.91,NNW,338,12.1,12.5,58,0.00,,---,0.00,VWS V14.01,2013-02-15 00:21:00,
2013-02-14 18:22:00,9.9,-2.0,28.91,NW,315,10.7,12.1,58,0.00,,---,0.00,VWS V14.01,2013-02-15 00:22:00,
2013-02-14 18:23:00,9.3,-2.5,28.91,NW,315,10.5,13.2,58,0.00,,---,0.00,VWS V14.01,2013-02-15 00:23:00,
2013-02-14 18:24:00,9.5,-2.3,28.91,NW,315,10.7,12.5,58,0.00,,---,0.00,VWS V14.01,2013-02-15 00:24:00,
2013-02-14 18:25:00,9.5,-2.3,28.91,NNW,338,10.5,12.8,58,0.00,,---,0.00,VWS V14.01,2013-02-15 00:25:00,
2013-02-14 18:26:00,9.3,-2.5,28.91,WNW,292,12.8,13.2,58,0.00,,---,0.00,VWS V14.01,2013-02-15 00:26:00,
2013-02-14 18:27:00,9.3,-2.5,28.91,NNW,338,12.1,12.8,58,0.00,,---,0.00,VWS V14.01,2013-02-15 00:27:00,
2013-02-14 18:28:00,9.1,-2.6,28.91,NNW,338,6.5,7.4,58,0.00,,---,0.00,VWS V14.01,2013-02-15 00:28:00,
2013-02-14 18:30:00,9.1,-2.6,28.91,NNW,338,7.4,11.0,58,0.00,,---,0.00,VWS V14.01,2013-02-15 00:30:00,
2013-02-14 18:31:00,9.0,-2.8,28.91,NW,315,15.2,15.2,58,0.00,,---,0.00,VWS V14.01,2013-02-15 00:31:00,
2013-02-14 18:32:00,9.0,-2.8,28.94,NNW,338,6.5,15.2,58,0.00,,---,0.00,VWS V14.01,2013-02-15 00:32:00,
2013-02-14 18:33:00,8.8,-3.0,28.94,NW,315,11.0,11.2,58,0.00,,---,0.00,VWS V14.01,2013-02-15 00:33:00,
2013-02-14 18:34:00,9.0,-2.8,28.94,NNW,338,8.1,8.1,58,0.00,,---,0.00,VWS V14.01,2013-02-15 00:34:00,
2013-02-14 18:35:00,8.8,-3.0,28.94,NNW,338,8.5,11.9,58,0.00,,---,0.00,VWS V14.01,2013-02-15 00:35:00,
2013-02-14 18:36:00,8.8,-3.0,28.94,NW,315,7.4,11.2,58,0.00,,---,0.00,VWS V14.01,2013-02-15 00:36:00,
2013-02-14 18:37:00,8.8,-3.0,28.94,NNW,338,7.6,12.1,58,0.00,,---,0.00,VWS V14.01,2013-02-15 00:37:00,
2013-02-14 18:38:00,8.6,-3.1,28.94,NW,315,7.8,7.8,58,0.00,,---,0.00,VWS V14.01,2013-02-15 00:38:00,
2013-02-14 18:39:00,8.6,-3.1,28.94,NNE,22,7.6,12.3,58,0.00,,---,0.00,VWS V14.01,2013-02-15 00:39:00,
2013-02-14 18:40:00,8.6,-3.1,28.94,NW,315,7.4,8.7,58,0.00,,---,0.00,VWS V14.01,2013-02-15 00:40:00,
2013-02-14 18:41:00,8.6,-3.1,28.94,NNW,338,10.1,10.1,58,0.00,,---,0.00,VWS V14.01,2013-02-15 00:41:00,
2013-02-14 18:42:00,8.6,-3.1,28.94,WNW,292,12.5,12.5,58,0.00,,---,0.00,VWS V14.01,2013-02-15 00:42:00,
2013-02-14 18:43:00,8.4,-3.3,28.94,NW,315,5.8,12.5,58,0.00,,---,0.00,VWS V14.01,2013-02-15 00:43:00,
2013-02-14 18:44:00,8.4,-3.3,28.94,NNW,338,6.5,12.3,58,0.00,,---,0.00,VWS V14.01,2013-02-15 00:44:00,
2013-02-14 18:45:00,8.4,-3.3,28.94,NNW,338,10.5,10.5,58,0.00,,---,0.00,VWS V14.01,2013-02-15 00:45:00,
2013-02-14 18:46:00,8.4,-3.3,28.94,NNW,338,6.5,12.3,58,0.00,,---,0.00,VWS V14.01,2013-02-15 00:46:00,
2013-02-14 18:47:00,8.4,-3.3,28.94,NNW,338,7.8,7.8,58,0.00,,---,0.00,VWS V14.01,2013-02-15 00:47:00,
2013-02-14 18:48:00,8.4,-3.3,28.97,NNW,338,7.2,10.5,58,0.00,,---,0.00,VWS V14.01,2013-02-15 00:48:00,
2013-02-14 18:49:00,8.2,-3.5,28.97,NNW,338,5.6,7.8,58,0.00,,---,0.00,VWS V14.01,2013-02-15 00:49:00,
2013-02-14 18:50:00,8.2,-3.5,28.97,NNW,338,7.6,12.8,58,0.00,,---,0.00,VWS V14.01,2013-02-15 00:50:00,
2013-02-14 18:51:00,8.2,-3.5,28.97,NW,315,7.8,7.8,58,0.00,,---,0.00,VWS V14.01,2013-02-15 00:51:00,
2013-02-14 18:52:00,8.1,-3.7,28.97,NW,315,7.8,12.8,58,0.00,,---,0.00,VWS V14.01,2013-02-15 00:52:00,
2013-02-14 18:53:00,8.1,-3.7,28.97,NW,315,11.4,12.3,58,0.00,,---,0.00,VWS V14.01,2013-02-15 00:53:00,
2013-02-14 18:54:00,8.1,-3.7,28.97,NW,315,7.8,7.8,58,0.00,,---,0.00,VWS V14.01,2013-02-15 00:54:00,
2013-02-14 18:55:00,8.1,-3.7,28.97,NW,315,7.8,7.8,58,0.00,,---,0.00,VWS V14.01,2013-02-15 00:55:00,
2013-02-14 18:56:00,8.1,-3.7,28.97,NW,315,7.6,7.8,58,0.00,,---,0.00,VWS V14.01,2013-02-15 00:56:00,
2013-02-14 18:57:00,8.1,-3.7,28.97,NNW,338,8.1,10.1,58,0.00,,---,0.00,VWS V14.01,2013-02-15 00:57:00,
2013-02-14 18:58:00,8.1,-3.7,28.97,NNW,338,6.5,8.1,58,0.00,,---,0.00,VWS V14.01,2013-02-15 00:58:00,
2013-02-14 18:59:00,7.9,-3.8,28.97,NNW,338,7.2,7.2,58,0.00,,---,0.00,VWS V14.01,2013-02-15 00:59:00,
2013-02-14 19:00:00,7.9,-3.8,28.97,NNW,338,7.2,8.5,58,0.00,,---,0.00,VWS V14.01,2013-02-15 01:00:00,
2013-02-14 19:01:00,7.9,-3.8,28.97,NNW,338,7.2,7.2,58,0.00,,---,0.00,VWS V14.01,2013-02-15 01:01:00,
2013-02-14 19:02:00,7.9,-3.8,28.97,NNW,338,7.4,8.1,58,0.00,,---,0.00,VWS V14.01,2013-02-15 01:02:00,
2013-02-14 19:03:00,7.9,-3.8,28.97,NNW,338,6.0,7.4,58,0.00,,---,0.00,VWS V14.01,2013-02-15 01:03:00,
2013-02-14 19:04:00,7.9,-3.8,28.97,NNW,338,6.5,7.8,58,0.00,,---,0.00,VWS V14.01,2013-02-15 01:04:00,
2013-02-14 19:05:00,7.9,-3.8,28.97,NNW,338,7.2,7.8,58,0.00,,---,0.00,VWS V14.01,2013-02-15 01:05:00,
2013-02-14 19:07:00,7.9,-3.8,28.97,NW,315,6.9,7.8,58,0.00,,---,0.00,VWS V14.01,2013-02-15 01:07:00,
2013-02-14 19:08:00,7.7,-4.0,28.97,NW,315,5.8,8.1,58,0.00,,---,0.00,VWS V14.01,2013-02-15 01:08:00,
2013-02-14 19:09:00,7.7,-4.0,28.97,NNW,338,6.5,8.1,58,0.00,,---,0.00,VWS V14.01,2013-02-15 01:09:00,
2013-02-14 19:10:00,7.7,-4.0,28.97,NNW,338,7.2,7.6,58,0.00,,---,0.00,VWS V14.01,2013-02-15 01:10:00,
2013-02-14 19:11:00,7.7,-4.0,28.97,North,0,6.0,8.1,58,0.00,,---,0.00,VWS V14.01,2013-02-15 01:11:00,
2013-02-14 19:12:00,7.7,-4.0,28.97,NNW,338,8.5,8.5,58,0.00,,---,0.00,VWS V14.01,2013-02-15 01:12:00,
2013-02-14 19:13:00,7.7,-4.0,28.97,NW,315,5.4,8.5,58,0.00,,---,0.00,VWS V14.01,2013-02-15 01:13:00,
2013-02-14 19:14:00,7.7,-4.0,28.97,NNW,338,8.1,12.1,58,0.00,,---,0.00,VWS V14.01,2013-02-15 01:14:00,
2013-02-14 19:15:00,7.7,-4.0,28.97,NNW,338,8.7,9.4,58,0.00,,---,0.00,VWS V14.01,2013-02-15 01:15:00,
2013-02-14 19:16:00,7.7,-4.0,28.97,North,0,6.3,12.1,58,0.00,,---,0.00,VWS V14.01,2013-02-15 01:16:00,
2013-02-14 19:17:00,7.7,-4.0,28.97,NNW,338,8.7,8.7,58,0.00,,---,0.00,VWS V14.01,2013-02-15 01:17:00,
2013-02-14 19:18:00,7.7,-4.0,28.97,NNW,338,6.5,8.7,58,0.00,,---,0.00,VWS V14.01,2013-02-15 01:18:00,
2013-02-14 19:19:00,7.5,-4.2,28.97,NW,315,7.4,13.6,58,0.00,,---,0.00,VWS V14.01,2013-02-15 01:19:00,
2013-02-14 19:20:00,7.7,-4.0,28.97,NW,315,13.6,13.6,58,0.00,,---,0.00,VWS V14.01,2013-02-15 01:20:00,
2013-02-14 19:21:00,7.5,-4.2,28.97,NNW,338,12.5,13.6,58,0.00,,---,0.00,VWS V14.01,2013-02-15 01:21:00,
2013-02-14 19:22:00,7.5,-4.2,28.97,NNW,338,5.6,12.5,58,0.00,,---,0.00,VWS V14.01,2013-02-15 01:22:00,
2013-02-14 19:23:00,7.5,-4.2,28.97,NNW,338,6.3,6.3,58,0.00,,---,0.00,VWS V14.01,2013-02-15 01:23:00,
2013-02-14 19:24:00,7.5,-4.2,28.97,NNW,338,6.3,8.7,58,0.00,,---,0.00,VWS V14.01,2013-02-15 01:24:00,
2013-02-14 19:25:00,7.5,-4.2,28.97,NNW,338,6.5,7.4,58,0.00,,---,0.00,VWS V14.01,2013-02-15 01:25:00,
2013-02-14 19:26:00,7.5,-4.2,28.97,North,0,7.4,8.7,58,0.00,,---,0.00,VWS V14.01,2013-02-15 01:26:00,
2013-02-14 19:27:00,7.5,-4.2,28.97,NNW,338,5.6,7.4,58,0.00,,---,0.00,VWS V14.01,2013-02-15 01:27:00,
2013-02-14 19:28:00,7.5,-4.2,28.97,NNW,338,7.6,9.6,58,0.00,,---,0.00,VWS V14.01,2013-02-15 01:28:00,
2013-02-14 19:29:00,7.5,-4.2,28.97,NNW,338,5.6,8.7,58,0.00,,---,0.00,VWS V14.01,2013-02-15 01:29:00,
2013-02-14 19:30:00,7.5,-4.2,28.97,NNW,338,7.8,7.8,58,0.00,,---,0.00,VWS V14.01,2013-02-15 01:30:00,
2013-02-14 19:31:00,7.5,-4.2,28.97,NNW,338,5.6,8.7,58,0.00,,---,0.00,VWS V14.01,2013-02-15 01:31:00,
2013-02-14 19:32:00,7.5,-4.2,28.97,NNW,338,7.2,7.6,58,0.00,,---,0.00,VWS V14.01,2013-02-15 01:32:00,
2013-02-14 19:33:00,7.5,-4.2,28.97,NNW,338,6.3,7.4,58,0.00,,---,0.00,VWS V14.01,2013-02-15 01:33:00,
2013-02-14 19:34:00,7.3,-4.3,28.97,NW,315,6.0,6.0,58,0.00,,---,0.00,VWS V14.01,2013-02-15 01:34:00,
2013-02-14 19:35:00,7.3,-4.3,28.97,NNW,338,5.6,6.3,58,0.00,,---,0.00,VWS V14.01,2013-02-15 01:35:00,
2013-02-14 19:36:00,7.3,-4.3,28.97,NNW,338,5.4,6.0,58,0.00,,---,0.00,VWS V14.01,2013-02-15 01:36:00,
2013-02-14 19:37:00,7.3,-4.3,28.97,NNW,338,3.6,7.8,58,0.00,,---,0.00,VWS V14.01,2013-02-15 01:37:00,
2013-02-14 19:38:00,7.2,-4.5,28.97,WNW,292,6.3,6.5,58,0.00,,---,0.00,VWS V14.01,2013-02-15 01:38:00,
2013-02-14 19:39:00,7.0,-4.7,28.97,NNW,338,4.9,7.8,58,0.00,,---,0.00,VWS V14.01,2013-02-15 01:39:00,
2013-02-14 19:40:00,7.2,-4.5,28.97,NNW,338,4.9,7.8,58,0.00,,---,0.00,VWS V14.01,2013-02-15 01:40:00,
2013-02-14 19:41:00,7.0,-4.7,28.97,NW,315,5.8,7.8,58,0.00,,---,0.00,VWS V14.01,2013-02-15 01:41:00,
2013-02-14 19:42:00,7.0,-4.7,28.97,NW,315,5.6,7.4,58,0.00,,---,0.00,VWS V14.01,2013-02-15 01:42:00,
2013-02-14 19:43:00,7.0,-4.7,28.97,NNW,338,4.9,6.0,58,0.00,,---,0.00,VWS V14.01,2013-02-15 01:43:00,
2013-02-14 19:44:00,6.8,-4.8,28.97,NW,315,7.4,7.4,58,0.00,,---,0.00,VWS V14.01,2013-02-15 01:44:00,
2013-02-14 19:45:00,6.8,-4.8,28.97,NW,315,5.6,9.4,58,0.00,,---,0.00,VWS V14.01,2013-02-15 01:45:00,
2013-02-14 19:46:00,6.8,-4.8,28.97,NW,315,7.6,7.6,58,0.00,,---,0.00,VWS V14.01,2013-02-15 01:46:00,
2013-02-14 19:47:00,6.8,-4.8,28.97,NW,315,5.6,7.6,58,0.00,,---,0.00,VWS V14.01,2013-02-15 01:47:00,
2013-02-14 19:48:00,6.6,-5.0,28.97,North,0,4.0,7.8,58,0.00,,---,0.00,VWS V14.01,2013-02-15 01:48:00,
2013-02-14 19:49:00,6.6,-5.0,28.97,NNW,338,7.6,7.6,58,0.00,,---,0.00,VWS V14.01,2013-02-15 01:49:00,
2013-02-14 19:50:00,6.6,-5.0,28.97,NNW,338,4.3,6.5,58,0.00,,---,0.00,VWS V14.01,2013-02-15 01:50:00,
2013-02-14 19:51:00,6.6,-5.0,28.97,NNW,338,7.6,7.6,58,0.00,,---,0.00,VWS V14.01,2013-02-15 01:51:00,
2013-02-14 19:52:00,6.6,-5.0,28.97,NNW,338,8.1,8.1,58,0.00,,---,0.00,VWS V14.01,2013-02-15 01:52:00,
2013-02-14 19:53:00,6.6,-5.0,28.97,NNW,338,6.5,8.1,58,0.00,,---,0.00,VWS V14.01,2013-02-15 01:53:00,
2013-02-14 19:54:00,6.4,-5.2,28.97,NNW,338,7.8,7.8,58,0.00,,---,0.00,VWS V14.01,2013-02-15 01:54:00,
2013-02-14 19:55:00,6.4,-5.2,28.97,WNW,292,6.5,6.5,58,0.00,,---,0.00,VWS V14.01,2013-02-15 01:55:00,
2013-02-14 19:56:00,6.4,-5.2,28.97,NNW,338,5.8,7.8,58,0.00,,---,0.00,VWS V14.01,2013-02-15 01:56:00,
2013-02-14 19:57:00,6.4,-5.2,28.97,NNW,338,5.6,5.8,58,0.00,,---,0.00,VWS V14.01,2013-02-15 01:57:00,
2013-02-14 19:58:00,6.4,-5.2,28.97,NNW,338,3.8,5.6,58,0.00,,---,0.00,VWS V14.01,2013-02-15 01:58:00,
2013-02-14 19:59:00,6.3,-5.3,28.97,NW,315,4.9,6.3,58,0.00,,---,0.00,VWS V14.01,2013-02-15 01:59:00,
2013-02-14 20:00:00,6.3,-5.3,28.97,NW,315,6.3,6.5,58,0.00,,---,0.00,VWS V14.01,2013-02-15 02:00:00,
2013-02-14 20:01:00,6.3,-5.3,28.97,NW,315,4.9,6.3,58,0.00,,---,0.00,VWS V14.01,2013-02-15 02:01:00,
2013-02-14 20:02:00,6.3,-5.3,28.97,WNW,292,4.9,7.2,58,0.00,,---,0.00,VWS V14.01,2013-02-15 02:02:00,
2013-02-14 20:03:00,6.3,-5.3,28.97,NW,315,4.7,7.4,58,0.00,,---,0.00,VWS V14.01,2013-02-15 02:03:00,
2013-02-14 20:04:00,6.1,-5.5,28.97,WNW,292,3.8,3.8,58,0.00,,---,0.00,VWS V14.01,2013-02-15 02:04:00,
2013-02-14 20:05:00,6.1,-5.5,28.97,North,0,2.9,3.6,58,0.00,,---,0.00,VWS V14.01,2013-02-15 02:05:00,
2013-02-14 20:06:00,4.5,-7.1,29.00,WSW,248,0.9,1.3,58,0.00,,---,0.00,VWS V14.01,2013-02-15 02:06:00,
2013-02-14 20:07:00,6.1,-5.5,28.97,WNW,292,3.8,3.8,58,0.00,,---,0.00,VWS V14.01,2013-02-15 02:07:00,
2013-02-14 20:08:00,5.9,-5.7,28.97,NW,315,3.4,3.8,58,0.00,,---,0.00,VWS V14.01,2013-02-15 02:08:00,
2013-02-14 20:09:00,5.9,-5.7,28.97,NNW,338,2.7,4.3,58,0.00,,---,0.00,VWS V14.01,2013-02-15 02:09:00,
2013-02-14 20:10:00,5.9,-5.7,28.97,NNW,338,3.8,7.2,58,0.00,,---,0.00,VWS V14.01,2013-02-15 02:10:00,
2013-02-14 20:11:00,5.9,-5.7,28.97,NNW,338,2.7,4.3,58,0.00,,---,0.00,VWS V14.01,2013-02-15 02:11:00,
2013-02-14 20:12:00,5.9,-5.7,28.97,North,0,4.7,4.7,58,0.00,,---,0.00,VWS V14.01,2013-02-15 02:12:00,
2013-02-14 20:13:00,5.9,-5.7,28.97,NNW,338,4.3,6.0,58,0.00,,---,0.00,VWS V14.01,2013-02-15 02:13:00,
2013-02-14 20:14:00,5.5,-6.0,28.97,NNW,338,2.0,4.9,58,0.00,,---,0.00,VWS V14.01,2013-02-15 02:14:00,
2013-02-14 20:15:00,5.7,-5.9,28.97,NW,315,3.6,3.6,58,0.00,,---,0.00,VWS V14.01,2013-02-15 02:15:00,
2013-02-14 20:16:00,5.5,-6.0,28.97,NNW,338,2.0,4.9,58,0.00,,---,0.00,VWS V14.01,2013-02-15 02:16:00,
2013-02-14 20:17:00,5.5,-6.0,28.97,NNW,338,3.8,4.9,58,0.00,,---,0.00,VWS V14.01,2013-02-15 02:17:00,
2013-02-14 20:18:00,3.9,-7.6,29.00,West,270,3.4,5.6,58,0.00,,---,0.00,VWS V14.01,2013-02-15 02:18:00,
2013-02-14 20:19:00,5.5,-6.0,28.97,WNW,292,3.6,6.3,58,0.00,,---,0.00,VWS V14.01,2013-02-15 02:19:00,
2013-02-14 20:20:00,5.5,-6.0,28.97,NW,315,6.3,6.3,58,0.00,,---,0.00,VWS V14.01,2013-02-15 02:20:00,
2013-02-14 20:21:00,5.5,-6.0,28.97,WNW,292,3.6,6.3,58,0.00,,---,0.00,VWS V14.01,2013-02-15 02:21:00,
2013-02-14 20:22:00,5.5,-6.0,28.97,NNW,338,4.9,7.8,58,0.00,,---,0.00,VWS V14.01,2013-02-15 02:22:00,
2013-02-14 20:23:00,5.5,-6.0,28.97,NNE,22,3.8,6.3,58,0.00,,---,0.00,VWS V14.01,2013-02-15 02:23:00,
2013-02-14 20:24:00,5.4,-6.2,28.97,NW,315,6.3,6.3,58,0.00,,---,0.00,VWS V14.01,2013-02-15 02:24:00,
2013-02-14 20:25:00,5.4,-6.2,28.97,NW,315,2.7,6.5,58,0.00,,---,0.00,VWS V14.01,2013-02-15 02:25:00,
2013-02-14 20:26:00,5.4,-6.2,28.97,NW,315,6.3,6.3,58,0.00,,---,0.00,VWS V14.01,2013-02-15 02:26:00,
2013-02-14 20:27:00,5.2,-6.4,28.97,WNW,292,4.7,8.1,58,0.00,,---,0.00,VWS V14.01,2013-02-15 02:27:00,
2013-02-14 20:28:00,5.2,-6.4,28.97,NNW,338,7.4,7.4,58,0.00,,---,0.00,VWS V14.01,2013-02-15 02:28:00,
2013-02-14 20:29:00,5.2,-6.4,28.97,NW,315,4.3,6.5,58,0.00,,---,0.00,VWS V14.01,2013-02-15 02:29:00,
2013-02-14 20:30:00,5.2,-6.4,28.97,NW,315,2.9,6.3,58,0.00,,---,0.00,VWS V14.01,2013-02-15 02:30:00,
2013-02-14 20:31:00,5.2,-6.4,28.97,NW,315,4.3,6.5,58,0.00,,---,0.00,VWS V14.01,2013-02-15 02:31:00,
2013-02-14 20:32:00,5.0,-6.5,29.00,NNW,338,4.0,5.6,58,0.00,,---,0.00,VWS V14.01,2013-02-15 02:32:00,
2013-02-14 20:33:00,5.0,-6.5,29.00,WNW,292,4.3,4.9,58,0.00,,---,0.00,VWS V14.01,2013-02-15 02:33:00,
2013-02-14 20:34:00,5.0,-6.5,29.00,WNW,292,5.4,5.4,58,0.00,,---,0.00,VWS V14.01,2013-02-15 02:34:00,
2013-02-14 20:35:00,5.0,-6.5,29.00,NW,315,3.8,5.6,58,0.00,,---,0.00,VWS V14.01,2013-02-15 02:35:00,
2013-02-14 20:36:00,5.0,-6.5,29.00,WNW,292,5.4,5.4,58,0.00,,---,0.00,VWS V14.01,2013-02-15 02:36:00,
2013-02-14 20:37:00,4.8,-6.7,29.00,WNW,292,2.5,5.4,58,0.00,,---,0.00,VWS V14.01,2013-02-15 02:37:00,
2013-02-14 20:38:00,4.8,-6.7,29.00,WNW,292,4.0,4.0,58,0.00,,---,0.00,VWS V14.01,2013-02-15 02:38:00,
2013-02-14 20:39:00,4.5,-7.0,29.00,WSW,248,2.9,4.0,58,0.00,,---,0.00,VWS V14.01,2013-02-15 02:39:00,
2013-02-14 20:40:00,4.5,-7.1,29.00,West,270,3.1,4.9,58,0.00,,---,0.00,VWS V14.01,2013-02-15 02:40:00,
2013-02-14 20:41:00,4.5,-7.1,29.00,WSW,248,2.9,4.0,58,0.00,,---,0.00,VWS V14.01,2013-02-15 02:41:00,
2013-02-14 20:42:00,4.5,-7.1,29.00,West,270,2.5,3.6,58,0.00,,---,0.00,VWS V14.01,2013-02-15 02:42:00,
2013-02-14 20:43:00,4.5,-7.1,29.00,WSW,248,2.5,2.5,58,0.00,,---,0.00,VWS V14.01,2013-02-15 02:43:00,
2013-02-14 20:44:00,4.6,-6.9,29.00,NW,315,2.9,2.9,58,0.00,,---,0.00,VWS V14.01,2013-02-15 02:44:00,
2013-02-14 20:45:00,4.6,-6.9,29.00,West,270,2.5,2.5,58,0.00,,---,0.00,VWS V14.01,2013-02-15 02:45:00,
2013-02-14 20:46:00,4.6,-6.9,29.00,NW,315,2.9,2.9,58,0.00,,---,0.00,VWS V14.01,2013-02-15 02:46:00,
2013-02-14 20:47:00,4.6,-6.9,29.00,WSW,248,2.5,3.4,58,0.00,,---,0.00,VWS V14.01,2013-02-15 02:47:00,
2013-02-14 20:48:00,4.6,-6.9,29.00,WNW,292,2.5,2.9,58,0.00,,---,0.00,VWS V14.01,2013-02-15 02:48:00,
2013-02-14 20:49:00,4.6,-6.9,29.00,WSW,248,2.0,2.0,58,0.00,,---,0.00,VWS V14.01,2013-02-15 02:49:00,
2013-02-14 20:50:00,4.6,-6.9,29.00,WSW,248,1.1,2.0,58,0.00,,---,0.00,VWS V14.01,2013-02-15 02:50:00,
2013-02-14 20:51:00,4.6,-6.9,29.00,WSW,248,2.0,2.0,58,0.00,,---,0.00,VWS V14.01,2013-02-15 02:51:00,
2013-02-14 20:52:00,4.6,-6.9,29.00,WSW,248,2.7,2.7,58,0.00,,---,0.00,VWS V14.01,2013-02-15 02:52:00,
2013-02-14 20:53:00,4.8,-6.7,29.00,WSW,248,3.1,3.8,58,0.00,,---,0.00,VWS V14.01,2013-02-15 02:53:00,
2013-02-14 20:54:00,4.6,-6.9,29.00,West,270,3.1,3.1,58,0.00,,---,0.00,VWS V14.01,2013-02-15 02:54:00,
2013-02-14 20:55:00,4.8,-6.7,29.00,WSW,248,3.4,3.4,58,0.00,,---,0.00,VWS V14.01,2013-02-15 02:55:00,
2013-02-14 20:56:00,4.6,-6.9,29.00,West,270,3.1,4.0,58,0.00,,---,0.00,VWS V14.01,2013-02-15 02:56:00,
2013-02-14 20:57:00,4.6,-6.9,29.00,WSW,248,1.3,3.1,58,0.00,,---,0.00,VWS V14.01,2013-02-15 02:57:00,
2013-02-14 20:58:00,4.6,-6.9,29.00,SW,225,2.7,2.7,58,0.00,,---,0.00,VWS V14.01,2013-02-15 02:58:00,
2013-02-14 20:59:00,4.5,-7.0,29.00,NW,315,1.1,1.3,58,0.00,,---,0.00,VWS V14.01,2013-02-15 02:59:00,
2013-02-14 21:00:00,4.5,-7.1,29.00,NNW,338,2.9,2.9,58,0.00,,---,0.00,VWS V14.01,2013-02-15 03:00:00,
2013-02-14 21:01:00,4.5,-7.1,29.00,WSW,248,1.3,2.9,58,0.00,,---,0.00,VWS V14.01,2013-02-15 03:01:00,
2013-02-14 21:02:00,4.5,-7.1,29.00,WNW,292,2.9,3.1,58,0.00,,---,0.00,VWS V14.01,2013-02-15 03:02:00,
2013-02-14 21:03:00,4.5,-7.1,29.00,WSW,248,1.6,4.0,58,0.00,,---,0.00,VWS V14.01,2013-02-15 03:03:00,
2013-02-14 21:04:00,4.5,-7.0,29.00,WSW,248,0.9,0.9,58,0.00,,---,0.00,VWS V14.01,2013-02-15 03:04:00,
2013-02-14 21:05:00,4.5,-7.1,29.00,SW,225,0.0,1.6,58,0.00,,---,0.00,VWS V14.01,2013-02-15 03:05:00,
2013-02-14 21:06:00,4.5,-7.1,29.00,WSW,248,0.9,1.3,58,0.00,,---,0.00,VWS V14.01,2013-02-15 03:06:00,
2013-02-14 21:07:00,4.5,-7.1,29.00,WNW,292,2.5,2.5,58,0.00,,---,0.00,VWS V14.01,2013-02-15 03:07:00,
2013-02-14 21:08:00,4.3,-7.2,29.00,WSW,248,2.0,2.5,58,0.00,,---,0.00,VWS V14.01,2013-02-15 03:08:00,
2013-02-14 21:09:00,4.1,-7.4,29.00,WSW,248,2.5,2.7,58,0.00,,---,0.00,VWS V14.01,2013-02-15 03:09:00,
2013-02-14 21:10:00,4.3,-7.2,29.00,WSW,248,1.6,2.5,58,0.00,,---,0.00,VWS V14.01,2013-02-15 03:10:00,
2013-02-14 21:11:00,4.1,-7.4,29.00,WSW,248,2.7,2.7,58,0.00,,---,0.00,VWS V14.01,2013-02-15 03:11:00,
2013-02-14 21:12:00,4.1,-7.4,29.00,WNW,292,2.7,2.9,58,0.00,,---,0.00,VWS V14.01,2013-02-15 03:12:00,
2013-02-14 21:13:00,4.1,-7.4,29.00,WNW,292,2.2,3.4,58,0.00,,---,0.00,VWS V14.01,2013-02-15 03:13:00,
2013-02-14 21:14:00,4.1,-7.4,29.00,NW,315,3.6,3.6,58,0.00,,---,0.00,VWS V14.01,2013-02-15 03:14:00,
2013-02-14 21:15:00,4.1,-7.4,29.00,West,270,2.0,2.9,58,0.00,,---,0.00,VWS V14.01,2013-02-15 03:15:00,
2013-02-14 21:16:00,4.1,-7.4,29.00,NW,315,3.6,3.6,58,0.00,,---,0.00,VWS V14.01,2013-02-15 03:16:00,
2013-02-14 21:17:00,4.1,-7.4,29.00,NW,315,2.7,3.6,58,0.00,,---,0.00,VWS V14.01,2013-02-15 03:17:00,
2013-02-14 21:18:00,3.9,-7.6,29.00,West,270,3.4,5.6,58,0.00,,---,0.00,VWS V14.01,2013-02-15 03:18:00,
2013-02-14 21:19:00,3.9,-7.6,29.00,WNW,292,2.5,3.6,58,0.00,,---,0.00,VWS V14.01,2013-02-15 03:19:00,
2013-02-14 21:20:00,4.1,-7.4,29.00,WNW,292,3.4,4.3,58,0.00,,---,0.00,VWS V14.01,2013-02-15 03:20:00,
2013-02-14 21:21:00,3.9,-7.6,29.00,WNW,292,3.6,3.6,58,0.00,,---,0.00,VWS V14.01,2013-02-15 03:21:00,
2013-02-14 21:22:00,3.9,-7.6,29.00,WNW,292,2.7,3.6,58,0.00,,---,0.00,VWS V14.01,2013-02-15 03:22:00,
2013-02-14 21:23:00,3.7,-7.7,29.00,West,270,2.2,2.9,58,0.00,,---,0.00,VWS V14.01,2013-02-15 03:23:00,
2013-02-14 21:24:00,3.7,-7.7,29.00,WSW,248,2.7,2.7,58,0.00,,---,0.00,VWS V14.01,2013-02-15 03:24:00,
2013-02-14 21:25:00,3.7,-7.7,29.00,WSW,248,2.5,2.9,58,0.00,,---,0.00,VWS V14.01,2013-02-15 03:25:00,
2013-02-14 21:26:00,3.7,-7.7,29.00,WSW,248,2.7,2.7,58,0.00,,---,0.00,VWS V14.01,2013-02-15 03:26:00,
2013-02-14 21:27:00,3.9,-7.6,29.00,WSW,248,3.8,3.8,58,0.00,,---,0.00,VWS V14.01,2013-02-15 03:27:00,
2013-02-14 21:28:00,3.9,-7.6,29.00,WSW,248,4.9,4.9,58,0.00,,---,0.00,VWS V14.01,2013-02-15 03:28:00,
2013-02-14 21:29:00,3.9,-7.6,29.00,SW,225,0.9,0.9,58,0.00,,---,0.00,VWS V14.01,2013-02-15 03:29:00,
2013-02-14 21:30:00,3.9,-7.6,29.00,SW,225,2.5,4.9,58,0.00,,---,0.00,VWS V14.01,2013-02-15 03:30:00,
2013-02-14 21:31:00,3.9,-7.6,29.00,SW,225,0.9,2.5,58,0.00,,---,0.00,VWS V14.01,2013-02-15 03:31:00,
2013-02-14 21:32:00,3.9,-7.6,29.00,SW,225,1.3,1.3,58,0.00,,---,0.00,VWS V14.01,2013-02-15 03:32:00,
2013-02-14 21:33:00,3.9,-7.6,29.00,WSW,248,2.7,2.7,58,0.00,,---,0.00,VWS V14.01,2013-02-15 03:33:00,
2013-02-14 21:34:00,3.4,-8.1,29.03,WSW,248,2.7,3.1,58,0.00,,---,0.00,VWS V14.01,2013-02-15 03:34:00,
2013-02-14 21:35:00,3.4,-8.1,29.03,SW,225,3.1,3.1,58,0.00,,---,0.00,VWS V14.01,2013-02-15 03:35:00,
2013-02-14 21:36:00,1.4,-9.9,29.03,NNW,338,4.3,4.3,58,0.00,,---,0.00,VWS V14.01,2013-02-15 03:36:00,
2013-02-14 21:37:00,3.4,-8.1,29.03,WSW,248,2.7,3.1,58,0.00,,---,0.00,VWS V14.01,2013-02-15 03:37:00,
2013-02-14 21:38:00,3.0,-8.4,29.03,WSW,248,2.7,2.7,58,0.00,,---,0.00,VWS V14.01,2013-02-15 03:38:00,
2013-02-14 21:39:00,2.7,-8.7,29.03,WSW,248,4.0,4.0,58,0.00,,---,0.00,VWS V14.01,2013-02-15 03:39:00,
2013-02-14 21:40:00,2.8,-8.6,29.03,WSW,248,2.7,2.7,58,0.00,,---,0.00,VWS V14.01,2013-02-15 03:40:00,
2013-02-14 21:41:00,2.7,-8.7,29.03,WSW,248,3.4,3.4,58,0.00,,---,0.00,VWS V14.01,2013-02-15 03:41:00,
2013-02-14 21:42:00,2.5,-8.9,29.03,WSW,248,3.6,4.0,58,0.00,,---,0.00,VWS V14.01,2013-02-15 03:42:00,
2013-02-14 21:43:00,2.5,-8.9,29.03,WSW,248,3.1,3.6,58,0.00,,---,0.00,VWS V14.01,2013-02-15 03:43:00,
2013-02-14 21:44:00,2.3,-9.1,29.03,West,270,2.9,2.9,58,0.00,,---,0.00,VWS V14.01,2013-02-15 03:44:00,
2013-02-14 21:45:00,2.3,-9.1,29.03,WSW,248,3.8,3.8,58,0.00,,---,0.00,VWS V14.01,2013-02-15 03:45:00,
2013-02-14 21:46:00,2.3,-9.1,29.03,West,270,2.9,4.0,58,0.00,,---,0.00,VWS V14.01,2013-02-15 03:46:00,
2013-02-14 21:47:00,2.3,-9.1,29.03,West,270,2.9,2.9,58,0.00,,---,0.00,VWS V14.01,2013-02-15 03:47:00,
2013-02-14 21:48:00,2.1,-9.3,29.03,WSW,248,2.7,2.9,58,0.00,,---,0.00,VWS V14.01,2013-02-15 03:48:00,
2013-02-14 21:49:00,2.1,-9.2,29.03,WSW,248,2.5,2.5,58,0.00,,---,0.00,VWS V14.01,2013-02-15 03:49:00,
2013-02-14 21:50:00,2.1,-9.3,29.03,WSW,248,3.1,3.6,58,0.00,,---,0.00,VWS V14.01,2013-02-15 03:50:00,
2013-02-14 21:51:00,2.1,-9.3,29.03,WSW,248,2.5,3.1,58,0.00,,---,0.00,VWS V14.01,2013-02-15 03:51:00,
2013-02-14 21:52:00,2.1,-9.3,29.03,WSW,248,2.7,2.7,58,0.00,,---,0.00,VWS V14.01,2013-02-15 03:52:00,
2013-02-14 21:53:00,2.1,-9.3,29.03,WSW,248,2.7,3.1,58,0.00,,---,0.00,VWS V14.01,2013-02-15 03:53:00,
2013-02-14 21:54:00,1.9,-9.4,29.03,WSW,248,3.1,3.1,58,0.00,,---,0.00,VWS V14.01,2013-02-15 03:54:00,
2013-02-14 21:55:00,1.9,-9.4,29.03,SW,225,3.8,3.8,58,0.00,,---,0.00,VWS V14.01,2013-02-15 03:55:00,
2013-02-14 21:56:00,1.9,-9.4,29.03,WSW,248,3.1,3.8,58,0.00,,---,0.00,VWS V14.01,2013-02-15 03:56:00,
2013-02-14 21:57:00,1.8,-9.6,29.03,WSW,248,3.1,3.4,58,0.00,,---,0.00,VWS V14.01,2013-02-15 03:57:00,
2013-02-14 21:58:00,1.8,-9.6,29.03,WSW,248,2.5,3.8,58,0.00,,---,0.00,VWS V14.01,2013-02-15 03:58:00,
2013-02-14 21:59:00,1.6,-9.8,29.03,West,270,4.3,4.3,58,0.00,,---,0.00,VWS V14.01,2013-02-15 03:59:00,
2013-02-14 22:00:00,1.8,-9.6,29.03,WSW,248,2.9,3.1,58,0.00,,---,0.00,VWS V14.01,2013-02-15 04:00:00,
2013-02-14 22:01:00,1.6,-9.8,29.03,WSW,248,4.3,4.3,58,0.00,,---,0.00,VWS V14.01,2013-02-15 04:01:00,
2013-02-14 22:02:00,1.6,-9.8,29.03,West,270,4.3,4.3,58,0.00,,---,0.00,VWS V14.01,2013-02-15 04:02:00,
2013-02-14 22:03:00,1.6,-9.8,29.03,WSW,248,3.8,4.3,58,0.00,,---,0.00,VWS V14.01,2013-02-15 04:03:00,
2013-02-14 22:04:00,1.6,-9.8,29.03,West,270,6.9,6.9,58,0.00,,---,0.00,VWS V14.01,2013-02-15 04:04:00,
2013-02-14 22:05:00,1.6,-9.8,29.03,WSW,248,5.8,5.8,58,0.00,,---,0.00,VWS V14.01,2013-02-15 04:05:00,
2013-02-14 22:06:00,1.6,-9.8,29.03,West,270,6.3,6.5,58,0.00,,---,0.00,VWS V14.01,2013-02-15 04:06:00,
2013-02-14 22:07:00,1.6,-9.8,29.03,West,270,4.9,6.9,58,0.00,,---,0.00,VWS V14.01,2013-02-15 04:07:00,
2013-02-14 22:08:00,1.6,-9.8,29.03,WNW,292,6.5,6.5,58,0.00,,---,0.00,VWS V14.01,2013-02-15 04:08:00,
2013-02-14 22:09:00,1.4,-9.9,29.03,WNW,292,5.4,5.4,58,0.00,,---,0.00,VWS V14.01,2013-02-15 04:09:00,
2013-02-14 22:10:00,1.6,-9.8,29.03,West,270,5.6,6.5,58,0.00,,---,0.00,VWS V14.01,2013-02-15 04:10:00,
2013-02-14 22:11:00,1.4,-9.9,29.03,WNW,292,4.0,5.8,58,0.00,,---,0.00,VWS V14.01,2013-02-15 04:11:00,
2013-02-14 22:12:00,1.4,-9.9,29.03,WNW,292,5.8,6.3,58,0.00,,---,0.00,VWS V14.01,2013-02-15 04:12:00,
2013-02-14 22:13:00,1.4,-9.9,29.03,WNW,292,4.3,5.8,58,0.00,,---,0.00,VWS V14.01,2013-02-15 04:13:00,
2013-02-14 22:14:00,1.2,-10.1,29.03,West,270,6.5,6.5,58,0.00,,---,0.00,VWS V14.01,2013-02-15 04:14:00,
2013-02-14 22:15:00,1.2,-10.1,29.03,WNW,292,4.0,5.4,58,0.00,,---,0.00,VWS V14.01,2013-02-15 04:15:00,
2013-02-14 22:16:00,1.2,-10.1,29.03,WNW,292,6.0,6.5,58,0.00,,---,0.00,VWS V14.01,2013-02-15 04:16:00,
2013-02-14 22:17:00,1.2,-10.1,29.03,WNW,292,5.4,6.5,58,0.00,,---,0.00,VWS V14.01,2013-02-15 04:17:00,
2013-02-14 22:18:00,1.0,-10.3,29.03,WNW,292,3.6,5.4,58,0.00,,---,0.00,VWS V14.01,2013-02-15 04:18:00,
2013-02-14 22:19:00,0.9,-10.4,29.03,WNW,292,3.8,5.8,58,0.00,,---,0.00,VWS V14.01,2013-02-15 04:19:00,
2013-02-14 22:20:00,1.0,-10.3,29.03,WNW,292,4.9,6.5,58,0.00,,---,0.00,VWS V14.01,2013-02-15 04:20:00,
2013-02-14 22:21:00,0.9,-10.4,29.03,NNW,338,5.8,6.0,58,0.00,,---,0.00,VWS V14.01,2013-02-15 04:21:00,
2013-02-14 22:22:00,1.0,-10.3,29.03,WSW,248,4.0,5.8,58,0.00,,---,0.00,VWS V14.01,2013-02-15 04:22:00,
2013-02-14 22:23:00,1.0,-10.3,29.03,WNW,292,5.6,5.6,58,0.00,,---,0.00,VWS V14.01,2013-02-15 04:23:00,
2013-02-14 22:24:00,0.9,-10.4,29.03,NW,315,5.6,5.6,58,0.00,,---,0.00,VWS V14.01,2013-02-15 04:24:00,
2013-02-14 22:25:00,0.9,-10.4,29.03,NW,315,4.9,4.9,58,0.00,,---,0.00,VWS V14.01,2013-02-15 04:25:00,
2013-02-14 22:26:00,0.9,-10.4,29.03,NW,315,4.9,4.9,58,0.00,,---,0.00,VWS V14.01,2013-02-15 04:26:00,
2013-02-14 22:27:00,0.9,-10.4,29.03,WNW,292,3.6,5.6,58,0.00,,---,0.00,VWS V14.01,2013-02-15 04:27:00,
2013-02-14 22:28:00,0.9,-10.4,29.03,WNW,292,3.6,3.6,58,0.00,,---,0.00,VWS V14.01,2013-02-15 04:28:00,
2013-02-14 22:29:00,1.2,-10.1,29.03,WNW,292,3.4,3.8,58,0.00,,---,0.00,VWS V14.01,2013-02-15 04:29:00,
2013-02-14 22:30:00,1.2,-10.1,29.03,WNW,292,3.4,4.0,58,0.00,,---,0.00,VWS V14.01,2013-02-15 04:30:00,
2013-02-14 22:31:00,1.2,-10.1,29.03,WNW,292,3.6,3.8,58,0.00,,---,0.00,VWS V14.01,2013-02-15 04:31:00,
2013-02-14 22:32:00,1.2,-10.1,29.03,WNW,292,3.1,3.8,58,0.00,,---,0.00,VWS V14.01,2013-02-15 04:32:00,
2013-02-14 22:33:00,1.2,-10.1,29.03,West,270,4.0,4.3,58,0.00,,---,0.00,VWS V14.01,2013-02-15 04:33:00,
2013-02-14 22:34:00,1.4,-9.9,29.03,NW,315,4.3,4.3,58,0.00,,---,0.00,VWS V14.01,2013-02-15 04:34:00,
2013-02-14 22:35:00,1.2,-10.1,29.03,WNW,292,3.6,4.7,58,0.00,,---,0.00,VWS V14.01,2013-02-15 04:35:00,
2013-02-14 22:36:00,1.4,-9.9,29.03,NNW,338,4.3,4.3,58,0.00,,---,0.00,VWS V14.01,2013-02-15 04:36:00,
2013-02-14 22:37:00,1.4,-9.9,29.03,NW,315,4.9,5.8,58,0.00,,---,0.00,VWS V14.01,2013-02-15 04:37:00,
2013-02-14 22:38:00,1.6,-9.8,29.03,WNW,292,3.6,4.9,58,0.00,,---,0.00,VWS V14.01,2013-02-15 04:38:00,
2013-02-14 22:39:00,1.6,-9.8,29.03,WNW,292,4.9,6.0,58,0.00,,---,0.00,VWS V14.01,2013-02-15 04:39:00,
2013-02-14 22:40:00,1.6,-9.8,29.03,WNW,292,3.1,4.9,58,0.00,,---,0.00,VWS V14.01,2013-02-15 04:40:00,
2013-02-14 22:41:00,1.6,-9.8,29.03,WNW,292,4.9,6.0,58,0.00,,---,0.00,VWS V14.01,2013-02-15 04:41:00,
2013-02-14 22:42:00,1.6,-9.8,29.03,WNW,292,4.9,4.9,58,0.00,,---,0.00,VWS V14.01,2013-02-15 04:42:00,
2013-02-14 22:43:00,1.6,-9.8,29.03,NW,315,4.9,4.9,58,0.00,,---,0.00,VWS V14.01,2013-02-15 04:43:00,
2013-02-14 22:44:00,1.6,-9.8,29.03,NNW,338,4.3,4.3,58,0.00,,---,0.00,VWS V14.01,2013-02-15 04:44:00,
2013-02-14 22:45:00,1.6,-9.8,29.03,NNW,338,5.8,5.8,58,0.00,,---,0.00,VWS V14.01,2013-02-15 04:45:00,
2013-02-14 22:46:00,1.6,-9.8,29.03,NNW,338,3.8,5.8,58,0.00,,---,0.00,VWS V14.01,2013-02-15 04:46:00,
2013-02-14 22:47:00,1.6,-9.8,29.03,NW,315,4.3,4.3,58,0.00,,---,0.00,VWS V14.01,2013-02-15 04:47:00,
2013-02-14 22:48:00,1.6,-9.8,29.03,NW,315,4.5,4.5,58,0.00,,---,0.00,VWS V14.01,2013-02-15 04:48:00,
2013-02-14 22:49:00,1.4,-9.9,29.03,NW,315,4.9,4.9,58,0.00,,---,0.00,VWS V14.01,2013-02-15 04:49:00,
2013-02-14 22:50:00,1.6,-9.8,29.03,NW,315,4.9,6.0,58,0.00,,---,0.00,VWS V14.01,2013-02-15 04:50:00,
2013-02-14 22:51:00,1.4,-9.9,29.03,NW,315,4.9,4.9,58,0.00,,---,0.00,VWS V14.01,2013-02-15 04:51:00,
2013-02-14 22:52:00,1.4,-9.9,29.03,NW,315,4.3,4.9,58,0.00,,---,0.00,VWS V14.01,2013-02-15 04:52:00,
2013-02-14 22:53:00,1.4,-9.9,29.03,NW,315,4.9,4.9,58,0.00,,---,0.00,VWS V14.01,2013-02-15 04:53:00,
2013-02-14 22:54:00,1.2,-10.1,29.03,WNW,292,4.9,5.4,58,0.00,,---,0.00,VWS V14.01,2013-02-15 04:54:00,
2013-02-14 22:55:00,1.2,-10.1,29.03,WNW,292,4.5,5.6,58,0.00,,---,0.00,VWS V14.01,2013-02-15 04:55:00,
2013-02-14 22:56:00,1.2,-10.1,29.03,WNW,292,5.4,5.6,58,0.00,,---,0.00,VWS V14.01,2013-02-15 04:56:00,
2013-02-14 22:57:00,1.2,-10.1,29.03,WNW,292,4.9,5.4,58,0.00,,---,0.00,VWS V14.01,2013-02-15 04:57:00,
2013-02-14 22:58:00,1.2,-10.1,29.03,NW,315,5.4,5.6,58,0.00,,---,0.00,VWS V14.01,2013-02-15 04:58:00,
2013-02-14 22:59:00,1.0,-10.3,29.03,NW,315,4.0,4.5,58,0.00,,---,0.00,VWS V14.01,2013-02-15 04:59:00,
2013-02-14 23:00:00,1.0,-10.3,29.03,WNW,292,3.6,4.5,58,0.00,,---,0.00,VWS V14.01,2013-02-15 05:00:00,
2013-02-14 23:01:00,1.0,-10.3,29.03,NNW,338,4.5,4.5,58,0.00,,---,0.00,VWS V14.01,2013-02-15 05:01:00,
2013-02-14 23:02:00,1.0,-10.3,29.03,NW,315,3.1,4.5,58,0.00,,---,0.00,VWS V14.01,2013-02-15 05:02:00,
2013-02-14 23:03:00,0.9,-10.4,29.03,WNW,292,3.1,4.0,58,0.00,,---,0.00,VWS V14.01,2013-02-15 05:03:00,
2013-02-14 23:04:00,0.7,-10.6,29.03,WNW,292,4.0,4.0,58,0.00,,---,0.00,VWS V14.01,2013-02-15 05:04:00,
2013-02-14 23:05:00,0.7,-10.6,29.03,WNW,292,3.8,4.0,58,0.00,,---,0.00,VWS V14.01,2013-02-15 05:05:00,
2013-02-14 23:06:00,0.7,-10.6,29.03,WNW,292,3.4,3.8,58,0.00,,---,0.00,VWS V14.01,2013-02-15 05:06:00,
2013-02-14 23:07:00,0.7,-10.6,29.03,WNW,292,3.8,4.0,58,0.00,,---,0.00,VWS V14.01,2013-02-15 05:07:00,
2013-02-14 23:08:00,0.5,-10.8,29.03,WNW,292,3.8,4.0,58,0.00,,---,0.00,VWS V14.01,2013-02-15 05:08:00,
2013-02-14 23:09:00,0.5,-10.8,29.03,WNW,292,3.8,4.0,58,0.00,,---,0.00,VWS V14.01,2013-02-15 05:09:00,
2013-02-14 23:10:00,0.9,-10.4,29.03,West,270,2.5,2.5,58,0.00,,---,0.00,VWS V14.01,2013-02-15 05:10:00,
2013-02-14 23:11:00,0.7,-10.6,29.03,WSW,248,2.9,4.0,58,0.00,,---,0.00,VWS V14.01,2013-02-15 05:11:00,
2013-02-14 23:12:00,0.9,-10.4,29.03,West,270,2.5,3.4,58,0.00,,---,0.00,VWS V14.01,2013-02-15 05:12:00,
2013-02-14 23:13:00,0.9,-10.4,29.03,West,270,1.3,3.1,58,0.00,,---,0.00,VWS V14.01,2013-02-15 05:13:00,
2013-02-14 23:14:00,0.9,-10.4,29.03,WSW,248,2.5,2.5,58,0.00,,---,0.00,VWS V14.01,2013-02-15 05:14:00,
2013-02-14 23:15:00,1.0,-10.3,29.03,WSW,248,2.0,2.5,58,0.00,,---,0.00,VWS V14.01,2013-02-15 05:15:00,
2013-02-14 23:16:00,1.0,-10.3,29.03,WNW,292,2.5,2.9,58,0.00,,---,0.00,VWS V14.01,2013-02-15 05:16:00,
2013-02-14 23:17:00,1.0,-10.3,29.03,WSW,248,2.0,2.5,58,0.00,,---,0.00,VWS V14.01,2013-02-15 05:17:00,
2013-02-14 23:18:00,1.2,-10.1,29.03,WSW,248,2.5,2.5,58,0.00,,---,0.00,VWS V14.01,2013-02-15 05:18:00,
2013-02-14 23:19:00,1.2,-10.1,29.03,WSW,248,2.9,3.1,58,0.00,,---,0.00,VWS V14.01,2013-02-15 05:19:00,
2013-02-14 23:20:00,0.9,-10.4,29.03,West,270,3.6,4.3,58,0.00,,---,0.00,VWS V14.01,2013-02-15 05:20:00,
2013-02-14 23:21:00,0.9,-10.4,29.03,WNW,292,3.6,4.0,58,0.00,,---,0.00,VWS V14.01,2013-02-15 05:21:00,
2013-02-14 23:22:00,0.9,-10.4,29.03,West,270,3.6,4.3,58,0.00,,---,0.00,VWS V14.01,2013-02-15 05:22:00,
2013-02-14 23:23:00,1.0,-10.3,29.03,WNW,292,4.3,4.3,58,0.00,,---,0.00,VWS V14.01,2013-02-15 05:23:00,
2013-02-14 23:24:00,1.2,-10.1,29.03,WNW,292,4.0,4.3,58,0.00,,---,0.00,VWS V14.01,2013-02-15 05:24:00,
2013-02-14 23:25:00,1.2,-10.1,29.03,WNW,292,3.6,4.0,58,0.00,,---,0.00,VWS V14.01,2013-02-15 05:25:00,
2013-02-14 23:26:00,1.2,-10.1,29.03,WNW,292,4.3,4.3,58,0.00,,---,0.00,VWS V14.01,2013-02-15 05:26:00,
2013-02-14 23:27:00,1.2,-10.1,29.03,WNW,292,4.0,4.7,58,0.00,,---,0.00,VWS V14.01,2013-02-15 05:27:00,
2013-02-14 23:28:00,1.2,-10.1,29.03,WNW,292,4.7,4.7,58,0.00,,---,0.00,VWS V14.01,2013-02-15 05:28:00,
2013-02-14 23:29:00,1.2,-10.1,29.03,WNW,292,4.0,5.4,58,0.00,,---,0.00,VWS V14.01,2013-02-15 05:29:00,
2013-02-14 23:30:00,1.6,-9.8,29.03,WNW,292,4.3,4.3,58,0.00,,---,0.00,VWS V14.01,2013-02-15 05:30:00,
2013-02-14 23:31:00,1.6,-9.8,29.03,WNW,292,6.3,6.3,58,0.00,,---,0.00,VWS V14.01,2013-02-15 05:31:00,
2013-02-14 23:32:00,1.6,-9.8,29.03,NW,315,4.3,6.3,58,0.00,,---,0.00,VWS V14.01,2013-02-15 05:32:00,
2013-02-14 23:33:00,1.6,-9.8,29.03,NNW,338,3.6,4.3,58,0.00,,---,0.00,VWS V14.01,2013-02-15 05:33:00,
2013-02-14 23:34:00,1.6,-9.8,29.03,NW,315,3.4,3.8,58,0.00,,---,0.00,VWS V14.01,2013-02-15 05:34:00,
2013-02-14 23:35:00,1.8,-9.6,29.03,NW,315,3.4,3.4,58,0.00,,---,0.00,VWS V14.01,2013-02-15 05:35:00,
2013-02-14 23:36:00,1.8,-9.6,29.03,NW,315,3.8,3.8,58,0.00,,---,0.00,VWS V14.01,2013-02-15 05:36:00,
2013-02-14 23:37:00,1.8,-9.6,29.03,NW,315,3.4,3.8,58,0.00,,---,0.00,VWS V14.01,2013-02-15 05:37:00,
2013-02-14 23:38:00,1.8,-9.6,29.03,NW,315,2.5,3.4,58,0.00,,---,0.00,VWS V14.01,2013-02-15 05:38:00,
2013-02-14 23:39:00,1.8,-9.6,29.03,NNW,338,2.5,2.9,58,0.00,,---,0.00,VWS V14.01,2013-02-15 05:39:00,
2013-02-14 23:40:00,1.9,-9.4,29.03,NW,315,2.5,2.5,58,0.00,,---,0.00,VWS V14.01,2013-02-15 05:40:00,
2013-02-14 23:41:00,2.8,-8.6,29.03,WNW,292,4.0,6.3,58,0.00,,---,0.00,VWS V14.01,2013-02-15 05:41:00,
2013-02-14 23:42:00,1.9,-9.4,29.03,NW,315,2.5,2.7,58,0.00,,---,0.00,VWS V14.01,2013-02-15 05:42:00,
2013-02-14 23:43:00,1.9,-9.4,29.03,NW,315,2.5,2.5,58,0.00,,---,0.00,VWS V14.01,2013-02-15 05:43:00,
2013-02-14 23:44:00,1.9,-9.4,29.03,NW,315,2.5,2.5,58,0.00,,---,0.00,VWS V14.01,2013-02-15 05:44:00,
2013-02-14 23:45:00,1.9,-9.4,29.03,West,270,3.6,3.6,58,0.00,,---,0.00,VWS V14.01,2013-02-15 05:45:00,
2013-02-14 23:46:00,1.9,-9.4,29.03,WNW,292,3.1,3.1,58,0.00,,---,0.00,VWS V14.01,2013-02-15 05:46:00,
2013-02-14 23:47:00,1.9,-9.4,29.03,West,270,3.6,3.6,58,0.00,,---,0.00,VWS V14.01,2013-02-15 05:47:00,
2013-02-14 23:48:00,1.9,-9.4,29.03,West,270,3.6,3.6,58,0.00,,---,0.00,VWS V14.01,2013-02-15 05:48:00,
2013-02-14 23:49:00,2.1,-9.3,29.03,WNW,292,4.3,4.3,58,0.00,,---,0.00,VWS V14.01,2013-02-15 05:49:00,
2013-02-14 23:50:00,2.5,-8.9,29.03,WNW,292,3.4,3.4,58,0.00,,---,0.00,VWS V14.01,2013-02-15 05:50:00,
2013-02-14 23:51:00,2.5,-8.9,29.03,West,270,3.4,4.0,58,0.00,,---,0.00,VWS V14.01,2013-02-15 05:51:00,
2013-02-14 23:52:00,2.5,-8.9,29.03,WSW,248,3.1,4.0,58,0.00,,---,0.00,VWS V14.01,2013-02-15 05:52:00,
2013-02-14 23:53:00,2.5,-8.9,29.03,WSW,248,3.4,3.4,58,0.00,,---,0.00,VWS V14.01,2013-02-15 05:53:00,
2013-02-14 23:54:00,2.7,-8.7,29.03,West,270,3.4,3.8,58,0.00,,---,0.00,VWS V14.01,2013-02-15 05:54:00,
2013-02-14 23:55:00,2.8,-8.6,29.03,West,270,3.8,4.9,58,0.00,,---,0.00,VWS V14.01,2013-02-15 05:55:00,
2013-02-14 23:56:00,2.8,-8.6,29.03,WSW,248,3.1,3.4,58,0.00,,---,0.00,VWS V14.01,2013-02-15 05:56:00,
2013-02-14 23:57:00,2.8,-8.6,29.03,West,270,4.9,4.9,58,0.00,,---,0.00,VWS V14.01,2013-02-15 05:57:00,
2013-02-14 23:58:00,2.8,-8.6,29.03,WSW,248,2.7,4.9,58,0.00,,---,0.00,VWS V14.01,2013-02-15 05:58:00,
2013-02-14 23:59:00,3.0,-8.4,29.03,West,270,4.7,4.7,58,0.00,,---,0.00,VWS V14.01,2013-02-15 05:59:00,